[[{"header":{"parameterUnit":"m.s-1","parameterCategory":1,"la1":30.6,"la2":29.2853,"lo1":-89.7004,"lo2":-87.6739,"dy":0.0162,"dx":0.0183,"nx":112,"ny":82,"refTime":"2023-07-02T00:00:00:Z","depth":0,"parameterNumber":2,"parameterNumberName":"U-component_of_WINDS"},"data":[0.0,0.0,0.0,0.0,0.0,0.0,0.0,0.0,0.0,0.0,0.0,0.0,0.0,0.0,0.0,0.0,0.0,0.0,0.0,0.0,0.0,0.0,0.0,0.0,0.0,0.0,0.0,0.0,0.0,0.0,0.0,0.0,0.0,0.0,0.0,0.0,0.0,0.0,0.0,0.0,0.0,0.0,0.0,0.0,0.0,0.0,0.0,0.0,0.0,0.0,0.0,0.0,0.0,0.0,0.0,0.0,0.0,0.0,0.0,0.0,0.0,0.0,0.0,0.0,0.0,0.0,0.0,0.0,0.0,0.0,0.0,0.0,0.0,0.0,0.0,0.0,0.0,0.0,0.0,0.0,0.0,0.0,0.0,0.0,0.0,0.0,0.0,0.0,0.0,0.0,-5.0728,-5.4483,-5.9519,-6.2617,-6.2606,-6.0771,-5.7118,-5.1248,0.0,0.0,0.0,0.0,0.0,0.0,0.0,0.0,0.0,0.0,0.0,0.0,0.0,0.0,0.0,0.0,0.0,0.0,0.0,0.0,0.0,0.0,0.0,0.0,0.0,0.0,0.0,0.0,0.0,0.0,0.0,0.0,0.0,0.0,0.0,0.0,0.0,0.0,0.0,0.0,0.0,0.0,0.0,0.0,0.0,0.0,0.0,0.0,0.0,0.0,0.0,0.0,0.0,0.0,0.0,0.0,0.0,0.0,0.0,0.0,0.0,0.0,0.0,0.0,0.0,0.0,0.0,0.0,0.0,0.0,0.0,0.0,0.0,0.0,0.0,0.0,0.0,0.0,0.0,0.0,0.0,0.0,0.0,0.0,0.0,0.0,0.0,0.0,0.0,0.0,0.0,0.0,0.0,0.0,0.0,0.0,0.0,0.0,0.0,0.0,0.0,0.0,0.0,0.0,-4.9618,-5.5123,-5.7735,-5.9303,-5.9843,-5.8648,-5.5835,-5.1021,0.0,0.0,0.0,0.0,0.0,0.0,0.0,0.0,0.0,0.0,0.0,0.0,0.0,0.0,0.0,0.0,0.0,0.0,0.0,0.0,0.0,0.0,0.0,0.0,0.0,0.0,0.0,0.0,0.0,0.0,0.0,0.0,0.0,0.0,0.0,0.0,0.0,0.0,0.0,0.0,0.0,0.0,0.0,0.0,0.0,0.0,0.0,0.0,0.0,0.0,0.0,0.0,0.0,0.0,0.0,0.0,0.0,0.0,0.0,0.0,0.0,0.0,0.0,0.0,0.0,0.0,0.0,0.0,0.0,0.0,0.0,0.0,0.0,0.0,0.0,0.0,0.0,0.0,0.0,0.0,0.0,0.0,0.0,0.0,0.0,0.0,0.0,0.0,0.0,0.0,0.0,0.0,0.0,0.0,0.0,0.0,0.0,0.0,0.0,0.0,0.0,0.0,0.0,-4.8775,-5.1359,-5.5403,-5.7317,-5.8393,-5.8641,-5.7711,-5.492,-4.9738,-4.7925,0.0,0.0,0.0,0.0,0.0,0.0,0.0,0.0,0.0,0.0,0.0,0.0,0.0,0.0,0.0,0.0,0.0,0.0,0.0,0.0,0.0,0.0,0.0,0.0,0.0,0.0,0.0,0.0,0.0,0.0,0.0,0.0,0.0,0.0,0.0,0.0,0.0,0.0,0.0,0.0,0.0,0.0,0.0,0.0,0.0,0.0,0.0,0.0,0.0,0.0,0.0,0.0,0.0,0.0,0.0,0.0,0.0,0.0,0.0,0.0,0.0,0.0,0.0,0.0,0.0,0.0,0.0,0.0,0.0,0.0,0.0,0.0,0.0,0.0,0.0,0.0,0.0,0.0,0.0,0.0,0.0,0.0,0.0,0.0,0.0,0.0,0.0,0.0,0.0,0.0,0.0,0.0,0.0,0.0,0.0,0.0,0.0,0.0,0.0,0.0,0.0,0.0,-5.0619,-5.2733,-5.5238,-5.6639,-5.7513,-5.7779,-5.6808,-5.4034,-4.8923,-4.7281,0.0,0.0,0.0,0.0,0.0,0.0,0.0,0.0,0.0,0.0,0.0,0.0,0.0,0.0,0.0,0.0,0.0,0.0,0.0,0.0,0.0,0.0,0.0,0.0,0.0,0.0,0.0,0.0,0.0,0.0,0.0,0.0,0.0,0.0,0.0,0.0,0.0,0.0,0.0,0.0,0.0,0.0,0.0,0.0,0.0,0.0,0.0,0.0,0.0,0.0,0.0,0.0,0.0,0.0,0.0,0.0,0.0,0.0,0.0,0.0,0.0,0.0,0.0,0.0,0.0,0.0,0.0,0.0,0.0,0.0,0.0,0.0,0.0,0.0,0.0,0.0,0.0,0.0,0.0,0.0,0.0,0.0,0.0,0.0,0.0,0.0,0.0,0.0,0.0,0.0,0.0,0.0,0.0,0.0,0.0,0.0,0.0,0.0,0.0,0.0,0.0,0.0,-4.9311,-5.1761,-5.4323,-5.4696,-5.5341,-5.6769,-5.5408,-5.3028,-4.9644,-4.7084,0.0,0.0,0.0,0.0,0.0,0.0,0.0,0.0,0.0,0.0,0.0,0.0,0.0,0.0,0.0,0.0,0.0,0.0,0.0,0.0,0.0,0.0,0.0,0.0,0.0,0.0,0.0,0.0,0.0,0.0,0.0,0.0,0.0,0.0,0.0,0.0,0.0,0.0,0.0,0.0,0.0,0.0,0.0,0.0,0.0,0.0,0.0,0.0,0.0,0.0,0.0,0.0,0.0,0.0,0.0,0.0,0.0,0.0,0.0,0.0,0.0,0.0,0.0,0.0,0.0,0.0,0.0,0.0,0.0,0.0,0.0,0.0,0.0,0.0,0.0,0.0,0.0,0.0,0.0,0.0,0.0,0.0,0.0,0.0,0.0,0.0,0.0,0.0,0.0,0.0,0.0,0.0,0.0,0.0,0.0,0.0,0.0,0.0,0.0,0.0,0.0,0.0,-4.8398,-5.0702,-5.2675,-5.3367,-5.4111,-5.514,-5.4162,-5.1902,-4.8192,0.0,0.0,0.0,0.0,0.0,0.0,0.0,0.0,0.0,0.0,0.0,0.0,0.0,0.0,0.0,0.0,0.0,0.0,0.0,0.0,0.0,0.0,0.0,0.0,0.0,0.0,0.0,0.0,0.0,0.0,0.0,0.0,0.0,0.0,0.0,0.0,0.0,0.0,0.0,0.0,0.0,0.0,0.0,0.0,0.0,0.0,0.0,0.0,0.0,0.0,0.0,0.0,0.0,0.0,0.0,0.0,0.0,0.0,0.0,0.0,0.0,0.0,0.0,0.0,0.0,0.0,0.0,0.0,0.0,0.0,0.0,0.0,0.0,0.0,0.0,0.0,0.0,0.0,0.0,0.0,0.0,0.0,0.0,0.0,0.0,0.0,0.0,0.0,0.0,0.0,0.0,0.0,0.0,0.0,0.0,0.0,0.0,0.0,0.0,0.0,0.0,0.0,-4.5071,-4.7477,-4.9701,-5.1337,-5.2259,-5.3053,-5.3817,-5.2598,-5.045,-4.7327,0.0,0.0,0.0,0.0,0.0,0.0,0.0,0.0,0.0,0.0,0.0,0.0,0.0,0.0,0.0,0.0,0.0,0.0,0.0,0.0,0.0,0.0,0.0,0.0,0.0,0.0,0.0,0.0,0.0,0.0,0.0,0.0,0.0,0.0,0.0,0.0,0.0,0.0,0.0,0.0,0.0,0.0,0.0,0.0,0.0,0.0,0.0,0.0,0.0,0.0,0.0,0.0,0.0,0.0,0.0,0.0,0.0,0.0,0.0,0.0,0.0,0.0,0.0,0.0,0.0,0.0,0.0,0.0,0.0,0.0,0.0,0.0,0.0,0.0,0.0,0.0,0.0,0.0,0.0,0.0,0.0,0.0,0.0,0.0,0.0,0.0,0.0,0.0,0.0,0.0,0.0,0.0,0.0,0.0,0.0,0.0,0.0,0.0,0.0,0.0,0.0,0.0,-4.4201,-4.6528,-4.8759,-5.05,-5.1344,-5.2099,-5.2916,-5.0648,-4.8667,0.0,0.0,0.0,0.0,0.0,0.0,0.0,0.0,0.0,0.0,0.0,0.0,0.0,0.0,0.0,0.0,0.0,0.0,0.0,0.0,0.0,0.0,0.0,0.0,0.0,0.0,0.0,0.0,0.0,0.0,0.0,0.0,0.0,0.0,0.0,0.0,0.0,0.0,0.0,0.0,0.0,0.0,0.0,0.0,0.0,0.0,0.0,0.0,0.0,0.0,0.0,0.0,0.0,0.0,0.0,0.0,0.0,0.0,0.0,0.0,0.0,0.0,0.0,0.0,0.0,0.0,0.0,0.0,0.0,0.0,0.0,0.0,0.0,0.0,0.0,0.0,0.0,0.0,0.0,0.0,0.0,0.0,0.0,0.0,0.0,0.0,0.0,0.0,0.0,0.0,0.0,0.0,0.0,0.0,0.0,0.0,0.0,0.0,0.0,0.0,0.0,0.0,0.0,-4.4124,-4.6028,-4.7894,-4.9606,-4.9942,-5.0591,-5.1976,-4.9748,-4.7701,-4.6361,0.0,0.0,0.0,0.0,0.0,0.0,0.0,0.0,0.0,0.0,0.0,0.0,0.0,0.0,0.0,0.0,0.0,0.0,0.0,0.0,0.0,0.0,0.0,0.0,0.0,0.0,0.0,0.0,0.0,0.0,0.0,0.0,0.0,0.0,0.0,0.0,0.0,0.0,0.0,0.0,0.0,0.0,0.0,0.0,0.0,0.0,0.0,0.0,0.0,0.0,0.0,0.0,0.0,0.0,0.0,0.0,0.0,0.0,0.0,0.0,0.0,0.0,0.0,0.0,0.0,0.0,0.0,0.0,0.0,0.0,0.0,0.0,0.0,0.0,0.0,0.0,0.0,0.0,0.0,0.0,0.0,0.0,0.0,0.0,0.0,0.0,0.0,0.0,0.0,0.0,0.0,0.0,0.0,0.0,0.0,0.0,0.0,0.0,0.0,0.0,0.0,0.0,-4.3643,-4.5624,-4.7298,-4.8298,-4.8635,-4.917,-5.0136,-4.8452,-4.6549,-4.4712,0.0,0.0,0.0,0.0,0.0,0.0,0.0,0.0,0.0,0.0,0.0,0.0,0.0,0.0,0.0,0.0,0.0,0.0,0.0,0.0,0.0,0.0,0.0,0.0,0.0,0.0,0.0,0.0,0.0,0.0,0.0,0.0,0.0,0.0,0.0,0.0,0.0,0.0,0.0,0.0,0.0,0.0,0.0,0.0,0.0,0.0,0.0,0.0,0.0,0.0,0.0,0.0,0.0,0.0,0.0,0.0,0.0,0.0,0.0,0.0,0.0,0.0,0.0,0.0,0.0,0.0,0.0,0.0,0.0,0.0,0.0,0.0,0.0,0.0,0.0,0.0,0.0,0.0,0.0,0.0,0.0,0.0,0.0,0.0,0.0,0.0,0.0,0.0,0.0,0.0,0.0,0.0,0.0,0.0,0.0,0.0,0.0,0.0,0.0,0.0,0.0,0.0,-4.3085,-4.5297,-4.6817,-4.6885,-4.7492,-4.7912,-4.7999,-4.6927,-4.5305,-4.3012,0.0,0.0,0.0,0.0,0.0,0.0,0.0,0.0,0.0,0.0,0.0,0.0,0.0,0.0,0.0,0.0,0.0,0.0,0.0,0.0,0.0,0.0,0.0,0.0,0.0,0.0,0.0,0.0,0.0,0.0,0.0,0.0,0.0,0.0,0.0,0.0,0.0,0.0,0.0,0.0,0.0,0.0,0.0,0.0,0.0,0.0,0.0,0.0,0.0,0.0,0.0,0.0,0.0,0.0,0.0,0.0,0.0,0.0,0.0,0.0,-4.837,-4.7153,0.0,0.0,0.0,0.0,0.0,0.0,0.0,0.0,0.0,0.0,0.0,0.0,0.0,0.0,0.0,0.0,0.0,0.0,0.0,0.0,0.0,0.0,0.0,0.0,0.0,0.0,0.0,0.0,0.0,0.0,0.0,0.0,0.0,0.0,0.0,0.0,0.0,0.0,0.0,0.0,-4.3855,-4.5124,-4.6144,-4.6836,-4.6954,-4.7241,-4.7941,-4.5875,-4.4211,-4.3475,-4.0847,0.0,0.0,0.0,0.0,0.0,0.0,0.0,0.0,0.0,0.0,0.0,0.0,0.0,0.0,0.0,0.0,0.0,0.0,0.0,0.0,0.0,0.0,0.0,0.0,0.0,0.0,0.0,0.0,0.0,0.0,0.0,0.0,0.0,0.0,0.0,0.0,0.0,0.0,0.0,0.0,0.0,0.0,0.0,0.0,0.0,0.0,0.0,0.0,0.0,0.0,0.0,0.0,0.0,0.0,0.0,0.0,0.0,0.0,0.0,-5.0559,-4.9437,0.0,0.0,0.0,0.0,0.0,0.0,0.0,0.0,0.0,0.0,0.0,0.0,0.0,0.0,0.0,0.0,0.0,0.0,0.0,0.0,0.0,0.0,0.0,0.0,0.0,0.0,0.0,0.0,0.0,0.0,0.0,0.0,0.0,0.0,0.0,0.0,0.0,0.0,0.0,0.0,-4.4085,-4.4701,-4.5154,-4.5589,-4.5179,-4.5045,-4.5467,-4.422,-4.3011,-4.2068,-4.0621,0.0,0.0,0.0,0.0,0.0,0.0,0.0,0.0,0.0,0.0,0.0,0.0,0.0,0.0,0.0,0.0,0.0,0.0,0.0,0.0,0.0,0.0,0.0,0.0,0.0,0.0,0.0,0.0,0.0,0.0,0.0,0.0,0.0,0.0,0.0,0.0,0.0,0.0,0.0,0.0,0.0,0.0,0.0,0.0,0.0,0.0,0.0,0.0,0.0,0.0,0.0,0.0,0.0,-5.3954,-5.4178,-5.4842,-5.3847,-5.3865,-5.4582,-5.2999,-5.2054,-5.157,-5.0848,0.0,0.0,0.0,0.0,0.0,0.0,0.0,0.0,0.0,0.0,0.0,0.0,0.0,0.0,0.0,0.0,0.0,0.0,0.0,0.0,0.0,0.0,0.0,0.0,-4.8432,-4.7932,-4.5682,0.0,0.0,0.0,0.0,0.0,0.0,0.0,0.0,0.0,0.0,0.0,-4.3932,-4.4201,-4.4241,-4.4082,-4.3366,-4.287,-4.2805,-4.2651,-4.1972,-4.0597,-4.0639,-3.9537,0.0,0.0,0.0,0.0,0.0,0.0,0.0,0.0,0.0,0.0,0.0,0.0,0.0,0.0,0.0,0.0,0.0,0.0,0.0,0.0,0.0,0.0,0.0,0.0,0.0,0.0,0.0,0.0,0.0,0.0,0.0,0.0,-4.7519,-4.7833,0.0,0.0,0.0,0.0,0.0,0.0,0.0,0.0,0.0,0.0,0.0,0.0,0.0,-5.2194,-5.3256,-5.4783,-5.5689,-5.5992,-5.7465,-5.8232,-5.8293,-5.6777,-5.6559,-5.7335,-5.6333,0.0,-5.2528,-5.2392,0.0,0.0,0.0,0.0,0.0,0.0,0.0,0.0,0.0,0.0,0.0,0.0,0.0,0.0,0.0,0.0,0.0,0.0,0.0,0.0,0.0,0.0,-4.9421,-4.9274,-4.9798,-5.0058,0.0,-4.7067,-4.5287,-4.4182,-4.4066,-4.3816,0.0,0.0,0.0,0.0,0.0,0.0,-4.3316,-4.3874,-4.4011,-4.3246,-4.3001,-4.287,-4.2805,-4.2097,-4.1571,-4.1361,-4.0034,-3.9309,-3.9402,-3.8032,0.0,0.0,0.0,0.0,0.0,0.0,0.0,0.0,0.0,0.0,0.0,0.0,0.0,0.0,0.0,0.0,0.0,0.0,0.0,0.0,0.0,0.0,0.0,0.0,0.0,0.0,0.0,0.0,0.0,-4.6857,-4.8798,-4.8864,-4.8229,-4.6872,0.0,0.0,0.0,0.0,0.0,0.0,0.0,0.0,0.0,-5.4233,-5.4349,-5.5233,-5.711,-5.7508,-5.8208,-5.9163,-5.9595,-5.9798,-5.9759,-5.8593,-5.8006,-5.7886,-5.751,-5.6409,-5.482,-5.3836,-5.2683,-5.1336,0.0,0.0,0.0,0.0,-4.8271,-4.8388,-4.9247,-4.9304,-4.899,-4.8816,0.0,0.0,0.0,0.0,0.0,0.0,0.0,0.0,0.0,0.0,-4.9136,-4.9351,-4.9317,-4.9125,-4.8759,-4.7798,-4.6759,-4.5913,-4.5759,-4.5336,-4.4008,-4.3393,0.0,0.0,0.0,-4.3662,-4.3758,-4.3682,-4.328,-4.2381,-4.1837,-4.1498,-4.1407,-4.1054,-4.0835,-4.0826,-4.0138,-3.9633,-3.9394,-3.8948,-3.8356,0.0,0.0,0.0,0.0,0.0,0.0,0.0,0.0,0.0,0.0,0.0,0.0,0.0,0.0,0.0,0.0,0.0,0.0,0.0,0.0,0.0,0.0,0.0,0.0,0.0,0.0,0.0,0.0,-4.9167,-5.0701,-5.0096,-5.0818,-4.9817,0.0,0.0,0.0,0.0,0.0,0.0,-5.2116,-5.2821,-5.4349,-5.6921,-5.6998,-5.8023,-6.019,-5.9703,-6.0097,-6.1328,-6.0634,-6.0322,-6.0284,-5.9316,-5.8515,-5.7888,-5.7669,-5.7196,-5.6506,-5.5207,-5.4147,-5.3134,-5.0731,-5.0184,-5.0653,-4.9794,-4.9462,-4.956,-5.0202,-5.028,-5.0026,-4.9599,-4.8915,-4.7957,-4.6436,0.0,0.0,0.0,0.0,-4.7467,-4.8292,-4.8336,-4.8315,-4.8927,-4.8567,-4.8105,-4.8105,-4.7952,-4.7625,0.0,-4.6904,-4.6432,-4.4893,-4.4143,0.0,-4.4239,-4.397,-4.372,-4.3662,-4.3335,-4.2665,-4.1528,-4.0866,-4.0449,-4.0353,-4.0316,-4.0308,-4.031,-4.0291,-4.0014,-3.9355,-3.9556,-3.914,-3.8007,0.0,0.0,0.0,0.0,0.0,0.0,0.0,0.0,0.0,0.0,0.0,0.0,0.0,0.0,0.0,0.0,0.0,0.0,0.0,0.0,0.0,0.0,0.0,0.0,0.0,0.0,0.0,0.0,0.0,-5.2058,-5.4645,0.0,0.0,0.0,0.0,-5.06,-5.2094,-5.3837,-5.5655,-5.5799,-5.7018,-5.9609,-5.9706,-6.0132,-6.1041,-6.102,-6.103,-6.1116,-6.0435,-6.0116,-6.0062,-5.8626,-5.7947,-5.7849,-5.7024,-5.6632,-5.6592,-5.6516,-5.5962,-5.4988,-5.3192,-5.2528,-5.247,-5.159,-5.1277,-5.1277,-5.1316,-5.0789,-5.0221,-5.1004,-5.0672,-4.9792,-4.8896,-4.8076,0.0,0.0,-4.6963,-4.6689,-4.8132,-4.7895,-4.7417,-4.8013,-4.8125,-4.8105,-4.8105,-4.7509,-4.6942,0.0,-4.6904,-4.6605,-4.5691,0.0,-4.521,-4.4412,-4.4979,-4.4605,-4.2239,-4.2604,-4.2453,-4.074,-4.0521,-4.0466,-4.0407,-4.0353,-4.0307,-4.0307,-4.0291,-4.0282,-4.0244,-3.948,-3.9394,-4.0129,-3.8236,0.0,0.0,0.0,0.0,0.0,0.0,0.0,0.0,0.0,0.0,0.0,0.0,0.0,0.0,0.0,0.0,0.0,0.0,0.0,0.0,0.0,0.0,0.0,0.0,0.0,0.0,0.0,0.0,-5.3799,-5.6549,0.0,-5.3068,-5.3233,-5.3937,-5.4786,-5.5972,-5.739,-5.9128,-5.9262,-5.9706,-6.0634,-6.0673,-6.0809,-6.1099,-6.1184,-6.1221,-6.1221,-6.0503,-5.9873,-5.9293,-5.8246,-5.7489,-5.6982,-5.6718,-5.6597,-5.6597,-5.6609,-5.6426,-5.5952,-5.4227,-5.3873,-5.4207,-5.2761,-5.2234,-5.2156,-5.159,-5.1199,-5.0906,-5.0631,-4.9616,-4.8426,-4.8113,-4.7432,-4.6768,-4.6768,-4.6944,-4.7099,-4.6887,-4.6623,-4.6296,-4.5775,-4.5259,-4.4874,-4.4874,-4.4662,-4.4605,-4.5124,-4.5682,-4.5951,-4.5652,-4.471,-4.4066,-4.4259,-4.3643,-4.2835,-4.1923,-4.2058,-4.1808,-4.0627,-4.0492,-4.0487,-4.0458,-4.0396,-4.0353,-4.0307,-4.0291,-4.0301,-4.0301,-3.9995,-3.9709,-3.947,-3.8728,-3.8052,0.0,0.0,0.0,0.0,0.0,0.0,0.0,0.0,0.0,0.0,0.0,0.0,0.0,0.0,0.0,0.0,0.0,0.0,0.0,0.0,0.0,0.0,0.0,0.0,0.0,-5.3911,-5.6713,-5.5075,-5.8365,-5.9358,-5.5703,-5.612,-5.6988,-5.7876,-5.8797,-5.9793,-6.0934,-6.1032,-6.108,-6.1099,-6.1099,-6.1099,-6.1099,-6.0816,-6.0724,-6.0802,-5.9768,-5.8948,-5.8364,-5.7583,-5.696,-5.6511,-5.6557,-5.6582,-5.6581,-5.6285,-5.6163,-5.608,-5.521,-5.5226,-5.5538,-5.3778,-5.3132,-5.2936,-5.1472,-5.0965,-5.0828,-4.9948,-4.8913,-4.7959,-4.7684,-4.7198,-4.6749,-4.6749,-4.6729,-4.6592,-4.608,-4.5521,-4.4924,-4.4098,-4.3489,-4.3104,-4.3104,-4.3104,-4.3258,-4.3797,-4.4586,-4.5248,-4.5556,-4.469,-4.4124,-4.4662,-4.3547,-4.2547,-4.2277,-4.1981,-4.147,-4.0593,-4.0496,-4.05,-4.0487,-4.0466,-4.0415,-4.0334,-4.0299,-4.0301,-4.0301,-4.0301,-4.0034,-3.9451,-3.8766,-3.8051,-3.7294,0.0,0.0,0.0,0.0,0.0,0.0,0.0,0.0,0.0,0.0,0.0,0.0,0.0,0.0,0.0,0.0,0.0,0.0,0.0,0.0,0.0,0.0,0.0,-5.1717,-5.5508,-5.762,-5.5938,-6.0195,-6.1647,-5.755,-5.9358,-6.0477,-5.9725,-6.0468,-6.0965,-6.1031,-6.1041,-6.107,-6.1089,-6.1099,-6.1099,-6.1099,-5.9968,-5.9571,-5.9889,-5.8207,-5.7405,-5.7373,-5.6626,-5.637,-5.6487,-5.6467,-5.649,-5.6484,-5.5624,-5.5252,-5.5349,-5.6197,-5.6523,-5.6307,-5.46,-5.3912,-5.3522,-5.0982,-5.0065,-4.987,-4.9032,-4.874,-4.8564,-4.7762,-4.7528,-4.7508,-4.7489,-4.6259,-4.5109,-4.5719,-4.4628,-4.3297,-4.3069,-4.3028,-4.3028,-4.3028,-4.3028,-4.3028,-4.3047,-4.3682,-4.4489,-4.5364,-4.5498,-4.5479,-4.5479,-4.4739,0.0,-4.3124,-4.2277,-4.145,-4.0593,-4.0496,-4.0496,-4.0496,-4.0495,-4.0466,-4.0377,-4.0314,-4.028,-4.0272,-4.0282,-4.0301,-4.0291,-3.8373,-3.7349,-3.7368,0.0,0.0,0.0,0.0,0.0,0.0,0.0,0.0,0.0,0.0,0.0,0.0,0.0,0.0,0.0,0.0,0.0,0.0,0.0,0.0,0.0,-4.9347,-5.2129,-5.3338,-5.6688,-5.9044,-5.9198,-6.1076,-6.1901,-6.0729,-6.0738,-6.0966,-6.1393,-6.1678,-6.1827,-6.1803,-6.1888,-6.1669,-6.1041,-6.108,-6.1099,-6.1099,-5.9968,-5.9571,-5.988,-5.8144,-5.7337,-5.7307,-5.6557,-5.6276,-5.6328,-5.5789,-5.5592,-5.5586,-5.4726,-5.4355,-5.4375,-5.4621,-5.4712,-5.4571,-5.3474,-5.2259,-5.1061,-5.0358,-4.9304,-4.825,-4.8016,-4.749,-4.6827,-4.5968,-4.5712,-4.5576,-4.4953,-4.4426,-4.3921,-4.3322,-4.2825,-4.2241,-4.14,-4.1208,-4.1208,-4.1208,-4.1208,-4.1393,-4.2027,-4.2335,-4.2758,-4.3643,-4.3258,-4.2835,-4.2835,-4.2104,0.0,-4.1247,-4.1016,-4.0766,-4.0535,-4.0496,-4.0496,-4.0496,-4.0495,-4.0225,-3.9575,-4.0006,-4.003,-3.9457,-3.9995,-4.0215,-4.0017,-3.9286,-3.8788,0.0,0.0,0.0,0.0,0.0,0.0,0.0,0.0,0.0,0.0,0.0,0.0,0.0,0.0,0.0,0.0,0.0,0.0,0.0,0.0,0.0,0.0,-5.1424,-5.4047,-5.575,-5.8194,-6.013,-6.1006,-6.1608,-6.1966,-6.201,-6.124,-6.0969,-6.1512,-6.1586,-6.162,-6.1604,-6.1692,-6.1523,-6.1021,-6.107,-6.0944,-6.0596,-5.9329,-5.873,-5.8797,-5.7404,-5.6757,-5.6747,-5.6312,-5.6174,-5.6273,-5.5851,-5.5519,-5.5234,-5.4355,-5.3789,0.0,0.0,0.0,0.0,0.0,-5.1281,-5.0007,-4.9304,-4.8172,-4.7002,-4.663,-4.5929,-4.5129,-4.4602,-4.4465,-4.4348,-4.384,-4.342,-4.2958,-4.2278,-4.182,-4.1346,-4.0653,-4.0496,-4.0496,-4.0496,-4.0496,-4.065,-4.1162,-4.1258,0.0,-4.1912,-4.22,-4.2335,-4.2335,-4.1604,-4.1046,-4.1046,-4.0727,-4.0496,-4.0496,-4.0496,-4.0496,-4.0496,-4.0492,0.0,0.0,0.0,-4.0159,-3.9618,-3.9948,0.0,0.0,0.0,-3.9259,-3.9101,0.0,0.0,0.0,-4.0448,-4.1729,0.0,0.0,0.0,0.0,0.0,0.0,0.0,0.0,0.0,0.0,0.0,0.0,0.0,0.0,0.0,0.0,-5.3937,-5.6515,-5.8378,-5.9707,-6.0786,-6.1551,-6.1701,-6.1767,-6.1831,-6.1146,-6.0722,-6.0788,-6.08,-6.0823,-6.09,-6.0955,0.0,0.0,0.0,-6.0567,-5.9841,-5.8285,-5.7434,-5.728,-5.6409,-5.6012,-5.5993,-5.5816,-5.5876,-5.6137,-5.5853,-5.546,-5.4922,-5.3965,-5.3066,-5.2363,-5.3221,-5.3628,-5.3506,-5.1753,-5.0614,-4.9714,-4.8035,0.0,0.0,-4.5012,-4.425,-4.3666,-4.3471,-4.3471,-4.3528,-4.3432,-4.2798,-4.211,-4.1993,-4.1341,-4.0662,-4.0534,-4.0496,-4.0496,-4.0496,-4.0496,-4.0496,-4.0496,-4.0496,-4.0496,-4.0496,-4.1777,-4.2816,-4.2816,-4.2143,-4.1662,-4.1662,-4.0969,-4.0496,-4.0496,0.0,0.0,-4.0496,-4.0496,-4.0462,-4.0375,-4.0271,-4.0183,-4.0136,-3.9899,-3.9783,-3.9829,-3.9357,-3.9045,-3.8929,-3.9411,-3.9328,-3.8744,-4.05,-4.2228,0.0,0.0,0.0,0.0,0.0,0.0,0.0,0.0,0.0,0.0,0.0,0.0,0.0,0.0,0.0,-5.1917,-5.521,-5.8005,-5.9363,-6.0063,-6.0474,-6.0646,-6.0734,-6.0774,-6.0788,-6.0738,-6.0717,-6.071,-6.0777,-6.0812,-6.0823,-6.088,-6.0916,-6.0931,-6.0152,-5.964,-5.9503,-5.7387,-5.6671,-5.728,0.0,0.0,-5.5954,-5.466,-5.4496,-5.5139,-5.315,-5.2615,-5.3086,-5.1562,-5.0429,-4.9725,-5.0542,-5.1279,-5.1684,-4.9955,-4.9208,-4.8818,-4.7139,-4.5987,-4.4992,-4.3411,-4.3255,-4.3432,-4.2027,-4.2084,0.0,-4.1792,-4.143,-4.1211,-4.109,-4.089,-4.0662,-4.0534,-4.0496,-4.0496,-4.0496,-4.0496,-4.0496,-4.0496,-4.0496,-4.0496,-4.0496,-4.0785,-4.0997,-4.0997,-4.0862,-4.0746,-4.0746,-4.0593,-4.0496,-4.0496,-4.0496,-4.0496,-4.0496,-4.0496,-4.0219,-3.9577,-3.8827,-3.8618,-3.9061,-3.9051,-3.914,-3.9408,-3.9311,-3.8808,-3.7889,-3.7996,-3.8272,-3.8726,-3.974,-4.0409,0.0,0.0,0.0,0.0,0.0,0.0,0.0,0.0,0.0,0.0,0.0,-4.6815,-4.7272,0.0,-5.2221,-5.4093,-5.6123,-5.7939,-5.9228,-5.9755,-6.0095,-6.0375,-6.0431,-6.0458,-6.0499,-6.0604,-6.0648,-6.0685,-6.0746,-6.08,-6.08,-6.0858,-6.0691,-6.025,-5.9842,-5.9177,-5.8316,-5.7204,-5.6652,-5.6641,-5.5799,-5.5393,-5.5335,-5.37,-5.3236,-5.3658,-5.2007,-5.1352,-5.1348,-5.0078,-4.9296,-4.8902,-4.8861,-4.9384,-4.9983,-4.8685,-4.792,-4.7373,-4.6085,-4.4797,-4.3567,-4.2689,-4.2396,-4.2241,-4.1363,-4.1402,-4.1651,-4.1181,-4.0974,-4.0878,-4.078,-4.0674,-4.0574,-4.0512,-4.0496,-4.0519,-4.0593,-4.0595,-4.0615,-4.0642,-4.0655,-4.0636,-4.0609,-4.0595,-4.0586,-4.0512,-4.0496,-4.0496,-4.0496,-4.0496,-4.0496,-4.0496,-4.0496,-4.0342,-3.9938,-3.9496,-3.9084,-3.8661,-3.8216,-3.803,-3.8185,-3.8069,-3.8217,-3.8695,-3.8178,-3.7831,-3.7653,-3.7204,-3.7415,-3.8143,-3.8113,-3.8964,0.0,0.0,0.0,0.0,0.0,0.0,0.0,-4.4013,-4.4483,-4.5405,-4.7363,-4.927,-5.0471,-5.2132,-5.3981,-5.6017,-5.6867,-5.7684,-5.8838,-5.9358,-5.9763,-6.0099,-6.0307,-6.0417,-6.0472,-6.0539,-6.0617,-6.068,-6.0734,-6.0788,-6.08,-6.0692,-6.038,-5.9851,-5.931,-5.8201,-5.6492,-5.6692,-5.6371,-5.5509,-5.4851,-5.4542,-5.4473,-5.2466,-5.1806,-5.2167,-5.1193,-5.0369,-4.9628,-4.9101,-4.8691,-4.8331,-4.7804,-4.7937,-4.8301,-4.7609,-4.7002,-4.6378,-4.5168,-4.3821,-4.2591,-4.2259,-4.1674,-4.1109,-4.1109,-4.1109,-4.1081,-4.1011,-4.0898,-4.0786,-4.0711,-4.0614,-4.0523,-4.0496,-4.0504,-4.0518,-4.0456,-4.0468,-4.0446,-4.032,-4.0286,-4.0305,-4.0441,-4.0443,-4.0448,-4.0492,-4.0496,-4.0439,-4.0285,-4.0265,-4.0208,-4.0035,-4.0169,-3.9996,-3.9361,-3.8661,-3.8104,-3.7777,-3.7757,-3.7629,-3.7382,-3.7127,-3.7272,-3.7873,-3.6981,-3.6763,-3.723,-3.6533,-3.649,-3.7069,-3.6368,-3.7606,-4.0936,-4.1488,-4.2965,-4.4361,-4.4712,-4.5657,0.0,-4.8946,-4.8353,-4.9847,-5.1602,-5.2701,-5.2154,-5.4121,-5.5903,-5.6176,-5.7371,-5.8417,-5.8932,-5.9466,-5.9656,-5.9297,-5.9931,-6.0403,-6.0403,-6.0472,-6.0539,-6.0604,-6.066,-6.0753,-6.08,-6.0081,-5.998,-6.0644,-5.7792,-5.5509,-5.3936,-5.4619,-5.4585,-5.3788,-5.3691,-5.3652,-5.3544,-5.0371,-4.9784,-5.1167,-4.959,-4.8474,-4.785,-4.8521,-4.7929,-4.6653,-4.7331,-4.7188,-4.6575,-4.6475,-4.6866,-4.7118,-4.468,-4.3723,-4.3294,-4.1753,-4.1187,-4.1109,-4.1109,-4.1109,-4.1081,-4.1011,-4.0898,-4.0786,-4.0711,-4.0635,-4.0573,-4.0504,-4.0549,-4.0402,-3.9696,-3.9597,-3.9437,-3.8719,-3.8484,-3.8644,-3.9418,-3.9501,-3.9692,-4.0381,-4.0496,-4.0246,-3.9534,-3.9438,-3.915,-3.8354,-3.8969,-3.94,-3.9304,-3.9207,-3.8488,-3.6942,-3.6846,-3.6753,-3.654,-3.6331,-3.6507,-3.712,-3.6756,-3.6258,-3.5563,-3.5403,-3.5322,-3.5293,-3.5188,-3.6138,-4.3239,-4.3592,-4.4304,-4.5441,-4.637,-4.7463,-4.9181,-4.9392,-4.9508,-5.0664,-5.2222,-5.3447,-5.3664,-5.4972,-5.6174,-5.6701,-5.7304,-5.7986,-5.8757,-5.8672,-5.865,-5.9059,-5.9415,-5.9644,-5.9644,-6.0152,-6.0512,-6.0539,-6.0635,-6.071,-6.0734,-5.995,-5.9215,-5.8605,-5.7279,-5.5758,-5.4092,-5.4495,-5.4521,-5.4171,-5.2708,-5.1989,-5.1892,-4.9039,-4.7913,-4.815,-4.7495,-4.7028,-4.6772,-4.718,-4.6933,-4.6344,-4.6691,-4.6627,-4.6308,-4.6302,-4.589,-4.5168,-4.4075,-4.3042,-4.2066,-4.1343,-4.1109,-4.1109,-4.1109,-4.1109,-4.1081,-4.1011,-4.0898,-4.0786,-4.0711,-4.0654,-4.058,-4.0523,-4.0554,-4.0388,-3.9567,-3.9423,-3.9218,-3.8447,-3.8258,-3.848,-3.9249,-3.9374,-3.9616,-4.0377,-4.0496,-4.0381,-4.0035,-3.9996,-3.9688,-3.8854,-3.8623,-3.8334,-3.7834,-3.7353,-3.6776,-3.6058,-3.6,-3.5909,-3.5717,-3.5621,-3.5856,-3.6459,-3.5803,-3.5471,-3.5529,-3.4833,-3.4713,-3.511,-3.4573,-3.4926,-4.3936,-4.441,-4.4886,-4.561,-4.7007,-4.8209,-4.8204,-4.8972,-4.9895,-5.054,-5.1967,-5.3405,-5.4406,-5.5317,-5.6169,-5.7004,-5.7206,-5.7576,-5.8452,-5.8047,-5.7844,-5.8466,-5.8677,-5.867,-5.844,-5.9437,-6.0223,-6.048,-6.0387,-6.0423,-6.0697,-5.9727,-5.8396,-5.6684,-5.6235,-5.5208,-5.3504,-5.4024,-5.4099,-5.3623,-5.2006,-5.1006,-5.05,-4.8206,-4.6749,-4.6016,-4.6115,-4.6153,-4.6189,-4.6243,-4.6289,-4.6287,-4.6049,-4.5947,-4.5902,-4.5662,-4.4935,-4.3997,-4.3509,-4.2513,-4.142,-4.1187,-4.1109,-4.1109,-4.1109,-4.1109,-4.1081,-4.1011,-4.0933,-4.082,-4.0736,-4.0501,-4.0279,-4.0192,-4.006,-3.972,-3.8896,-3.8713,-3.8482,-3.7737,-3.7562,-3.7866,-3.8874,-3.9019,-3.9354,-4.0358,-4.0496,-4.0419,-4.0208,-3.9746,-3.9219,-3.8642,-3.8027,-3.7392,-3.675,-3.6173,-3.5731,-3.5519,-3.55,-3.5432,-3.53,-3.5234,-3.541,-3.5847,-3.5054,-3.4886,-3.5375,-3.4481,-3.4325,-3.482,-3.4127,-3.4119,-4.1796,-4.2948,-4.4103,-4.4858,-4.6228,-4.743,-4.7448,-4.8607,-4.9776,-5.0077,-5.1454,-5.2969,-5.4102,-5.5191,-5.6144,-5.6876,-5.7213,-5.7546,-5.7945,-5.7849,-5.7546,-5.7208,-5.761,-5.76,-5.6759,-5.8173,-5.9519,-6.0441,-5.9779,-5.974,-6.0647,-5.9208,-5.7538,-5.5786,-5.4154,-5.2539,-5.0943,-5.2522,-5.2568,-5.1015,-5.173,-5.1253,-4.9687,-4.7915,-4.6626,-4.5827,-4.5939,-4.6046,-4.6109,-4.6179,-4.6247,-4.6229,-4.5366,-4.5048,-4.4945,-4.4085,-4.4276,-4.4717,-4.304,-4.2396,-4.222,-4.1363,-4.1109,-4.1109,-4.1109,-4.1109,-4.1081,-4.1011,-4.101,-4.0956,-4.074,-4.0122,-3.9503,-3.9374,-3.8786,-3.8021,-3.7162,-3.6978,-3.673,-3.5937,-3.5723,-3.6207,-3.7852,-3.8079,-3.8592,-4.0246,-4.0496,-4.0227,-3.9438,-3.7853,-3.6808,-3.6769,-3.675,-3.6731,-3.6692,-3.6673,-3.6327,-3.5558,-3.55,-3.55,-3.5493,-3.5289,-3.5201,-3.5239,-3.4936,-3.4701,-3.4544,-3.4314,-3.4111,-3.3931,-3.3847,-3.3807,-4.2617,-4.4264,-4.5853,-4.6819,-4.7453,-4.7931,-4.8149,-4.8599,-4.9046,-4.9326,-4.9384,-4.9781,-5.0963,-5.2383,-5.3663,-5.453,-5.6125,-5.7425,-5.7941,-5.7705,-5.7398,-5.7137,-5.8022,-5.8099,-5.6721,-5.7619,-5.8435,-5.8748,-5.8566,-5.8821,-5.9721,-5.8246,-5.6851,-5.5731,-5.4645,-5.3241,-5.1558,-5.2127,-5.1904,-5.081,-4.9447,-4.8203,-4.7096,-4.6503,-4.578,-4.5033,-4.5714,-4.538,-4.4472,-4.5703,-4.5558,-4.4609,-4.4881,-4.4645,-4.4037,-4.3152,-4.3011,-4.3184,-4.2593,-4.2025,-4.1498,-4.1207,-4.1109,-4.1109,-4.1109,-4.1093,-4.1094,-4.1062,-4.1025,-4.0842,-4.0208,-4.0211,-4.0051,-3.8806,-3.8756,-3.8595,-3.7089,-3.6774,-3.6524,-3.5725,-3.599,-3.6691,-3.7847,-3.8017,-3.818,-3.8757,-3.9785,-4.0208,-3.94,-3.8796,-3.7988,-3.6827,-3.6692,-3.6481,-3.5942,-3.5904,-3.5788,-3.5519,-3.4968,-3.4641,-3.4641,-3.4574,-3.4546,-3.4546,-3.4887,-3.5009,-3.4889,-3.4548,-3.4291,-3.4105,-3.3941,-3.3842,-4.3385,-4.4982,-4.6356,-4.7308,-4.7465,-4.7415,-4.7616,-4.7787,-4.7971,-4.8229,-4.7932,-4.807,-4.9519,-5.0564,-5.1581,-5.275,-5.4338,-5.5783,-5.6698,-5.6665,-5.6724,-5.7148,-5.798,-5.8134,-5.7082,-5.7262,-5.7562,-5.7886,-5.7953,-5.8247,-5.884,-5.7627,-5.6398,-5.5299,-5.4472,-5.3068,-5.1029,-5.1347,-5.1134,-5.0302,-4.8141,-4.6806,-4.6252,-4.5942,-4.5355,-4.4627,-4.5268,-4.4754,-4.3557,-4.4775,-4.4634,-4.3689,-4.3965,-4.3729,-4.3121,-4.2257,-4.194,-4.1935,-4.1949,-4.1576,-4.1109,-4.1109,-4.1109,-4.1109,-4.1093,-4.1095,-4.1041,-4.075,-4.086,-4.0824,-3.993,-4.0068,-4.0146,-3.8923,-3.8562,-3.8189,-3.7032,-3.651,-3.6115,-3.5596,-3.6154,-3.6885,-3.745,-3.7796,-3.8007,-3.8007,-3.8911,-3.9323,-3.8469,-3.8373,-3.7834,-3.6423,-3.6269,-3.5942,-3.5103,-3.5045,-3.4911,-3.4596,-3.4045,-3.3878,-3.4186,-3.4205,-3.4359,-3.4661,-3.5081,-3.525,-3.5122,-3.4792,-3.4472,-3.4223,-3.3999,-3.3855,-4.3992,-4.5116,-4.5691,-4.6389,-4.6321,-4.6045,-4.596,-4.6257,-4.6635,-4.6839,-4.7027,-4.7666,-4.9432,-4.9661,-5.0086,-5.1537,-5.2204,-5.3075,-5.4609,-5.5024,-5.5751,-5.7222,-5.764,-5.7796,-5.772,-5.7101,-5.7027,-5.7772,-5.7857,-5.7921,-5.8035,-5.727,-5.611,-5.4549,-5.3645,-5.201,-4.949,-5.0212,-5.0163,-4.9356,-4.7774,-4.7018,-4.6999,-4.6174,-4.5336,-4.4549,-4.4655,-4.4146,-4.3301,-4.3512,-4.3549,-4.3398,-4.2674,-4.2362,-4.2241,-4.1401,-4.1062,-4.1031,-4.109,-4.1109,-4.1109,-4.1109,-4.1109,-4.1091,-4.1058,-4.1059,-4.0925,-4.0129,-4.0482,-4.0889,-3.996,-3.9794,-3.9799,-3.9524,-3.8194,-3.6948,-3.6864,-3.615,-3.5514,-3.5501,-3.6155,-3.6713,-3.6706,-3.7437,-3.7976,-3.7892,-3.7911,-3.7623,-3.6808,-3.6692,-3.6385,-3.5596,-3.5462,-3.5103,-3.4263,-3.4167,-3.3782,-3.2949,-3.2852,-3.3237,-3.4109,-3.4129,-3.4545,-3.5423,-3.5481,-3.541,-3.5218,-3.4954,-3.4663,-3.4334,-3.4062,-3.3908,-4.4483,-4.6086,-4.7166,-4.6424,-4.6673,-4.6761,-4.5418,-4.5718,-4.6153,-4.5625,-4.5113,-4.4865,-4.5143,-4.7602,-4.9727,-5.0122,-5.3356,-5.5938,-5.6353,-5.7147,-5.7607,-5.7425,-5.8629,-5.902,-5.7834,-5.817,-5.8039,-5.7008,-5.639,-5.6378,-5.7095,-5.6333,-5.5439,-5.453,-5.3645,-5.2299,-5.0385,-4.941,-4.8482,-4.7621,-4.6614,-4.6136,-4.6116,-4.5904,-4.5007,-4.3672,-4.4344,-4.3449,-4.164,-4.2974,-4.2819,-4.1776,-4.2225,-4.2031,-4.1464,-4.1209,-4.0717,-4.0282,-4.0883,-4.1094,-4.1109,-4.1109,-4.1109,-4.0973,-4.033,-4.0586,-4.0923,-4.0125,-4.048,-4.0911,-4.0065,-4.0262,-4.0196,-3.8219,-3.7847,-3.7582,-3.6293,-3.578,-3.5585,-3.5645,-3.6338,-3.6913,-3.6868,-3.752,-3.7636,-3.6329,-3.6654,-3.6942,-3.6731,-3.6692,-3.6385,-3.5596,-3.493,-3.443,-3.4225,-3.3603,-3.3141,-3.291,-3.2333,-3.2372,-3.3199,-3.3237,-3.3641,-3.4507,-3.5173,-3.546,-3.5424,-3.519,-3.4999,-3.4823,-3.4593,-3.442,-4.5371,-4.6612,-4.7294,-4.6553,-4.6374,-4.6154,-4.5187,-4.5158,-4.5211,-4.4777,-4.4084,-4.36,-4.3819,-4.6391,-4.856,-4.8941,-5.2599,-5.5501,-5.5862,-5.6992,-5.7804,-5.7923,-5.9059,-5.9409,-5.8335,-5.8429,-5.802,-5.6702,-5.6212,-5.6046,-5.6213,-5.5451,-5.4855,-5.4511,-5.328,-5.1645,-4.9586,-4.8349,-4.7293,-4.6414,-4.5996,-4.5807,-4.5787,-4.5432,-4.4543,-4.3305,0.0,-4.2473,-4.0925,-4.1944,-4.1848,-4.1105,-4.1629,-4.1347,-4.0625,-4.0584,-4.0054,-3.9385,-3.9851,-4.0236,-4.0581,-4.0973,-4.1109,-4.1012,-4.0526,-4.0707,-4.0927,-4.0127,-4.0482,-4.0914,-4.0112,-4.0471,-4.0668,-3.9201,-3.8592,-3.8084,-3.7104,-3.6237,-3.5771,-3.619,-3.6354,-3.653,-3.6886,-3.7006,-3.6693,-3.5694,-3.592,-3.6209,-3.618,-3.5834,-3.543,-3.4988,-3.4173,-3.3513,-3.3147,-3.2653,-3.221,-3.1832,-3.137,-3.1653,-3.2852,-3.2891,-3.3487,-3.4757,-3.525,-3.55,-3.55,-3.5308,-3.5149,-3.5034,-3.4803,-3.4643,-4.6453,-4.6971,-4.6877,-4.6615,-4.591,-4.5226,-4.5068,-4.4653,-4.4272,-4.4192,-4.3607,-4.3293,-4.3921,-4.5579,-4.7181,-4.8222,-5.1155,-5.3619,-5.4536,-5.5944,-5.7262,-5.8324,-5.8972,-5.9221,-5.8942,-5.8186,-5.7409,-5.6658,-5.6461,-5.6076,-5.5377,-5.4737,-5.4312,-5.4164,-5.2587,-5.0615,-4.8298,-4.7531,-4.6725,-4.5854,-4.5815,-4.5742,-4.5599,-4.4903,-4.4052,-4.3092,-4.2338,-4.1545,-4.0803,-4.0863,-4.0941,-4.0997,-4.0957,-4.0502,-3.9881,-3.9764,-3.9175,-3.8445,-3.8562,-3.8987,-3.9624,-4.06,-4.1012,-4.1072,-4.0959,-4.1004,-4.093,-4.0129,-4.0463,-4.0933,-4.0247,-4.0574,-4.1078,-4.094,-3.9646,-3.838,-3.8283,-3.693,-3.5959,-3.6701,-3.6246,-3.5978,-3.672,-3.6238,-3.57,-3.5609,-3.5607,-3.5587,-3.5528,-3.4847,-3.4379,-3.4379,-3.3634,-3.2811,-3.1958,-3.1769,-3.1383,-3.0629,-3.0571,-3.1324,-3.3006,-3.3064,-3.3833,-3.5462,-3.55,-3.55,-3.55,-3.5331,-3.5218,-3.513,-3.4879,-3.4811,-4.7399,-4.7791,-4.7463,-4.6131,-4.6263,-4.6281,-4.4587,-4.4548,-4.4635,-4.3802,-4.3347,-4.3001,-4.2703,-4.4496,-4.6739,-4.9,-5.1587,-5.383,-5.5346,-5.6811,-5.7689,-5.7685,-5.8127,-5.8559,-5.8959,-5.766,-5.6759,-5.6619,-5.5371,-5.4602,-5.4515,-5.4449,-5.3774,-5.2385,-5.1414,-5.0356,-4.9183,-4.8391,-4.7551,-4.6684,-4.6086,-4.5428,-4.4725,-4.4638,-4.373,-4.2222,-4.2067,0.0,-4.0803,-4.0863,-4.0941,-4.0938,-4.0272,-3.9973,-3.9804,-3.9082,-3.826,-3.7631,-3.8352,-3.8229,-3.7985,-3.9527,-4.0503,-4.0973,-4.0231,-4.0525,-4.0917,-4.0058,-4.045,-4.1074,-4.0938,-4.0995,-4.0915,-4.0192,-3.927,-3.8369,-3.7645,-3.6682,-3.5984,-3.6075,-3.6007,-3.5981,-3.6075,-3.5969,-3.579,-3.5639,-3.5607,-3.5602,-3.5579,-3.5406,-3.5269,-3.5269,-3.452,-3.3659,-3.285,-3.216,-3.1684,-3.1496,-3.1476,-3.2235,-3.3917,-3.3975,-3.4468,-3.5481,-3.55,-3.55,-3.55,-3.5453,-3.5405,-3.5342,-3.5235,-3.5586,-4.7347,-4.7643,-4.746,-4.6672,-4.6232,-4.5771,-4.4783,-4.4401,-4.405,-4.3459,-4.3111,-4.2777,-4.2379,-4.4214,-4.6222,-4.7519,-5.0527,-5.3128,-5.4379,-5.5898,-5.7217,-5.8018,-5.7978,-5.7999,-5.8292,-5.7273,-5.6434,-5.6014,-5.4873,-5.4226,-5.4304,-5.3972,-5.3018,-5.1337,-5.1318,-5.0491,-4.874,-4.8382,-4.7561,-4.6271,-4.592,-4.5314,-4.4498,-4.4061,-4.318,-4.1963,-4.1519,-4.1094,-4.0752,-4.0812,-4.0645,-4.0289,-3.9892,-3.9256,-3.8496,-3.8086,-3.7362,-3.6675,-3.7104,-3.7273,-3.7438,-3.8238,-3.9097,-3.9801,-3.98,-4.0115,-4.0489,-4.0485,-4.0779,-4.1091,-4.1097,-4.1094,-4.0992,-4.053,-3.9815,-3.9008,-3.8159,-3.7653,-3.7333,-3.7262,-3.6902,-3.6616,-3.6579,-3.6194,-3.5864,-3.5713,-3.5732,-3.5728,-3.566,-3.5625,-3.5438,-3.5018,-3.4197,-3.3519,-3.3146,-3.273,-3.2454,-3.2378,-3.2374,-3.2928,-3.4148,-3.4205,-3.4603,-3.5481,-3.5904,-3.5923,-3.55,-3.5923,-3.6108,-3.6049,-3.559,-3.5825,-4.7169,-4.7463,-4.7537,-4.7353,-4.6281,-4.524,-4.5171,-4.4288,-4.3479,-4.3375,-4.2995,-4.2634,-4.2452,-4.3888,-4.5319,-4.595,-4.8753,-5.1346,-5.2744,-5.4418,-5.6176,-5.8001,-5.7843,-5.7636,-5.7735,-5.6905,-5.5995,-5.5193,-5.4223,-5.3682,-5.3771,-5.3063,-5.2068,-5.075,-5.1318,-5.0587,-4.8394,-4.8257,-4.7428,-4.5954,-4.5783,-4.5264,-4.4449,-4.3593,-4.2751,-4.1923,-4.1061,-4.0713,-4.0707,-4.0583,-4.0223,-3.9683,-3.931,-3.8408,-3.7285,-3.709,-3.6581,-3.5991,-3.599,-3.6452,-3.7048,-3.7243,-3.7888,-3.8747,-3.9566,-3.9843,-4.0042,-4.0876,-4.1093,-4.1091,-4.1103,-4.1093,-4.1047,-4.0785,-4.0232,-3.9553,-3.8752,-3.858,-3.8555,-3.8512,-3.7951,-3.7425,-3.7227,-3.6796,-3.6328,-3.5882,-3.6011,-3.6066,-3.5772,-3.5745,-3.5503,-3.4886,-3.4179,-3.3688,-3.3483,-3.344,-3.3397,-3.3307,-3.3294,-3.3652,-3.4456,-3.4468,-3.4872,-3.5731,-3.6385,-3.6481,-3.6038,-3.6673,-3.6981,-3.6962,-3.6253,-3.6411,-4.7553,-4.7922,-4.831,-4.7571,-4.6774,-4.6023,-4.5425,-4.4399,-4.3612,-4.3726,-4.3195,-4.2731,-4.2825,-4.2827,-4.3548,-4.5897,-4.6606,-4.7912,-5.1063,-5.2896,-5.4578,-5.6406,-5.7191,-5.7672,-5.7862,-5.644,-5.5154,-5.4276,-5.2808,-5.1962,-5.2033,-5.1326,-5.0866,-5.0712,-5.077,-5.0317,-4.9298,-4.849,-4.7663,-4.6778,-4.605,-4.5258,-4.4383,-4.3563,-4.2729,-4.1861,-4.1047,-4.0725,0.0,-4.0014,-3.9746,-3.9637,-3.8055,-3.7372,-3.7207,-3.6406,-3.6072,-3.5991,-3.6006,-3.6058,-3.6246,-3.7048,-3.7888,-3.8747,-3.9566,-3.98,-3.9997,-4.0855,-4.1109,-4.1106,-4.11,-4.1093,-4.0872,-4.0025,-3.9766,-3.9496,-3.8678,-3.8503,-3.85,-3.8497,-3.8441,-3.8127,-3.7347,-3.7835,-3.7798,-3.6148,-3.651,-3.6724,-3.5978,-3.588,-3.588,-3.5864,-3.5686,-3.5239,-3.4451,-3.4432,-3.4419,-3.4289,-3.4279,-3.4607,-3.5353,-3.5385,-3.575,-3.6577,-3.6654,-3.7038,-3.7777,-3.7834,-3.7873,-3.7873,-3.774,-3.8162,-4.6917,-4.7819,-4.864,-4.8378,-4.7034,-4.5882,-4.6094,-4.4695,-4.3446,-4.3743,-4.3473,-4.3123,-4.292,-4.2707,-4.2913,-4.4027,-4.4606,-4.5892,-4.8728,-5.0108,-5.2206,-5.594,-5.6257,-5.6529,-5.746,-5.6684,-5.5345,-5.3454,-5.2307,-5.1494,-5.1031,-5.0276,-4.9884,-4.9913,-4.9913,-4.926,-4.7913,-4.8029,-4.7432,-4.6105,-4.5785,-4.5205,-4.4375,-4.3532,-4.2691,-4.1863,-4.1059,-4.0701,0.0,-4.0451,-3.9824,-3.888,-3.8247,-3.7374,-3.6484,-3.6132,-3.5993,-3.5991,-3.6006,-3.6332,-3.6833,-3.7184,-3.7888,-3.8669,-3.8982,-3.9079,-3.9255,-4.0073,-4.0709,-4.1085,-4.1056,-4.1,-4.089,-4.0567,-4.0473,-4.0379,-4.0068,-4.0031,-4.0056,-4.0019,-3.9613,-3.916,-3.8814,-3.8209,-3.7517,-3.6796,-3.6549,-3.6321,-3.5992,-3.5953,-3.5953,-3.5937,-3.5923,-3.5771,-3.538,-3.5371,-3.5344,-3.5259,-3.5175,-3.5248,-3.5552,-3.599,-3.6365,-3.6692,-3.7738,-3.818,-3.8007,-3.8527,-3.8777,-3.8777,-3.8223,-3.8435,-4.6292,-4.7658,-4.8995,-4.9027,-4.7484,-4.6102,-4.6705,-4.5152,-4.3648,-4.3865,-4.3705,-4.3404,-4.305,-4.2805,-4.2688,-4.2804,-4.3311,-4.4523,-4.699,-4.8022,-5.019,-5.4633,-5.4969,-5.5293,-5.6478,-5.5911,-5.4619,-5.2594,-5.1733,-5.1073,-5.0519,-4.9736,-4.9336,-4.9394,-4.9394,-4.8606,-4.6923,-4.7471,-4.7028,-4.5594,-4.5594,-4.5161,-4.4339,-4.3492,-4.266,-4.1848,-4.1026,-4.0662,0.0,-4.0578,-3.9863,-3.8775,-3.8315,-3.7417,-3.6348,-3.6093,-3.5993,-3.5991,-3.6006,-3.6566,-3.7301,-3.7301,-3.7711,-3.8259,-3.8513,-3.8767,-3.9138,-3.9956,-4.06,-4.1056,-4.1003,-4.0945,-4.0917,-4.0967,-4.0975,-4.0964,-4.0972,-4.1026,-4.1064,-4.1,-4.0566,-4.0099,-3.9845,-3.8773,-3.7792,-3.7304,-3.6747,-3.6285,-3.6031,-3.5988,-3.5942,-3.5908,-3.5933,-3.605,-3.6272,-3.6306,-3.6384,-3.6554,-3.6468,-3.638,-3.6348,-3.6813,-3.7219,-3.7469,-3.8661,-3.913,-3.8738,-3.9361,-3.9642,-3.9646,-3.9031,-3.9069,-4.5927,-4.7507,-4.938,-4.938,-4.8179,-4.7022,-4.7146,-4.5796,-4.4421,-4.424,-4.3833,-4.3439,-4.3214,-4.2975,-4.2822,-4.29,-4.29,-4.3751,-4.6178,-4.721,-4.8844,-5.1894,-5.3237,-5.417,-5.4863,-5.3657,-5.2499,-5.1677,-5.0864,-5.0435,-5.05,-4.9736,-4.9336,-4.9394,-4.9394,-4.8606,-4.6923,-4.6904,-4.6471,-4.5594,-4.5594,-4.5152,-4.4259,-4.347,-4.2667,-4.1848,-4.0979,-4.0687,0.0,-4.0011,-3.9736,-3.9626,-3.7967,-3.7305,-3.7187,-3.6327,-3.5993,-3.5991,-3.6006,-3.6566,-3.7301,-3.7301,-3.7301,-3.7477,-3.8337,-3.9157,-3.9976,-4.0836,-4.1059,-4.1003,-4.1007,-4.0943,-4.0907,-4.0907,-4.0907,-4.0907,-4.0907,-4.0948,-4.0996,-4.0996,-4.1055,-4.0801,-3.9943,-3.9786,-3.9214,-3.7555,-3.7282,-3.697,-3.6109,-3.5939,-3.5908,-3.5908,-3.5907,-3.6258,-3.7111,-3.7258,-3.7603,-3.8332,-3.8307,-3.8205,-3.8075,-3.8015,-3.8392,-3.9265,-3.9284,-3.9688,-4.0477,-4.0477,-4.0492,-4.0482,-4.0482,-4.0482,-4.5502,-4.6566,-4.7691,-4.7691,-4.6544,-4.5574,-4.6194,-4.4912,-4.3722,-4.4109,-4.3786,-4.3388,-4.3232,-4.3013,-4.3062,-4.3625,-4.3715,-4.4367,-4.625,-4.7979,-5.0135,-5.3069,-5.508,-5.6431,-5.6896,-5.4224,-5.2462,-5.2478,-5.122,-5.0251,-4.9698,-4.9471,-4.9106,-4.8529,-4.8509,-4.7702,-4.6028,-4.6605,-4.6471,-4.5594,-4.5594,-4.5152,-4.4259,-4.3508,-4.2695,-4.1867,-4.1073,-4.0739,-4.0724,-4.0638,-3.9908,-3.8802,-3.8354,-3.7812,-3.7264,-3.6989,-3.7279,-3.7782,-3.7776,-3.8319,-3.8921,-3.8376,-3.8551,-3.9058,-3.9331,-3.9214,-3.9154,-3.9979,-4.0628,-4.0914,-4.0271,-4.0108,-4.0228,-4.0781,-4.048,-4.0228,-4.0771,-4.0949,-4.0993,-4.0993,-4.0577,-4.0122,-3.985,-3.886,-3.7906,-3.7379,-3.6794,-3.6305,-3.6031,-3.5939,-3.5901,-3.5904,-3.5894,-3.6245,-3.7135,-3.7218,-3.7586,-3.8427,-3.8309,-3.8208,-3.8169,-3.8551,-3.89,-3.9231,-3.9815,-3.9965,-3.9688,-3.9688,-3.9665,-3.9618,-3.9669,-3.9977,-4.517,-4.6149,-4.7062,-4.6928,-4.611,-4.5355,-4.558,-4.4627,-4.3727,-4.3865,-4.3623,-4.3337,-4.3142,-4.2976,-4.3173,-4.3969,-4.4095,-4.4826,-4.6915,-4.8638,-5.0712,-5.3451,-5.5316,-5.6282,-5.6007,-5.3853,-5.2469,-5.2437,-5.1234,-5.0157,-4.9345,-4.9365,-4.8856,-4.7682,-4.7663,-4.6836,-4.5133,-4.5643,-4.549,-4.4671,-4.4671,-4.4209,-4.3379,-4.2915,-4.2244,-4.1422,-4.0958,-4.0746,0.0,-4.0906,-4.034,-3.9357,-3.9143,-3.875,-3.824,-3.7906,-3.8137,-3.86,-3.8596,-3.9139,-3.9663,-3.8864,-3.8942,-3.9292,-3.8961,-3.8941,-3.9153,-3.9659,-4.0172,-4.0365,-3.9454,-3.9677,-4.0205,-4.0407,-4.0305,-4.0208,-4.0402,-4.0478,-4.0413,-4.0114,-3.9648,-3.9325,-3.9334,-3.8201,-3.742,-3.7735,-3.7049,-3.648,-3.648,-3.6426,-3.625,-3.5931,-3.59,-3.6375,-3.7546,-3.7686,-3.8179,-3.9325,-3.9238,-3.9137,-3.9114,-3.9434,-3.966,-3.97,-4.0218,-4.01,-3.9304,-3.8935,-3.8758,-3.8727,-3.9085,-3.9527,0.0,-4.6045,-4.7103,-4.6802,-4.6437,-4.5962,-4.5285,-4.4774,0.0,-4.3557,-4.3406,-4.3302,-4.303,-4.2992,-4.33,-4.4172,-4.4317,-4.531,-4.8126,-4.9418,-5.0928,-5.3339,-5.44,-5.4391,-5.3041,-5.2785,-5.2428,-5.1752,-5.0889,-5.0061,-4.9249,-4.9231,-4.8471,-4.6855,-4.6759,-4.5951,-4.4316,-4.4297,-4.3893,-4.3104,-4.3104,-4.2686,-4.1898,-4.1905,-4.1461,-4.07,-4.07,-4.0739,0.0,-4.0863,-4.0902,-4.0821,-4.0096,-3.9838,-3.9802,-3.8982,-3.8724,-3.8776,-3.8776,-3.9278,-3.9741,-3.8884,-3.8591,-3.8435,-3.7554,-3.8413,-3.9698,-3.964,-3.9613,-3.9406,-3.8532,-3.9505,-4.0543,-3.9858,-4.0266,-4.0635,-3.9932,-3.9796,-3.9563,-3.8822,-3.858,-3.8534,-3.8655,-3.7912,-3.7598,-3.8463,-3.7912,-3.7361,-3.7301,-3.7248,-3.6876,-3.5994,-3.5905,-3.6565,-3.8231,-3.8431,-3.9165,-4.0784,-4.0754,-4.0649,-4.0584,-4.0523,-4.0499,-4.0489,-4.0373,-3.9958,-3.9207,-3.8212,-3.7767,-3.7836,-3.865,-3.9061,-4.4393,0.0,-4.4932,-4.4859,-4.4753,-4.465,0.0,-4.4141,-4.3804,-4.3612,-4.339,-4.336,-4.3755,-4.3901,-4.4488,-4.6119,-4.6433,-4.7242,-4.9466,-5.1942,-5.4087,-5.5658,-5.5521,-5.4899,-5.3894,-5.2633,-5.1835,-5.1714,-5.0333,-4.9159,-4.8346,-4.7789,-4.7009,-4.5932,-4.5259,-4.4701,-4.4297,-4.4297,-4.3893,-4.3104,-4.3099,-4.268,-4.1905,-4.1938,-4.151,-4.07,-4.0752,-4.0784,-4.0803,-4.0863,-4.0552,-4.0,-3.9843,-3.984,-3.9878,-3.9663,-3.9989,-4.0506,-4.0506,-4.0642,-4.0543,-3.9079,-3.8591,-3.8434,-3.7501,-3.7964,-3.8666,-3.7997,-3.8271,-3.8575,-3.7656,-3.8186,-3.9109,-3.9596,-3.9834,-4.0111,-4.0538,-4.0652,-4.0645,-4.0443,-3.9374,-3.8711,-3.9403,-3.8284,-3.7608,-3.8464,-3.8423,-3.805,-3.7381,-3.7248,-3.6863,-3.5997,-3.5897,-3.6538,-3.8117,-3.8253,-3.8995,-4.0724,-4.0589,-4.0466,-4.0442,-4.0383,-4.036,-4.0422,-3.9208,-3.8488,-3.8296,-3.6801,-3.6375,-3.6987,-3.719,-3.7624,-4.3936,-4.4057,-4.4255,-4.4476,-4.4378,-4.4255,-4.4286,-4.402,-4.3677,-4.3461,-4.3286,-4.336,-4.4047,-4.4692,-4.5535,-4.693,-4.7994,-4.9327,-5.1373,-5.3259,-5.467,-5.5371,-5.5078,-5.4314,-5.3072,-5.2136,-5.13,-5.0566,-4.9669,-4.8649,-4.7501,-4.7069,-4.6463,-4.5633,-4.5152,-4.4528,-4.3758,-4.3355,-4.2739,-4.1912,-4.194,-4.1713,-4.1311,-4.1368,-4.1151,-4.0746,-4.0784,0.0,-4.0803,-4.0848,-4.063,-4.0289,-4.0345,-4.0399,-4.0443,-4.0443,-4.073,-4.1031,-4.0639,-4.027,-3.9743,-3.8435,-3.8006,-3.7827,-3.6891,-3.6935,-3.7296,-3.7218,-3.7804,-3.8241,-3.7341,-3.8315,-3.9559,-3.9688,-3.9975,-4.0266,-4.0344,-4.0382,-4.0291,-3.9879,-3.9101,-3.8658,-3.9126,-3.8477,-3.8192,-3.9073,-3.9135,-3.8783,-3.7921,-3.7751,-3.7209,-3.5947,-3.5811,-3.6457,-3.8053,-3.8117,-3.8794,-4.0505,-4.0477,-4.0389,-4.0366,-3.9949,-3.9602,-3.9295,-3.8055,-3.7411,-3.7411,-3.6115,-3.571,-3.6104,-3.651,-3.6918,-4.3582,-4.3869,-4.4346,-4.4631,-4.4419,-4.4194,-4.4252,-4.4007,-4.3644,-4.3304,-4.3269,-4.3578,-4.4342,-4.5425,-4.652,-4.7516,-4.9467,-5.1491,-5.3261,-5.3859,-5.4046,-5.3913,-5.3798,-5.311,-5.1563,-5.1295,-5.0631,-4.9204,-4.8851,-4.8158,-4.6849,-4.6657,-4.6281,-4.5615,-4.547,-4.4729,-4.3297,-4.2431,-4.1566,-4.0708,-4.0631,-4.0598,-4.0595,-4.0668,-4.0746,-4.0797,0.0,0.0,-4.0797,-4.0797,-4.0873,-4.099,-4.099,-4.1049,-4.1088,-4.0951,-4.0926,-4.0798,-3.9917,-3.9253,-3.8611,-3.7614,-3.7301,-3.7123,-3.6183,-3.5985,-3.6256,-3.6988,-3.7683,-3.8066,-3.7463,-3.8991,-4.0538,-3.9854,-4.0305,-4.0713,-4.0033,-3.9873,-3.9654,-3.8934,-3.8747,-3.8731,-3.8869,-3.8843,-3.9086,-3.9953,-3.9975,-3.9574,-3.872,-3.842,-3.7689,-3.6072,-3.5786,-3.6323,-3.7864,-3.7815,-3.8381,-3.9917,-4.0255,-4.0317,-4.0142,-3.9487,-3.87,-3.7815,-3.7084,-3.6635,-3.6519,-3.5827,-3.5467,-3.5432,-3.6161,-3.6473,-4.3582,-4.4062,-4.4483,-4.3879,-4.3674,-4.3617,-4.3644,-4.3588,-4.3513,-4.3394,-4.3907,-4.4583,-4.5275,-4.6324,-4.7696,-4.9528,-5.185,-5.356,-5.3938,-5.4059,-5.3836,-5.3091,-5.2403,-5.1601,-5.0608,-4.9882,-4.9377,-4.9121,-4.7777,-4.6872,-4.6643,-4.6043,-4.5638,-4.5513,-4.4857,-4.4374,-4.4124,-4.3316,-4.247,-4.1585,-4.0911,-4.0607,-4.0595,-4.0739,-4.079,-4.0797,0.0,-4.0797,-4.0797,-4.0797,-4.0873,-4.099,-4.099,-4.1046,-4.1013,-4.0347,-4.0088,-3.9966,-3.9082,-3.9156,-3.9351,-3.7809,-3.7301,-3.712,-3.6185,-3.6418,-3.7027,-3.7082,-3.7195,-3.7439,-3.8045,-3.9047,-3.9854,-3.9737,-4.0305,-4.0869,-4.0733,-4.0713,-4.0674,-4.0548,-4.0022,-3.9825,-4.0499,-4.0109,-3.9972,-4.0788,-4.0853,-4.0482,-3.961,-3.8809,-3.7912,-3.6908,-3.6134,-3.6061,-3.6933,-3.6935,-3.7288,-3.8219,-3.9566,-4.0025,-3.9402,-3.9257,-3.8454,-3.6923,-3.6769,-3.6365,-3.5673,-3.5558,-3.55,-3.5493,-3.5554,-3.5597,-4.3814,-4.3909,-4.4066,-4.4121,-4.447,-4.4911,-4.5351,-4.5112,-4.4672,-4.4197,-4.4871,-4.575,-4.6488,-4.8085,-5.0122,-5.2654,-5.3215,-5.3372,-5.3397,-5.3015,-5.2442,-5.1544,-5.0741,-5.0092,-4.9691,-4.8888,-4.82,-4.7723,-4.698,-4.6373,-4.5974,-4.5704,-4.5596,-4.5665,-4.4859,-4.4635,-4.5117,-4.3769,-4.2893,-4.2489,-4.1682,-4.1301,-4.1282,-4.0952,-4.0797,-4.0797,0.0,-4.0797,-4.0797,-4.0797,-4.0873,-4.099,-4.099,-4.1044,-4.1052,-4.0676,-3.9987,-3.9142,-3.8749,-3.8238,-3.7612,-3.6851,-3.6597,-3.6594,-3.6606,-3.6877,-3.738,-3.8261,-3.8497,-3.8596,-3.9004,-3.9723,-4.0344,-4.0344,-4.0635,-4.0907,-4.0907,-4.0907,-4.0907,-4.0907,-4.0657,-4.0575,-4.0936,-4.1146,-4.1225,-4.1117,-4.1373,-4.1124,-3.9809,-3.8767,-3.7794,-3.6938,-3.6084,-3.5912,-3.6671,-3.672,-3.704,-3.7846,-3.8588,-3.8662,-3.7882,-3.7851,-3.7271,-3.6077,-3.6058,-3.5865,-3.55,-3.55,-3.5467,-3.5434,-3.5372,-3.5357,-4.3456,-4.3486,-4.3679,-4.4268,-4.4874,-4.5645,-4.6819,-4.6489,-4.5828,-4.559,-4.641,-4.7265,-4.7692,-4.97,-5.1982,-5.4142,-5.3709,-5.3091,-5.3091,-5.2059,-5.1047,-5.0378,-4.9404,-4.8793,-4.8793,-4.8009,-4.7215,-4.6557,-4.6328,-4.599,-4.5448,-4.5549,-4.558,-4.5525,-4.4853,-4.4724,-4.5181,-4.3809,-4.3104,-4.3085,-4.2491,-4.1989,-4.1584,-4.1242,-4.099,-4.0797,-4.0797,-4.0815,-4.082,-4.082,-4.0893,-4.1014,-4.1014,-4.0935,-4.0818,-4.0811,-3.9887,-3.8574,-3.8376,-3.7419,-3.6265,-3.607,-3.5992,-3.6106,-3.6715,-3.7043,-3.752,-3.8979,-3.9544,-3.9737,-3.9932,-4.0441,-4.0907,-4.0907,-4.0907,-4.0907,-4.0907,-4.0907,-4.0907,-4.0907,-4.0943,-4.0991,-4.0994,-4.1607,-4.1866,-4.1205,-4.149,-4.1325,-4.0057,-3.8967,-3.8046,-3.7392,-3.6385,-3.5942,-3.6385,-3.6421,-3.668,-3.7295,-3.7517,-3.7341,-3.6733,-3.6695,-3.6222,-3.5212,-3.5404,-3.5404,-3.5192,-3.5404,-3.5467,-3.542,-3.533,-3.5308,-4.1842,-4.2662,-4.3583,-4.3605,-4.3643,-4.4268,-4.6581,-4.6489,-4.6305,-4.7737,-4.8901,-4.9416,-4.8731,-5.0531,-5.2054,-5.1809,-5.3035,-5.4008,-5.4008,-5.1926,-5.0378,-5.0302,-4.8888,-4.7884,-4.7884,-4.7111,-4.6577,-4.65,-4.5812,-4.5419,-4.5494,-4.556,-4.532,-4.4702,-4.4576,-4.4136,-4.3388,-4.3204,-4.3104,-4.3104,-4.3096,-4.2254,-4.073,-4.1532,-4.1506,-4.0797,-4.0797,-4.0843,-4.0898,-4.0898,-4.0963,-4.1085,-4.1085,-4.0637,-3.9998,-3.9995,-3.9405,-3.8482,-3.7675,-3.7301,-3.7067,-3.6265,-3.5992,-3.6009,-3.5992,-3.6553,-3.7383,-3.824,-3.9073,-3.9873,-4.0616,-4.0869,-4.0907,-4.0907,-4.0907,-4.0907,-4.0907,-4.0907,-4.0907,-4.0907,-4.0943,-4.0996,-4.1,-4.1117,-4.1171,-4.1118,-4.0976,-4.0849,-4.0733,-3.9831,-3.9188,-3.913,-3.7603,-3.6327,-3.5635,-3.5596,-3.5608,-3.5666,-3.6368,-3.6772,-3.6712,-3.6692,-3.5942,-3.434,-3.5084,-3.5103,-3.4302,-3.5122,-3.55,-3.5493,-3.5364,-3.5308,-4.2793,-4.3514,-4.4274,-4.4748,-4.4727,-4.5132,-4.7353,-4.7609,-4.7553,-4.8119,-4.9713,-5.089,-5.0463,-5.1589,-5.2335,-5.1618,-5.2519,-5.2919,-5.1888,-5.0913,-4.992,-4.8869,-4.7712,-4.6997,-4.6997,-4.6233,-4.5755,-4.5755,-4.5468,-4.5381,-4.5552,-4.5675,-4.5427,-4.4742,-4.4204,-4.3729,-4.3325,-4.2673,-4.2355,-4.2356,-4.2371,-4.2061,-4.1472,-4.1313,-4.1087,-4.0797,-4.0797,-4.0848,-4.0907,-4.0907,-4.0974,-4.1091,-4.1145,-4.0957,-4.064,-4.0659,-3.9775,-3.8556,-3.822,-3.7399,-3.6441,-3.6109,-3.5992,-3.6108,-3.6611,-3.6965,-3.7486,-3.8838,-3.9447,-3.9894,-4.0684,-4.0907,-4.0907,-4.0907,-4.0907,-4.0907,-4.0907,-4.0907,-4.0907,-4.0907,-4.0921,-4.0943,-4.0992,-4.1468,-4.168,-4.1189,-4.1384,-4.1417,-4.0869,-3.9928,-3.9304,-3.9304,-3.8238,-3.718,-3.6327,-3.6731,-3.6615,-3.5577,-3.5794,-3.5948,-3.5942,-3.5942,-3.5654,-3.5026,-3.5327,-3.5346,-3.5007,-3.5346,-3.55,-3.55,-3.5364,-3.5338,-4.2792,-4.3533,-4.428,-4.4812,-4.5146,-4.5863,-4.7806,-4.8144,-4.8273,-4.897,-5.0151,-5.1114,-5.1355,-5.1701,-5.1769,-5.1191,-5.182,-5.1902,-5.0512,-4.982,-4.8961,-4.7559,-4.6634,-4.6118,-4.6118,-4.5621,-4.5307,-4.5307,-4.5307,-4.541,-4.5645,-4.5486,-4.5108,-4.4468,-4.3598,-4.2941,-4.2578,-4.1821,-4.147,-4.1496,-4.1499,-4.1528,-4.1589,-4.13,-4.0893,-4.039,-4.039,-4.0444,-4.0524,-4.0524,-4.0752,-4.1142,-4.1171,-4.1151,-4.1108,-4.1108,-4.0048,-3.8594,-3.8593,-3.7458,-3.5992,-3.5992,-3.5992,-3.6109,-3.6716,-3.684,-3.7091,-3.8505,-3.8903,-3.9136,-4.0237,-4.0713,-4.0907,-4.0907,-4.0907,-4.0907,-4.0907,-4.0907,-4.0907,-4.0907,-4.0907,-4.0917,-4.0971,-4.1489,-4.1704,-4.1156,-4.1416,-4.1475,-4.0888,-4.014,-3.9573,-3.9323,-3.8757,-3.8065,-3.718,-3.7411,-3.7103,-3.5942,-3.5648,-3.5501,-3.5501,-3.5501,-3.5501,-3.5501,-3.5501,-3.5494,-3.55,-3.55,-3.55,-3.55,-3.5379,-3.5372,-4.1322,-4.2337,-4.3372,-4.3321,-4.4522,-4.612,-4.7729,-4.7818,-4.826,-5.0602,-5.031,-4.9953,-5.1153,-5.0672,-5.0126,-5.0169,-5.0912,-5.1204,-5.0386,-4.8793,-4.7396,-4.6585,-4.5774,-4.5307,-4.5307,-4.5288,-4.5288,-4.5307,-4.5288,-4.5437,-4.577,-4.4962,-4.4239,-4.37,-4.2665,-4.1674,-4.081,-4.059,-4.0542,-4.0595,-4.0595,-4.0628,-4.072,-4.159,-4.1061,-3.9501,-3.9501,-3.9578,-3.9711,-3.9714,-4.0299,-4.1191,-4.1191,-4.1152,-4.1091,-4.1089,-4.003,-3.86,-3.8594,-3.7458,-3.5992,-3.5992,-3.5992,-3.5992,-3.5992,-3.5942,-3.6077,-3.6949,-3.7151,-3.7498,-3.9246,-4.0286,-4.0888,-4.0907,-4.0907,-4.0907,-4.0907,-4.0907,-4.0907,-4.0907,-4.0907,-4.0907,-4.0907,-4.0961,-4.099,-4.099,-4.0886,-4.081,-4.0806,-4.0623,-4.0189,-3.94,-3.9304,-3.895,-3.8084,-3.7238,-3.6731,-3.6692,-3.5964,-3.5528,-3.5509,-3.5509,-3.5509,-3.5509,-3.5509,-3.5509,-3.55,-3.55,-3.55,-3.55,-3.5427,-3.5405,-4.1681,-4.2336,-4.3193,-4.3774,-4.4965,-4.6074,-4.6466,-4.7226,-4.8445,-5.0399,-5.0125,-4.9537,-4.9574,-4.9892,-4.9794,-4.8643,-4.9654,-5.0085,-4.8666,-4.799,-4.711,-4.5748,-4.5377,-4.5254,-4.5297,-4.4743,-4.4647,-4.5239,-4.4208,-4.3886,-4.47,-4.4014,-4.3291,-4.2659,-4.2437,-4.1818,-4.081,-4.0745,-4.0377,-3.9697,-4.0311,-4.0333,-3.985,-4.0113,-3.9965,-3.9501,-3.9501,-3.9901,-4.0552,-4.0655,-4.0533,-4.0293,-4.0293,-4.0272,-4.0269,-4.0268,-3.956,-3.8594,-3.8593,-3.7458,-3.5992,-3.5992,-3.5992,-3.5992,-3.5992,-3.5989,-3.6136,-3.6974,-3.7188,-3.742,-3.8501,-3.9412,-4.0208,-4.0771,-4.0907,-4.0907,-4.0907,-4.0907,-4.0907,-4.0907,-4.0907,-4.0917,-4.0952,-4.0979,-4.1019,-4.1059,-4.0926,-4.0756,-4.0616,-4.0537,-4.0419,-4.0169,-4.015,-3.9804,-3.8969,-3.92,-3.8604,-3.6808,-3.7061,-3.6735,-3.5547,-3.5554,-3.5554,-3.5509,-3.5509,-3.5509,-3.55,-3.55,-3.55,-3.55,-3.5427,-3.5405,-4.2357,-4.2729,-4.3277,-4.4132,-4.5113,-4.5826,-4.5663,-4.6655,-4.81,-4.9689,-4.9074,-4.8345,-4.8751,-4.8744,-4.8431,-4.7769,-4.8488,-4.8679,-4.7369,-4.712,-4.6625,-4.5352,-4.5181,-4.5058,-4.4809,-4.4272,-4.4062,-4.4284,-4.3367,-4.3109,-4.3832,-4.3111,-4.2562,-4.2283,-4.1995,-4.1338,-4.0296,-4.0262,-3.9776,-3.8835,-3.9359,-3.9213,-3.8496,-3.9185,-3.9114,-3.8475,-3.8507,-3.884,-3.9439,-3.9874,-3.9796,-3.9375,-3.9375,-3.9374,-3.9388,-3.9388,-3.8835,-3.8084,-3.8084,-3.7165,-3.5992,-3.5992,-3.5992,-3.5992,-3.5992,-3.5992,-3.6103,-3.6548,-3.6688,-3.6868,-3.7669,-3.8266,-3.8965,-4.015,-4.0674,-4.0907,-4.0907,-4.0907,-4.0912,-4.093,-4.0935,-4.0952,-4.0991,-4.1029,-4.1048,-4.1022,-4.0866,-4.0697,-4.0527,-4.0496,-4.0496,-4.0496,-4.0496,-4.0304,-3.9823,-3.9938,-3.9219,-3.7334,-3.7401,-3.6909,-3.5567,-3.556,-3.556,-3.549,-3.5509,-3.5509,-3.55,-3.55,-3.5327,-3.4988,-3.4941,-3.4908,-4.3063,-4.3167,-4.329,-4.4239,-4.4947,-4.5351,-4.525,-4.598,-4.7059,-4.8369,-4.745,-4.6877,-4.837,-4.7421,-4.6649,-4.7367,-4.749,-4.7238,-4.6499,-4.6338,-4.6014,-4.5265,-4.5125,-4.4794,-4.4062,-4.3878,-4.3524,-4.2841,-4.266,-4.2713,-4.3047,-4.2253,-4.1898,-4.2139,-4.1328,-4.0416,-3.9417,-3.9331,-3.8871,-3.7995,-3.8054,-3.7643,-3.6835,-3.8502,-3.8398,-3.6909,-3.7055,-3.7148,-3.7283,-3.8143,-3.8486,-3.8476,-3.8476,-3.8475,-3.8489,-3.8489,-3.7976,-3.7301,-3.7301,-3.6735,-3.5992,-3.5992,-3.5992,-3.5992,-3.5992,-3.5992,-3.5986,-3.5926,-3.5892,-3.6089,-3.6896,-3.7163,-3.7625,-3.9198,-4.0208,-4.0791,-4.0791,-4.0849,-4.0863,-4.0774,-4.084,-4.0851,-4.0776,-4.0883,-4.0959,-4.0902,-4.0789,-4.0649,-4.0519,-4.0496,-4.0496,-4.0496,-4.0496,-4.0496,-4.0496,-3.9823,-3.9034,-3.8161,-3.742,-3.6594,-3.5656,-3.5598,-3.556,-3.549,-3.5509,-3.5509,-3.55,-3.5577,-3.5199,-3.4436,-3.4436,-3.4436,-4.2358,-4.1824,-4.1635,-4.3179,-4.4066,-4.4703,-4.5293,-4.4475,-4.3996,-4.5546,-4.6598,-4.7156,-4.6915,-4.7073,-4.7105,-4.672,-4.7129,-4.7213,-4.644,-4.6246,-4.593,-4.514,-4.5026,-4.4737,-4.398,-4.3342,-4.2905,-4.2813,-4.159,-4.1176,-4.1986,-4.1357,-4.0729,-4.0217,-4.0103,-3.9597,-3.8641,-3.8561,-3.8068,0.0,-3.7791,-3.7327,-3.5911,-3.6978,-3.7251,-3.6942,-3.7647,-3.8015,-3.8132,-3.8338,-3.8097,-3.7578,-3.7578,-3.7577,-3.7572,-3.7572,-3.7469,-3.7301,-3.7301,-3.6735,-3.5992,-3.5992,-3.5992,-3.5992,-3.5992,-3.5992,-3.5988,-3.5927,-3.5904,-3.6095,-3.6887,-3.7611,-3.8212,-3.86,-3.9334,-3.9951,-3.9951,-4.0461,-4.0513,-3.9214,-3.9513,-3.9788,-3.9143,-3.9626,-4.0248,-4.0749,-4.0743,-4.0649,-4.0519,-4.0496,-4.0496,-4.0496,-4.0496,-4.0496,-4.0496,-4.0342,-3.99,-3.9073,-3.8852,-3.807,-3.6521,-3.5907,-3.556,-3.549,-3.5509,-3.5509,-3.55,-3.6135,-3.6346,-3.6161,-3.6161,-3.6486,-4.2253,-4.1889,-4.1712,-4.2524,-4.3297,-4.3837,-4.3715,-4.3223,-4.289,-4.321,-4.4224,-4.5069,-4.5105,-4.5423,-4.5677,-4.5675,-4.5992,-4.5968,-4.5171,-4.5033,-4.4692,-4.3897,-4.4151,-4.3939,-4.2806,-4.2682,-4.2359,-4.1657,-4.0406,-3.9914,-4.0473,-3.9843,-3.9307,-3.8987,-3.9107,-3.8734,-3.7799,-3.775,-3.7039,-3.5713,-3.6584,-3.6547,-3.5714,-3.6139,-3.6332,-3.6342,-3.6806,-3.7065,-3.7155,-3.7155,-3.6978,-3.668,-3.668,-3.6679,-3.6676,-3.6675,-3.669,-3.6682,-3.6678,-3.6383,-3.5992,-3.5992,-3.5992,-3.5992,-3.5992,-3.5992,-3.5988,-3.5921,-3.5899,-3.5994,-3.639,-3.6806,-3.7256,-3.7683,-3.8751,-3.9699,-3.9699,-4.0032,-4.0077,-3.9185,-3.9419,-3.9602,-3.9193,-3.9823,-4.0464,-4.077,-4.0738,-4.0649,-4.0519,-4.0496,-4.0496,-4.0496,-4.0496,-4.0496,-4.0496,-4.0496,-4.0169,-3.9361,-3.9299,-3.8703,-3.7373,-3.6946,-3.6363,-3.5515,-3.5495,-3.57,-3.6077,-3.65,-3.6692,-3.6692,-3.6692,-3.6928,-4.2362,-4.2391,-4.2366,-4.2194,-4.2684,-4.2939,-4.1962,-4.217,-4.229,-4.1389,-4.1855,-4.2667,-4.3434,-4.3521,-4.3713,-4.4364,-4.4478,-4.4194,-4.3379,-4.3398,-4.3194,-4.2367,-4.2997,-4.2925,-4.1518,-4.1973,-4.1727,-4.0167,-3.9403,-3.8995,-3.8981,-3.8415,-3.81,-3.808,-3.8207,-3.7759,-3.6696,-3.6676,-3.584,-3.4218,-3.5145,-3.5671,-3.5804,-3.5755,-3.5736,-3.5723,-3.5723,-3.5764,-3.5824,-3.5824,-3.5892,-3.5996,-3.5996,-3.5996,-3.5995,-3.5992,-3.6008,-3.6003,-3.5995,-3.5992,-3.5992,-3.5992,-3.5992,-3.5992,-3.5992,-3.5991,-3.5963,-3.5929,-3.5908,-3.5927,-3.6001,-3.6017,-3.6203,-3.6925,-3.8324,-3.9489,-3.9489,-3.9582,-3.9664,-3.9523,-3.9541,-3.9644,-3.9777,-4.035,-4.0733,-4.061,-4.0641,-4.061,-4.0327,-4.0419,-4.0496,-4.0496,-4.0496,-4.0496,-4.0496,-4.0496,-4.0227,-3.9554,-3.9515,-3.913,-3.8257,-3.8219,-3.7507,-3.5962,-3.5788,-3.6038,-3.6692,-3.6846,-3.7,-3.7161,-3.7161,-3.7216,-4.2195,-4.2394,-4.2392,-4.2379,-4.2358,-4.2267,-4.1957,-4.1296,-4.0663,-4.0416,-4.1587,-4.2669,-4.2677,-4.2663,-4.2678,-4.2735,-4.2723,-4.2439,-4.1643,-4.2117,-4.228,-4.1476,-4.209,-4.2246,-4.1404,-4.1417,-4.0822,-3.9214,-3.9022,-3.8727,-3.8104,-3.8087,-3.7829,-3.7186,-3.7296,-3.6616,-3.5041,-3.4968,-3.4425,-3.3457,-3.4345,-3.5134,-3.5811,-3.5858,-3.5838,-3.5788,-3.5788,-3.5824,-3.5889,-3.5889,-3.5926,-3.5996,-3.5996,-3.5996,-3.5995,-3.5992,-3.6008,-3.6003,-3.5995,-3.5992,-3.5992,-3.5992,-3.5992,-3.5992,-3.5992,-3.5963,-3.591,-3.5903,-3.5892,-3.606,-3.6747,-3.6931,-3.6964,-3.7061,-3.7858,-3.8581,-3.8581,-3.9178,-3.9489,-3.8805,-3.8718,-3.8979,-3.9683,-3.9843,-3.9861,-3.976,-4.0292,-4.0398,-3.9576,-4.0073,-4.0496,-4.0496,-4.0496,-4.0496,-4.0496,-4.0496,-4.0458,-4.0342,-4.0342,-3.9977,-3.9169,-3.913,-3.8661,-3.77,-3.6923,-3.6596,-3.6692,-3.7469,-3.82,-3.895,-3.895,-3.9335,-4.2296,-4.2031,-4.1665,-4.1677,-4.1627,-4.1532,-4.1378,-4.1001,-4.0649,-4.0518,-4.1081,-4.1494,-4.1203,-4.1518,-4.1827,-4.1794,-4.1783,-4.1468,-4.0612,-4.0426,-4.0057,-3.9172,-3.9816,-4.0038,-3.9286,-3.964,-3.9442,-3.8307,-3.7828,-3.746,-3.7121,-3.6778,-3.6476,-3.6227,-3.6359,-3.61,-3.544,-3.539,-3.5197,-3.4817,-3.4213,-3.4625,-3.5917,-3.5946,-3.5895,-3.5791,-3.5791,-3.5841,-3.5895,-3.5895,-3.5948,-3.5957,-3.5469,-3.5566,-3.5878,-3.4899,-3.517,-3.5929,-3.5431,-3.5582,-3.5992,-3.5992,-3.5992,-3.5992,-3.5992,-3.5942,-3.5903,-3.5892,-3.5897,-3.5972,-3.6297,-3.6374,-3.6498,-3.6984,-3.7392,-3.7935,-3.8926,-3.947,-3.9643,-3.9299,-3.8892,-3.8708,-3.9079,-3.9103,-3.9056,-3.8948,-3.9174,-3.9359,-3.9354,-3.9637,-3.9996,-4.0458,-4.0496,-4.0496,-4.0496,-4.0496,-4.0496,-4.0496,-4.0496,-4.0342,-3.9996,-3.9977,-3.9573,-3.8738,-3.7873,-3.768,-3.8161,-3.8546,-3.8938,-3.9304,-3.9304,-3.9496,-4.2065,-4.1766,-4.1387,-4.1168,-4.1429,-4.1615,-4.1034,-4.1061,-4.1125,-4.0776,-4.0511,-4.0217,-3.9691,-4.0244,-4.0711,-4.045,-4.0401,-4.0065,-3.9117,-3.8664,-3.8105,-3.7231,-3.7876,-3.8191,-3.7652,-3.8156,-3.8204,-3.7418,-3.6825,-3.6405,-3.6175,-3.5671,-3.5464,-3.5602,-3.5517,-3.5425,-3.534,-3.4905,-3.4893,-3.5329,-3.4015,-3.4195,-3.5679,-3.5898,-3.5951,-3.5849,-3.5849,-3.5885,-3.5924,-3.5924,-3.5952,-3.5937,-3.5273,-3.543,-3.584,-3.4548,-3.4877,-3.5912,-3.5257,-3.5465,-3.5992,-3.5992,-3.5992,-3.5991,-3.5988,-3.5935,-3.5895,-3.5906,-3.5895,-3.5857,-3.5803,-3.595,-3.6241,-3.6673,-3.7275,-3.8056,-3.9166,-3.9769,-3.9981,-3.9579,-3.9175,-3.8845,-3.863,-3.8591,-3.8481,-3.8113,-3.8206,-3.8409,-3.8721,-3.887,-3.9273,-4.0112,-4.0208,-4.0285,-4.0477,-4.0496,-4.0496,-4.0496,-4.0496,-4.0496,-4.0496,-4.0496,-4.0227,-3.9631,-3.8969,-3.8854,-3.9304,-3.9304,-3.9419,-3.9611,-3.94,-3.9304,-4.117,-4.1734,-4.2121,-4.1307,-4.2337,-4.3103,-4.1314,-4.1544,-4.1851,-4.0906,-4.0037,-3.9215,-3.8357,-3.8852,-3.9092,-3.8145,-3.7936,-3.7552,-3.6616,-3.707,-3.7212,-3.6454,-3.7072,-3.7566,-3.7595,-3.7699,-3.7403,-3.6535,-3.6493,-3.6137,-3.5297,-3.5352,-3.5464,-3.5602,-3.4932,-3.4237,-3.3544,-3.1905,-3.1893,-3.3533,-3.3449,-3.3883,-3.48,-3.5624,-3.5996,-3.5996,-3.5996,-3.5996,-3.5996,-3.5996,-3.5996,-3.5996,-3.5957,-3.5957,-3.5996,-3.5895,-3.5913,-3.599,-3.5958,-3.5953,-3.5992,-3.5992,-3.5992,-3.5989,-3.5914,-3.5892,-3.5906,-3.5895,-3.5853,-3.5799,-3.5795,-3.6416,-3.6848,-3.6047,-3.7756,-3.9375,-3.8715,-3.9802,-4.0485,-3.8954,-3.9234,-3.9507,-3.8728,-3.8591,-3.8268,-3.73,-3.7812,-3.7985,-3.7132,-3.7643,-3.839,-3.9265,-3.9361,-3.9669,-4.0439,-4.0496,-4.0496,-4.0496,-4.0496,-4.0496,-4.0496,-4.0496,-4.0477,-4.0439,-4.04,-4.0015,-3.9304,-3.9304,-3.9688,-4.0419,-3.9669,-3.9304,-4.1108,-4.1328,-4.1481,-4.1185,-4.157,-4.1852,-4.1187,-4.1269,-4.1387,-4.1033,-4.0717,-4.0041,-3.8624,-3.8413,-3.8183,-3.7294,-3.7138,-3.6988,-3.6607,-3.6273,-3.5933,-3.5634,-3.5778,-3.5913,-3.5978,-3.6024,-3.5917,-3.5654,-3.5651,-3.5305,-3.4464,-3.4959,-3.4841,-3.3895,-3.4195,-3.407,-3.3411,-3.3332,-3.3339,-3.3416,-3.3975,-3.4409,-3.4702,-3.5019,-3.5469,-3.5937,-3.4824,-3.4961,-3.5996,-3.5996,-3.5996,-3.5937,-3.5371,-3.5508,-3.5859,-3.4743,-3.5034,-3.5912,-3.5355,-3.5524,-3.5914,-3.5349,-3.5543,-3.5892,-3.5309,-3.5483,-3.5903,-3.5892,-3.585,-3.5795,-3.5795,-3.6028,-3.6319,-3.6576,-3.8207,-3.9308,-3.7909,-3.8543,-3.9213,-3.8645,-3.8349,-3.8102,-3.7828,-3.7301,-3.6809,-3.6444,-3.6598,-3.6805,-3.6958,-3.7163,-3.7585,-3.8387,-3.8472,-3.8806,-3.9669,-3.9727,-3.9958,-4.0477,-4.0496,-4.0496,-4.0496,-4.0496,-4.0496,-4.0496,-4.0496,-3.9823,-3.8469,-3.9554,-3.9104,-3.7315,-3.8104,-3.8161,-4.1093,-4.1304,-4.1464,-4.117,-4.1538,-4.1748,-4.0885,-4.0915,-4.1025,-4.0728,-4.0426,-3.9872,-3.8703,-3.8089,-3.7457,-3.6593,-3.6455,-3.6402,-3.6305,-3.5734,-3.5318,-3.5247,-3.5144,-3.5115,-3.5138,-3.5127,-3.5143,-3.5201,-3.5209,0.0,-3.4426,-3.4904,-3.4507,-3.2983,-3.3316,-3.3347,-3.2968,-3.3256,-3.3241,-3.2968,-3.3546,-3.398,-3.4273,-3.457,-3.5176,-3.5918,-3.4473,-3.4668,-3.5957,-3.5371,-3.5469,-3.5918,-3.5039,-3.5234,-3.5859,-3.4703,-3.5013,-3.593,-3.5334,-3.533,-3.5524,-3.5232,-3.533,-3.5501,-3.5203,-3.5476,-3.59,-3.5875,-3.5838,-3.5795,-3.5795,-3.5795,-3.6164,-3.7625,-3.8197,-3.8252,-3.7662,-3.8263,-3.8572,-3.7442,-3.7246,-3.7081,-3.6521,-3.6187,-3.5992,-3.5992,-3.5912,-3.6041,-3.6498,-3.6498,-3.6722,-3.7483,-3.7567,-3.8029,-3.9207,-3.9304,-3.965,-4.0458,-4.0496,-4.0496,-4.0496,-4.0496,-4.0496,-4.0496,-4.0227,-3.9123,-3.718,-3.9419,-3.9065,-3.6365,-3.7488,-3.7238,0.0,0.0,0.0,-4.1307,-4.2361,-4.2985,-4.0498,-4.0533,-4.0862,-4.0016,-3.9169,-3.8557,-3.8518,-3.78,-3.6913,-3.5969,-3.5741,-3.5655,-3.5532,-3.5448,-3.5374,-3.5326,-3.5302,-3.5265,-3.5206,-3.5204,-3.5201,-3.5209,-3.5209,-3.519,-3.5171,-3.5114,-3.4455,-3.3035,-3.2357,-3.2021,-3.2098,-3.1305,-3.1309,-3.2052,-3.2141,-3.2613,-3.3434,-3.4277,-3.5137,-3.5918,-3.5019,-3.5117,-3.5781,-3.4101,-3.4394,-3.584,-3.5019,-3.5215,-3.5956,-3.5992,-3.6009,-3.6003,-3.5995,-3.5428,-3.4842,-3.568,-3.5368,-3.4817,-3.5595,-3.583,-3.5855,-3.578,-3.5775,-3.5795,-3.5795,-3.5814,-3.6474,-3.898,-3.7736,-3.6416,-3.7987,-3.9003,-3.864,-3.537,-3.6046,-3.6657,-3.5015,-3.5446,-3.5992,-3.5992,-3.5892,-3.5788,-3.5702,-3.5588,-3.5804,-3.6584,-3.6654,-3.7373,-3.9111,-3.9265,-3.9631,-4.0458,-4.0496,-4.0496,-4.0496,-4.0477,-4.0458,-4.0458,-3.9669,-3.8027,-3.5538,-3.8834,-3.9534,-3.7853,-3.7892,-3.6603,-4.1091,0.0,0.0,0.0,0.0,0.0,-4.0934,-4.0948,-4.1039,-4.0784,-4.0545,-4.0011,-3.8801,-3.8344,-3.7667,-3.6172,-3.5883,-3.583,-3.579,-3.5689,-3.5602,-3.559,-3.5419,-3.529,-3.5258,-3.5234,-3.5196,0.0,-3.5209,-3.4942,-3.435,-3.3146,-3.262,-3.2996,-3.2266,-3.1939,-3.2108,-3.3117,-3.2792,-3.1172,-3.3074,-3.3782,-3.3414,-3.3651,-3.4238,-3.498,-3.3516,-3.3359,-3.4082,-3.3594,-3.3672,-3.416,-3.4551,-3.4844,-3.5136,-3.5778,-3.5991,-3.6008,-3.5998,-3.5428,-3.4744,-3.4979,-3.4464,-3.3787,-3.3972,-3.4453,-3.4951,-3.4882,-3.5313,-3.5795,-3.5795,-3.6261,-3.677,-3.6863,-3.7303,-3.7494,-3.6755,-3.7233,-3.7368,-3.5855,-3.5936,-3.6128,-3.5716,-3.5836,-3.5992,-3.5992,-3.5934,-3.583,-3.5706,-3.5631,-3.5633,-3.5802,-3.5835,-3.6522,-3.8226,-3.8354,-3.8969,-4.0419,-4.0496,-4.0496,-4.0496,-3.9938,-3.9631,-3.9631,-3.8796,-3.77,-3.6365,-3.793,-3.718,-3.4334,-3.5596,-3.5808,-4.1091,-4.1146,-4.1191,-4.1191,0.0,0.0,-4.0213,-4.0054,-3.9953,-3.9599,-3.9518,-3.9222,-3.8244,-3.8022,-3.7565,-3.6215,-3.5962,-3.5924,-3.5899,-3.582,-3.5749,-3.5711,-3.557,-3.5449,-3.538,-3.5364,-3.5192,-3.4776,-3.4737,-3.4362,-3.349,-3.2489,-3.2275,-3.2987,-3.2569,-3.2441,-3.2635,-3.3646,-3.3202,-3.1368,-3.2899,-3.3547,-3.3394,-3.3046,-3.3554,-3.4609,-3.293,-3.2461,-3.2871,-3.2519,-3.2773,-3.3418,-3.3594,-3.4082,-3.4726,-3.486,-3.5384,-3.5909,-3.5176,-3.4822,-3.4647,-3.4276,-3.3817,-3.3468,-3.3753,-3.4194,-3.4665,-3.4956,-3.541,-3.5795,-3.5795,-3.6183,-3.6518,-3.6377,-3.6864,-3.7176,-3.6537,-3.6511,-3.6355,-3.5551,-3.5665,-3.5816,-3.5503,-3.5758,-3.5992,-3.5992,-3.594,-3.5846,-3.5729,-3.5645,-3.5579,-3.552,-3.5797,-3.6528,-3.7892,-3.8334,-3.9104,-4.0419,-4.0496,-4.0342,-4.0015,-3.9554,-3.913,-3.8757,-3.7892,-3.7046,-3.6192,-3.7411,-3.6796,-3.4507,-3.5173,-3.55,-4.1093,-4.1147,-4.1191,-4.1191,-4.1191,0.0,-3.9238,-3.8885,-3.8631,-3.7768,-3.7591,-3.7532,-3.7332,-3.7386,-3.7165,-3.6297,-3.623,-3.62,-3.5953,-3.5902,-3.5869,-3.5741,-3.5717,-3.5668,-3.5535,-3.5568,-3.522,-3.4321,-3.4154,-3.3644,-3.2611,-3.2661,-3.28,-3.3006,-3.3073,-3.3238,-3.3541,-3.3548,-3.3105,-3.2247,-3.2237,-3.2651,-3.3375,-3.2558,-3.3008,-3.4336,-3.2851,-3.2148,-3.1992,-3.1211,-3.1777,-3.3066,-3.2441,-3.3105,-3.4334,-3.3766,-3.4524,-3.5632,-3.4083,-3.3983,-3.4432,-3.3649,-3.3267,-3.3288,-3.4174,-3.4399,-3.4506,-3.5399,-3.5736,-3.5795,-3.5795,-3.5872,-3.6125,-3.6789,-3.6472,-3.6193,-3.6835,-3.6475,-3.5824,-3.5102,-3.5531,-3.5849,-3.5249,-3.5677,-3.6124,-3.6148,-3.6001,-3.5885,-3.5846,-3.5791,-3.5755,-3.5783,-3.6423,-3.7199,-3.8065,-3.8854,-3.9611,-4.0323,-4.0458,-4.0092,-3.9188,-3.9169,-3.8738,-3.7873,-3.7007,-3.6212,-3.55,-3.6911,-3.7238,-3.6538,-3.5827,-3.5558,-4.1151,-4.1191,-4.1191,-4.1191,-4.1191,0.0,-4.0762,-4.0644,-4.0389,-3.9568,-3.939,-3.8958,-3.7551,-3.7863,-3.8056,-3.7191,-3.7596,-3.7546,-3.6161,-3.5979,-3.5975,-3.5941,-3.5843,-3.5764,-3.5745,-3.5659,-3.5493,-3.5257,-3.4485,-3.3348,-3.1828,-3.2355,-3.2826,-3.3064,-3.3082,-3.3533,-3.444,-3.4447,-3.4003,-3.3143,-3.3151,-3.3233,-3.3374,-3.2518,-3.2324,-3.2676,-3.2344,-3.1797,-3.1133,-3.0976,-3.1094,-3.1445,-3.1992,-3.2363,-3.2752,-3.398,-3.466,-3.491,-3.4552,-3.41,-3.3629,-3.3463,-3.2448,-3.1583,-3.3095,-3.306,-3.2815,-3.4326,-3.5255,-3.5795,-3.5795,-3.6319,-3.6712,-3.6183,-3.6468,-3.6722,-3.6245,-3.6567,-3.6872,-3.6676,-3.6764,-3.7069,-3.7725,-3.7314,-3.6928,-3.7024,-3.6391,-3.6099,-3.6673,-3.6696,-3.6869,-3.7445,-3.7642,-3.8104,-3.8969,-3.9207,-3.9381,-3.9515,-4.015,-3.9823,-3.8315,-3.8257,-3.7834,-3.6962,-3.6154,-3.5654,-3.55,-3.5122,-3.5218,-3.5731,-3.5577,-3.5846,-4.1191,-4.1191,-4.1191,-4.1191,-4.1191,0.0,0.0,-4.0527,-4.0136,-3.8867,-3.8593,-3.8338,-3.7458,-3.7653,-3.7945,-3.7941,-3.792,-3.7759,-3.7343,-3.6898,-3.659,-3.659,-3.618,-3.5908,-3.5908,-3.5451,-3.4742,-3.3727,-3.3164,-3.2262,-3.092,-3.2502,-3.3346,-3.3107,-3.3988,-3.474,-3.5336,-3.532,-3.4874,-3.4042,-3.361,-3.3397,-3.3354,-3.2089,-3.1758,-3.2187,-3.1738,-3.1309,-3.0898,-3.0898,-3.0898,-3.0937,-3.1387,-3.1777,-3.2205,-3.3081,-3.3683,-3.3991,-3.3556,-3.3398,-3.3258,-3.2394,-3.1806,-3.1678,-3.2928,-3.3589,-3.4066,-3.4905,-3.5465,-3.5795,-3.5795,-3.6125,-3.6339,-3.5892,-3.6161,-3.6395,-3.5981,-3.6243,-3.6662,-3.7022,-3.7069,-3.7354,-3.8293,-3.7666,-3.7082,-3.7184,-3.6453,-3.6177,-3.6906,-3.6973,-3.7224,-3.7914,-3.8007,-3.818,-3.8604,-3.8642,-3.8642,-3.8642,-3.9027,-3.8681,-3.7411,-3.7353,-3.7161,-3.6712,-3.6308,-3.6308,-3.6731,-3.5872,-3.5468,-3.55,-3.55,-3.5712,-4.1191,-4.1074,-4.0957,-4.0957,-4.082,-4.0508,0.0,0.0,0.0,-3.7617,-3.7422,-3.75,-3.7324,-3.7577,-3.7987,-3.8512,-3.8277,-3.8218,-3.8764,-3.8203,-3.7659,-3.7484,-3.6602,-3.6073,-3.623,-3.5596,-3.4364,-3.2446,-3.2396,-3.1875,-3.054,-3.2686,-3.3691,-3.3126,-3.4695,-3.5694,-3.5973,-3.5935,-3.5565,-3.4928,-3.4062,-3.3652,-3.3608,-3.2089,-3.168,-3.2168,-3.1465,-3.1055,-3.0898,-3.0898,-3.0898,-3.0898,-3.0898,-3.1191,-3.1678,-3.2164,-3.2589,-3.2876,-3.2678,-3.2831,-3.2928,-3.15,-3.1633,-3.2413,-3.2909,-3.4211,-3.5542,-3.5542,-3.5542,-3.5581,-3.5756,-3.5795,-3.5795,-3.5795,-3.5857,-3.5898,-3.5903,-3.6031,-3.6352,-3.6949,-3.7164,-3.7465,-3.8179,-3.7559,-3.7061,-3.7313,-3.651,-3.6297,-3.7382,-3.7353,-3.7506,-3.8194,-3.826,-3.818,-3.8007,-3.8007,-3.793,-3.7757,-3.7911,-3.7546,-3.65,-3.6615,-3.6769,-3.6942,-3.6942,-3.7296,-3.8007,-3.7142,-3.6365,-3.5731,-3.5577,-3.5577,-4.1191,-4.0644,-4.0059,-4.0059,-3.9473,-3.8867,-3.8769,0.0,-3.8476,-3.75,0.0,-3.8223,-3.7441,0.0,0.0,-3.8709,-3.9763,-4.0446,-3.9838,-3.966,-3.9308,-3.8528,-3.7001,-3.6294,-3.7076,-3.6961,-3.6077,-3.4229,-3.4754,-3.4067,-3.1571,-3.2467,-3.3067,-3.3095,-3.4114,-3.5041,-3.5898,-3.5898,-3.5859,-3.5742,-3.4939,-3.455,-3.4526,-3.3554,-3.2773,-3.2187,-3.2109,-3.1601,-3.0898,-3.0898,-3.0898,-3.0898,-3.0898,-3.0488,-3.0152,-3.2417,-3.2333,-3.1407,-3.3632,-3.3456,-3.2225,-3.2015,-3.2504,-3.3031,-3.234,-3.332,-3.4653,-3.4653,-3.4653,-3.4828,-3.56,-3.5795,-3.5795,-3.5795,-3.5856,-3.5906,-3.5908,-3.6551,-3.7121,-3.702,-3.7622,-3.8175,-3.8287,-3.7521,-3.723,-3.8114,-3.6905,-3.6743,-3.9091,-3.8673,-3.8423,-3.916,-3.9191,-3.8834,-3.8065,-3.8007,-3.768,-3.6904,-3.7565,-3.7296,-3.5692,-3.6327,-3.7058,-3.7834,-3.7853,-3.7892,-3.8007,-3.7142,-3.6654,-3.6538,-3.5827,-3.5885,-3.9824,-3.9414,-3.9141,-3.9141,-3.8867,-3.8594,-3.8594,-3.8594,-3.8359,-3.748,0.0,0.0,0.0,0.0,0.0,0.0,-3.9199,-3.9531,-3.9198,-3.9159,-3.9197,-3.9331,-3.8255,-3.7258,-3.6614,-3.6486,-3.5504,-3.319,-3.4645,-3.427,-3.1119,-3.3186,-3.404,-3.3122,-3.449,-3.5457,-3.5898,-3.5895,-3.5891,-3.5891,-3.5059,-3.4656,-3.4668,-3.3808,-3.3223,-3.2871,-3.2402,-3.1992,-3.1601,-3.1071,-3.0833,-3.0833,-3.0831,-3.0638,-3.0543,-3.2085,-3.1865,-3.1034,-3.2636,-3.2383,-3.1422,-3.1939,-3.2633,-3.3323,-3.3428,-3.4303,-3.5255,-3.5255,-3.5226,-3.5272,-3.566,-3.5684,-3.5634,-3.5669,-3.5752,-3.5833,-3.5843,-3.617,-3.6445,-3.6281,-3.6511,-3.6726,-3.6679,-3.6766,-3.7176,-3.8145,-3.7288,-3.7115,-3.8684,-3.9022,-3.8995,-3.8675,-3.8614,-3.824,-3.7322,-3.6815,-3.6385,-3.6038,-3.6788,-3.6712,-3.5558,-3.675,-3.7623,-3.7988,-3.8488,-3.8738,-3.8738,-3.8392,-3.77,-3.6673,-3.5865,-3.5673,-3.8769,-3.8437,-3.8242,-3.8242,-3.8066,-3.7891,-3.7891,-3.7891,-3.7715,-3.707,-3.7129,0.0,0.0,0.0,-3.7793,-3.8183,0.0,-3.8515,-3.8259,-3.8609,-3.9159,-3.9822,-3.9332,-3.8375,-3.685,-3.6929,-3.5965,-3.3261,-3.497,-3.4563,-3.1042,-3.3456,-3.4391,-3.3169,-3.4656,-3.5603,-3.5897,-3.5905,-3.5893,-3.5892,-3.525,-3.4992,-3.5037,-3.4394,-3.3984,-3.3711,-3.289,-3.2381,-3.2107,-3.1153,-3.077,-3.077,-3.0765,-3.0791,-3.0938,-3.1761,-3.1521,-3.0924,-3.204,-3.187,-3.1265,-3.1887,-3.263,-3.3457,-3.4268,-3.4944,-3.5484,-3.5736,-3.5586,-3.5427,-3.5635,-3.5626,-3.5556,-3.5581,-3.5694,-3.5802,-3.5801,-3.5861,-3.5897,-3.5774,-3.5693,-3.5645,-3.5593,-3.6073,-3.6793,-3.7759,-3.7408,-3.7439,-3.8595,-3.9301,-3.9386,-3.8606,-3.8473,-3.7977,-3.6803,-3.6385,-3.6077,-3.5846,-3.6385,-3.6442,-3.5846,-3.7238,-3.8007,-3.8007,-3.8854,-3.9188,-3.8931,-3.87,-3.793,-3.6692,-3.6096,-3.5712,-3.8613,-3.7988,-3.7344,-3.7344,-3.6719,-3.6074,-3.6074,-3.6074,-3.6074,-3.6055,-3.6719,-3.7305,-3.7305,-3.7988,-3.8281,-3.748,-3.8046,0.0,0.0,-3.8643,-3.9717,-3.9883,-3.9882,-3.949,-3.8609,-3.9272,-3.8659,-3.5988,-3.6629,-3.5569,-3.1941,-3.2718,-3.3242,-3.3195,-3.4124,-3.5034,-3.5896,-3.5895,-3.589,-3.5901,-3.5873,-3.588,-3.5956,-3.5937,-3.5469,-3.4609,-3.3741,-3.2873,-3.2031,-3.1081,-3.0691,-3.0691,-3.0691,-3.0694,-3.0812,-3.1672,-3.1458,-3.0952,-3.2662,-3.273,-3.2066,-3.2084,-3.263,-3.3457,-3.4268,-3.4521,-3.4711,-3.5562,-3.5193,-3.4714,-3.5495,-3.5707,-3.5672,-3.5618,-3.5694,-3.5802,-3.5801,-3.5892,-3.5983,-3.5914,-3.5833,-3.5785,-3.5798,-3.5704,-3.5969,-3.6985,-3.7111,-3.7765,-3.9616,-3.9765,-3.9666,-3.9556,-3.9436,-3.8633,-3.6841,-3.745,-3.7565,-3.6712,-3.6692,-3.6692,-3.6654,-3.7526,-3.8007,-3.8007,-3.8854,-3.8873,-3.8046,-3.7199,-3.675,-3.6692,-3.6673,-3.6231,0.0,0.0,-3.6445,-3.6445,-3.6211,-3.5996,-3.5996,-3.5996,-3.5996,-3.5996,-3.623,-3.6445,-3.6445,-3.6679,-3.6776,-3.6483,-3.7138,-3.7354,0.0,-3.7731,-3.9198,-4.0357,-4.0031,-3.9598,-3.9355,-3.8556,-3.7238,-3.5253,-3.5864,-3.4802,-3.1256,-3.3485,-3.437,-3.3307,-3.4698,-3.5591,-3.5896,-3.5903,-3.589,-3.5901,-3.5892,-3.5949,-3.5993,-3.5996,-3.5526,-3.464,-3.3774,-3.2882,-3.196,-3.1029,-3.0633,-3.063,-3.0623,-3.0621,-3.0676,-3.1017,-3.0923,-3.071,-3.1361,-3.1439,-3.1421,-3.253,-3.3078,-3.3554,-3.4944,-3.5352,-3.543,-3.5717,-3.5551,-3.5355,-3.5635,-3.5672,-3.5623,-3.5604,-3.57,-3.5817,-3.5852,-3.5897,-3.5931,-3.5899,-3.5849,-3.5804,-3.5791,-3.5767,-3.6032,-3.6953,-3.7598,-3.8213,-3.8899,-3.9938,-3.9917,-3.8077,-3.8343,-3.8139,-3.6817,-3.6962,-3.7257,-3.7546,-3.7565,-3.755,-3.7494,-3.8885,-3.9108,-3.7963,-3.8749,-3.8489,-3.7068,-3.736,-3.6925,-3.5849,-3.6435,-3.6269,-3.6152,-3.5996,0.0,-3.5996,-3.5996,0.0,-3.5996,-3.5996,-3.5996,-3.5996,-3.5996,-3.5996,-3.5996,-3.5995,-3.5993,-3.5992,-3.642,-3.6628,0.0,-3.734,-3.8679,-4.0075,-4.0101,-3.9921,-3.968,-3.8917,-3.7493,-3.5294,-3.5878,-3.4958,-3.1799,0.0,-3.4831,-3.3793,-3.5149,-3.5905,-3.5937,-3.5902,-3.591,-3.5935,-3.5914,-3.5917,-3.5962,-3.5951,-3.5498,-3.4614,-3.3721,-3.2801,-3.1891,-3.0951,-3.0583,-3.0607,-3.0576,-3.0752,-3.0969,-3.0719,-3.0807,-3.1034,-3.0784,-3.095,-3.1499,-3.2861,-3.3292,-3.3613,-3.5294,-3.5795,-3.5736,-3.543,-3.5532,-3.5587,-3.4938,-3.5204,-3.5553,-3.5218,-3.5469,-3.5813,-3.5886,-3.5924,-3.5938,-3.5942,-3.5877,-3.5839,-3.5866,-3.5851,-3.6126,-3.7006,-3.7888,-3.8567,-3.8944,-4.0216,-4.037,-3.854,-3.8825,-3.885,-3.8106,-3.7219,-3.7199,-3.8392,-3.7873,-3.7658,-3.7894,-3.8689,-3.8623,-3.7463,-3.7942,-3.752,-3.614,-3.6734,-3.6469,-3.5405,-3.6005,-3.6]},{"header":{"parameterUnit":"m.s-1","parameterCategory":1,"la1":30.6,"la2":29.2853,"lo1":-89.7004,"lo2":-87.6739,"dy":0.0162,"dx":0.0183,"nx":112,"ny":82,"refTime":"2023-07-02T00:00:00:Z","depth":0,"parameterNumber":3,"parameterNumberName":"V-component_of_WINDS"},"data":[0.0,0.0,0.0,0.0,0.0,0.0,0.0,0.0,0.0,0.0,0.0,0.0,0.0,0.0,0.0,0.0,0.0,0.0,0.0,0.0,0.0,0.0,0.0,0.0,0.0,0.0,0.0,0.0,0.0,0.0,0.0,0.0,0.0,0.0,0.0,0.0,0.0,0.0,0.0,0.0,0.0,0.0,0.0,0.0,0.0,0.0,0.0,0.0,0.0,0.0,0.0,0.0,0.0,0.0,0.0,0.0,0.0,0.0,0.0,0.0,0.0,0.0,0.0,0.0,0.0,0.0,0.0,0.0,0.0,0.0,0.0,0.0,0.0,0.0,0.0,0.0,0.0,0.0,0.0,0.0,0.0,0.0,0.0,0.0,0.0,0.0,0.0,0.0,0.0,0.0,-0.7299,-0.8203,-0.9627,-1.076,-1.1603,-1.2917,-1.3581,-1.3313,0.0,0.0,0.0,0.0,0.0,0.0,0.0,0.0,0.0,0.0,0.0,0.0,0.0,0.0,0.0,0.0,0.0,0.0,0.0,0.0,0.0,0.0,0.0,0.0,0.0,0.0,0.0,0.0,0.0,0.0,0.0,0.0,0.0,0.0,0.0,0.0,0.0,0.0,0.0,0.0,0.0,0.0,0.0,0.0,0.0,0.0,0.0,0.0,0.0,0.0,0.0,0.0,0.0,0.0,0.0,0.0,0.0,0.0,0.0,0.0,0.0,0.0,0.0,0.0,0.0,0.0,0.0,0.0,0.0,0.0,0.0,0.0,0.0,0.0,0.0,0.0,0.0,0.0,0.0,0.0,0.0,0.0,0.0,0.0,0.0,0.0,0.0,0.0,0.0,0.0,0.0,0.0,0.0,0.0,0.0,0.0,0.0,0.0,0.0,0.0,0.0,0.0,0.0,0.0,-0.7194,-0.8669,-0.9403,-1.0323,-1.1497,-1.2667,-1.3405,-1.379,0.0,0.0,0.0,0.0,0.0,0.0,0.0,0.0,0.0,0.0,0.0,0.0,0.0,0.0,0.0,0.0,0.0,0.0,0.0,0.0,0.0,0.0,0.0,0.0,0.0,0.0,0.0,0.0,0.0,0.0,0.0,0.0,0.0,0.0,0.0,0.0,0.0,0.0,0.0,0.0,0.0,0.0,0.0,0.0,0.0,0.0,0.0,0.0,0.0,0.0,0.0,0.0,0.0,0.0,0.0,0.0,0.0,0.0,0.0,0.0,0.0,0.0,0.0,0.0,0.0,0.0,0.0,0.0,0.0,0.0,0.0,0.0,0.0,0.0,0.0,0.0,0.0,0.0,0.0,0.0,0.0,0.0,0.0,0.0,0.0,0.0,0.0,0.0,0.0,0.0,0.0,0.0,0.0,0.0,0.0,0.0,0.0,0.0,0.0,0.0,0.0,0.0,0.0,-0.7289,-0.7962,-0.9023,-0.9656,-1.0428,-1.1332,-1.1807,-1.2427,-1.3444,-1.4253,0.0,0.0,0.0,0.0,0.0,0.0,0.0,0.0,0.0,0.0,0.0,0.0,0.0,0.0,0.0,0.0,0.0,0.0,0.0,0.0,0.0,0.0,0.0,0.0,0.0,0.0,0.0,0.0,0.0,0.0,0.0,0.0,0.0,0.0,0.0,0.0,0.0,0.0,0.0,0.0,0.0,0.0,0.0,0.0,0.0,0.0,0.0,0.0,0.0,0.0,0.0,0.0,0.0,0.0,0.0,0.0,0.0,0.0,0.0,0.0,0.0,0.0,0.0,0.0,0.0,0.0,0.0,0.0,0.0,0.0,0.0,0.0,0.0,0.0,0.0,0.0,0.0,0.0,0.0,0.0,0.0,0.0,0.0,0.0,0.0,0.0,0.0,0.0,0.0,0.0,0.0,0.0,0.0,0.0,0.0,0.0,0.0,0.0,0.0,0.0,0.0,0.0,-0.8017,-0.8647,-0.9182,-0.9796,-1.0465,-1.1166,-1.1042,-1.1547,-1.3166,-1.339,0.0,0.0,0.0,0.0,0.0,0.0,0.0,0.0,0.0,0.0,0.0,0.0,0.0,0.0,0.0,0.0,0.0,0.0,0.0,0.0,0.0,0.0,0.0,0.0,0.0,0.0,0.0,0.0,0.0,0.0,0.0,0.0,0.0,0.0,0.0,0.0,0.0,0.0,0.0,0.0,0.0,0.0,0.0,0.0,0.0,0.0,0.0,0.0,0.0,0.0,0.0,0.0,0.0,0.0,0.0,0.0,0.0,0.0,0.0,0.0,0.0,0.0,0.0,0.0,0.0,0.0,0.0,0.0,0.0,0.0,0.0,0.0,0.0,0.0,0.0,0.0,0.0,0.0,0.0,0.0,0.0,0.0,0.0,0.0,0.0,0.0,0.0,0.0,0.0,0.0,0.0,0.0,0.0,0.0,0.0,0.0,0.0,0.0,0.0,0.0,0.0,0.0,-0.8031,-0.8662,-0.909,-0.946,-1.007,-1.1035,-1.077,-1.1392,-1.3418,-1.3224,0.0,0.0,0.0,0.0,0.0,0.0,0.0,0.0,0.0,0.0,0.0,0.0,0.0,0.0,0.0,0.0,0.0,0.0,0.0,0.0,0.0,0.0,0.0,0.0,0.0,0.0,0.0,0.0,0.0,0.0,0.0,0.0,0.0,0.0,0.0,0.0,0.0,0.0,0.0,0.0,0.0,0.0,0.0,0.0,0.0,0.0,0.0,0.0,0.0,0.0,0.0,0.0,0.0,0.0,0.0,0.0,0.0,0.0,0.0,0.0,0.0,0.0,0.0,0.0,0.0,0.0,0.0,0.0,0.0,0.0,0.0,0.0,0.0,0.0,0.0,0.0,0.0,0.0,0.0,0.0,0.0,0.0,0.0,0.0,0.0,0.0,0.0,0.0,0.0,0.0,0.0,0.0,0.0,0.0,0.0,0.0,0.0,0.0,0.0,0.0,0.0,0.0,-0.8045,-0.8598,-0.911,-0.935,-0.9846,-1.0718,-1.0528,-1.115,-1.3026,0.0,0.0,0.0,0.0,0.0,0.0,0.0,0.0,0.0,0.0,0.0,0.0,0.0,0.0,0.0,0.0,0.0,0.0,0.0,0.0,0.0,0.0,0.0,0.0,0.0,0.0,0.0,0.0,0.0,0.0,0.0,0.0,0.0,0.0,0.0,0.0,0.0,0.0,0.0,0.0,0.0,0.0,0.0,0.0,0.0,0.0,0.0,0.0,0.0,0.0,0.0,0.0,0.0,0.0,0.0,0.0,0.0,0.0,0.0,0.0,0.0,0.0,0.0,0.0,0.0,0.0,0.0,0.0,0.0,0.0,0.0,0.0,0.0,0.0,0.0,0.0,0.0,0.0,0.0,0.0,0.0,0.0,0.0,0.0,0.0,0.0,0.0,0.0,0.0,0.0,0.0,0.0,0.0,0.0,0.0,0.0,0.0,0.0,0.0,0.0,0.0,0.0,-0.7694,-0.8105,-0.854,-0.9052,-0.9332,-0.9773,-1.0461,-1.0284,-1.0839,-1.2405,0.0,0.0,0.0,0.0,0.0,0.0,0.0,0.0,0.0,0.0,0.0,0.0,0.0,0.0,0.0,0.0,0.0,0.0,0.0,0.0,0.0,0.0,0.0,0.0,0.0,0.0,0.0,0.0,0.0,0.0,0.0,0.0,0.0,0.0,0.0,0.0,0.0,0.0,0.0,0.0,0.0,0.0,0.0,0.0,0.0,0.0,0.0,0.0,0.0,0.0,0.0,0.0,0.0,0.0,0.0,0.0,0.0,0.0,0.0,0.0,0.0,0.0,0.0,0.0,0.0,0.0,0.0,0.0,0.0,0.0,0.0,0.0,0.0,0.0,0.0,0.0,0.0,0.0,0.0,0.0,0.0,0.0,0.0,0.0,0.0,0.0,0.0,0.0,0.0,0.0,0.0,0.0,0.0,0.0,0.0,0.0,0.0,0.0,0.0,0.0,0.0,0.0,-0.7794,-0.8204,-0.8598,-0.8848,-0.9342,-0.9774,-1.0286,-1.0075,-1.04,0.0,0.0,0.0,0.0,0.0,0.0,0.0,0.0,0.0,0.0,0.0,0.0,0.0,0.0,0.0,0.0,0.0,0.0,0.0,0.0,0.0,0.0,0.0,0.0,0.0,0.0,0.0,0.0,0.0,0.0,0.0,0.0,0.0,0.0,0.0,0.0,0.0,0.0,0.0,0.0,0.0,0.0,0.0,0.0,0.0,0.0,0.0,0.0,0.0,0.0,0.0,0.0,0.0,0.0,0.0,0.0,0.0,0.0,0.0,0.0,0.0,0.0,0.0,0.0,0.0,0.0,0.0,0.0,0.0,0.0,0.0,0.0,0.0,0.0,0.0,0.0,0.0,0.0,0.0,0.0,0.0,0.0,0.0,0.0,0.0,0.0,0.0,0.0,0.0,0.0,0.0,0.0,0.0,0.0,0.0,0.0,0.0,0.0,0.0,0.0,0.0,0.0,0.0,-0.778,-0.8116,-0.8445,-0.8747,-0.9087,-0.9548,-1.0103,-0.9895,-1.0521,-1.2314,0.0,0.0,0.0,0.0,0.0,0.0,0.0,0.0,0.0,0.0,0.0,0.0,0.0,0.0,0.0,0.0,0.0,0.0,0.0,0.0,0.0,0.0,0.0,0.0,0.0,0.0,0.0,0.0,0.0,0.0,0.0,0.0,0.0,0.0,0.0,0.0,0.0,0.0,0.0,0.0,0.0,0.0,0.0,0.0,0.0,0.0,0.0,0.0,0.0,0.0,0.0,0.0,0.0,0.0,0.0,0.0,0.0,0.0,0.0,0.0,0.0,0.0,0.0,0.0,0.0,0.0,0.0,0.0,0.0,0.0,0.0,0.0,0.0,0.0,0.0,0.0,0.0,0.0,0.0,0.0,0.0,0.0,0.0,0.0,0.0,0.0,0.0,0.0,0.0,0.0,0.0,0.0,0.0,0.0,0.0,0.0,0.0,0.0,0.0,0.0,0.0,0.0,-0.7695,-0.8045,-0.834,-0.8516,-0.8959,-0.9391,-0.9745,-0.9803,-1.0213,-1.12,0.0,0.0,0.0,0.0,0.0,0.0,0.0,0.0,0.0,0.0,0.0,0.0,0.0,0.0,0.0,0.0,0.0,0.0,0.0,0.0,0.0,0.0,0.0,0.0,0.0,0.0,0.0,0.0,0.0,0.0,0.0,0.0,0.0,0.0,0.0,0.0,0.0,0.0,0.0,0.0,0.0,0.0,0.0,0.0,0.0,0.0,0.0,0.0,0.0,0.0,0.0,0.0,0.0,0.0,0.0,0.0,0.0,0.0,0.0,0.0,0.0,0.0,0.0,0.0,0.0,0.0,0.0,0.0,0.0,0.0,0.0,0.0,0.0,0.0,0.0,0.0,0.0,0.0,0.0,0.0,0.0,0.0,0.0,0.0,0.0,0.0,0.0,0.0,0.0,0.0,0.0,0.0,0.0,0.0,0.0,0.0,0.0,0.0,0.0,0.0,0.0,0.0,-0.7597,-0.7987,-0.8255,-0.832,-0.8909,-0.9313,-0.9276,-0.9654,-0.9682,-0.929,0.0,0.0,0.0,0.0,0.0,0.0,0.0,0.0,0.0,0.0,0.0,0.0,0.0,0.0,0.0,0.0,0.0,0.0,0.0,0.0,0.0,0.0,0.0,0.0,0.0,0.0,0.0,0.0,0.0,0.0,0.0,0.0,0.0,0.0,0.0,0.0,0.0,0.0,0.0,0.0,0.0,0.0,0.0,0.0,0.0,0.0,0.0,0.0,0.0,0.0,0.0,0.0,0.0,0.0,0.0,0.0,0.0,0.0,0.0,0.0,-0.0897,-0.1183,0.0,0.0,0.0,0.0,0.0,0.0,0.0,0.0,0.0,0.0,0.0,0.0,0.0,0.0,0.0,0.0,0.0,0.0,0.0,0.0,0.0,0.0,0.0,0.0,0.0,0.0,0.0,0.0,0.0,0.0,0.0,0.0,0.0,0.0,0.0,0.0,0.0,0.0,0.0,0.0,-0.7733,-0.7957,-0.8136,-0.8258,-0.8808,-0.9183,-0.9265,-0.9438,-0.9751,-1.0337,-1.0232,0.0,0.0,0.0,0.0,0.0,0.0,0.0,0.0,0.0,0.0,0.0,0.0,0.0,0.0,0.0,0.0,0.0,0.0,0.0,0.0,0.0,0.0,0.0,0.0,0.0,0.0,0.0,0.0,0.0,0.0,0.0,0.0,0.0,0.0,0.0,0.0,0.0,0.0,0.0,0.0,0.0,0.0,0.0,0.0,0.0,0.0,0.0,0.0,0.0,0.0,0.0,0.0,0.0,0.0,0.0,0.0,0.0,0.0,0.0,-0.0883,-0.1241,0.0,0.0,0.0,0.0,0.0,0.0,0.0,0.0,0.0,0.0,0.0,0.0,0.0,0.0,0.0,0.0,0.0,0.0,0.0,0.0,0.0,0.0,0.0,0.0,0.0,0.0,0.0,0.0,0.0,0.0,0.0,0.0,0.0,0.0,0.0,0.0,0.0,0.0,0.0,0.0,-0.7773,-0.7882,-0.8013,-0.8244,-0.8526,-0.8807,-0.8992,-0.9147,-0.9388,-0.9664,-0.9846,0.0,0.0,0.0,0.0,0.0,0.0,0.0,0.0,0.0,0.0,0.0,0.0,0.0,0.0,0.0,0.0,0.0,0.0,0.0,0.0,0.0,0.0,0.0,0.0,0.0,0.0,0.0,0.0,0.0,0.0,0.0,0.0,0.0,0.0,0.0,0.0,0.0,0.0,0.0,0.0,0.0,0.0,0.0,0.0,0.0,0.0,0.0,0.0,0.0,0.0,0.0,0.0,0.0,0.106,0.0355,0.0359,0.0059,-0.0411,-0.0893,-0.0983,-0.1306,-0.1801,-0.1776,0.0,0.0,0.0,0.0,0.0,0.0,0.0,0.0,0.0,0.0,0.0,0.0,0.0,0.0,0.0,0.0,0.0,0.0,0.0,0.0,0.0,0.0,0.0,0.0,-0.854,-0.8452,-0.8055,0.0,0.0,0.0,0.0,0.0,0.0,0.0,0.0,0.0,0.0,0.0,-0.7746,-0.7794,-0.7901,-0.812,-0.8233,-0.843,-0.866,-0.892,-0.8922,-0.8629,-0.9429,-0.9675,0.0,0.0,0.0,0.0,0.0,0.0,0.0,0.0,0.0,0.0,0.0,0.0,0.0,0.0,0.0,0.0,0.0,0.0,0.0,0.0,0.0,0.0,0.0,0.0,0.0,0.0,0.0,0.0,0.0,0.0,0.0,0.0,0.8432,0.8112,0.0,0.0,0.0,0.0,0.0,0.0,0.0,0.0,0.0,0.0,0.0,0.0,0.0,0.6814,0.5832,0.5697,0.5056,0.3977,0.2509,0.1843,0.1781,0.0248,-0.0617,-0.1001,-0.1291,0.0,-0.1777,-0.1772,0.0,0.0,0.0,0.0,0.0,0.0,0.0,0.0,0.0,0.0,0.0,0.0,0.0,0.0,0.0,0.0,0.0,0.0,0.0,0.0,0.0,0.0,-0.5849,-0.8135,-0.8781,-0.877,0.0,-0.8299,-0.7934,-0.779,-0.777,-0.7726,0.0,0.0,0.0,0.0,0.0,0.0,-0.7638,-0.7736,-0.7859,-0.7918,-0.8164,-0.843,-0.866,-0.8804,-0.8836,-0.8792,-0.8646,-0.894,-0.9733,-0.9969,0.0,0.0,0.0,0.0,0.0,0.0,0.0,0.0,0.0,0.0,0.0,0.0,0.0,0.0,0.0,0.0,0.0,0.0,0.0,0.0,0.0,0.0,0.0,0.0,0.0,0.0,0.0,0.0,0.0,0.9108,0.8714,0.8451,0.8341,0.8054,0.0,0.0,0.0,0.0,0.0,0.0,0.0,0.0,0.0,0.7622,0.7638,0.7517,0.7329,0.5727,0.4709,0.4267,0.2016,0.0913,0.0913,0.0128,-0.038,-0.0758,-0.1067,-0.1354,-0.1615,-0.1821,-0.184,-0.1793,0.0,0.0,0.0,0.0,-0.1686,-0.169,-0.172,-0.1776,-0.1818,-0.2238,0.0,0.0,0.0,0.0,0.0,0.0,0.0,0.0,0.0,0.0,-0.5761,-0.8148,-0.8696,-0.8662,-0.8598,-0.8428,-0.8245,-0.8096,-0.8069,-0.7994,-0.776,-0.7651,0.0,0.0,0.0,-0.7699,-0.7716,-0.7702,-0.7729,-0.7759,-0.7801,-0.8019,-0.8377,-0.8446,-0.854,-0.8678,-0.8532,-0.8651,-0.9004,-0.9531,-0.9964,0.0,0.0,0.0,0.0,0.0,0.0,0.0,0.0,0.0,0.0,0.0,0.0,0.0,0.0,0.0,0.0,0.0,0.0,0.0,0.0,0.0,0.0,0.0,0.0,0.0,0.0,0.0,0.0,0.9613,0.9168,0.889,0.896,0.8784,0.0,0.0,0.0,0.0,0.0,0.0,0.7382,0.7423,0.7638,0.8,0.8011,0.8155,0.8459,0.6341,0.5324,0.5366,0.2449,0.1119,0.1052,0.0259,-0.0255,-0.0505,-0.0881,-0.1123,-0.1418,-0.1747,-0.1891,-0.1797,-0.1772,-0.1752,-0.1769,-0.1739,-0.1727,-0.1731,-0.1808,-0.1811,-0.1802,-0.1732,-0.1708,-0.1727,-0.1622,0.0,0.0,0.0,0.0,-0.2228,-0.465,-0.5187,-0.5718,-0.8078,-0.8564,-0.8482,-0.8482,-0.8455,-0.8397,0.0,-0.8323,-0.8187,-0.7916,-0.7784,0.0,-0.7801,-0.7753,-0.7709,-0.7699,-0.7641,-0.7619,-0.765,-0.7574,-0.768,-0.8072,-0.8157,-0.8292,-0.8476,-0.8564,-0.8551,-0.8365,-0.9087,-0.9487,-0.9432,0.0,0.0,0.0,0.0,0.0,0.0,0.0,0.0,0.0,0.0,0.0,0.0,0.0,0.0,0.0,0.0,0.0,0.0,0.0,0.0,0.0,0.0,0.0,0.0,0.0,0.0,0.0,0.0,0.0,0.9238,0.9635,0.0,0.0,0.0,0.0,0.8014,0.8193,0.8166,0.7884,0.7842,0.8013,0.8378,0.8391,0.8451,0.8579,0.844,0.8374,0.8318,0.5487,0.4072,0.4002,0.0895,-0.0506,-0.0505,-0.0871,-0.0989,-0.105,-0.1727,-0.1954,-0.186,-0.1799,-0.1777,-0.1775,-0.1802,-0.1791,-0.1791,-0.1792,-0.1774,-0.1809,-0.1781,-0.177,-0.1793,-0.1707,-0.1679,0.0,0.0,-0.164,-0.2141,-0.4476,-0.5087,-0.5665,-0.7981,-0.8486,-0.8482,-0.8482,-0.8377,-0.833,0.0,-0.8323,-0.8218,-0.8005,0.0,-0.7921,-0.7831,-0.788,-0.7865,-0.7448,-0.7512,-0.7581,-0.7505,-0.751,-0.7591,-0.79,-0.8072,-0.8201,-0.8201,-0.8472,-0.8608,-0.86,-0.8437,-0.8463,-0.8667,-0.9401,0.0,0.0,0.0,0.0,0.0,0.0,0.0,0.0,0.0,0.0,0.0,0.0,0.0,0.0,0.0,0.0,0.0,0.0,0.0,0.0,0.0,0.0,0.0,0.0,0.0,0.0,0.0,0.0,0.9486,0.9971,0.0,0.9357,0.9207,0.9147,0.9045,0.8803,0.8705,0.8705,0.8461,0.8391,0.8522,0.8527,0.8546,0.8587,0.7648,0.7178,0.7178,0.516,0.4187,0.4081,0.2034,0.1129,0.1057,-0.0186,-0.0679,-0.0741,-0.1173,-0.1478,-0.1648,-0.1834,-0.1881,-0.1834,-0.1842,-0.1824,-0.1821,-0.1802,-0.1788,-0.1778,-0.1823,-0.1787,-0.1744,-0.1733,-0.1656,-0.1633,-0.1633,-0.1639,-0.2159,-0.436,-0.4849,-0.5326,-0.7506,-0.798,-0.7913,-0.7913,-0.7875,-0.7865,-0.7957,-0.8055,-0.8102,-0.7998,-0.7833,-0.777,-0.7804,-0.7695,-0.7553,-0.7439,-0.7463,-0.7419,-0.7255,-0.7231,-0.7367,-0.7635,-0.7852,-0.8072,-0.8201,-0.8472,-0.8612,-0.8612,-0.8547,-0.8486,-0.839,-0.8674,-0.8829,0.0,0.0,0.0,0.0,0.0,0.0,0.0,0.0,0.0,0.0,0.0,0.0,0.0,0.0,0.0,0.0,0.0,0.0,0.0,0.0,0.0,0.0,0.0,0.0,0.0,1.0174,1.0383,0.9897,1.0357,1.0466,0.9822,0.9706,0.9728,0.975,0.9444,0.927,0.9175,0.8917,0.872,0.8587,0.8587,0.8587,0.8587,0.7602,0.7053,0.7062,0.5492,0.4769,0.4721,0.327,0.2425,0.1912,0.0802,0.0062,-0.037,-0.0675,-0.098,-0.1224,-0.1627,-0.1748,-0.1757,-0.1819,-0.1855,-0.1849,-0.1797,-0.178,-0.1775,-0.1799,-0.1762,-0.1675,-0.1717,-0.1648,-0.1633,-0.1633,-0.1632,-0.2136,-0.4183,-0.4684,-0.5118,-0.7231,-0.7668,-0.76,-0.76,-0.76,-0.7628,-0.7723,-0.7862,-0.7928,-0.7982,-0.783,-0.778,-0.7875,-0.7678,-0.7502,-0.7455,-0.745,-0.7312,-0.7112,-0.7095,-0.7187,-0.7367,-0.7591,-0.7856,-0.8069,-0.8336,-0.852,-0.8612,-0.8612,-0.8555,-0.8385,-0.8594,-0.8916,-0.9385,0.0,0.0,0.0,0.0,0.0,0.0,0.0,0.0,0.0,0.0,0.0,0.0,0.0,0.0,0.0,0.0,0.0,0.0,0.0,0.0,0.0,0.0,0.0,1.0698,1.0664,1.0744,1.0494,1.0885,1.087,1.0148,1.0466,1.0528,1.0061,1.0119,0.9861,0.9189,0.9123,0.8923,0.8653,0.8587,0.8587,0.8587,0.8495,0.8372,0.835,0.6889,0.616,0.6093,0.4643,0.3263,0.2034,0.2034,0.1233,0.0,-0.0364,-0.0482,-0.0543,-0.1226,-0.148,-0.1536,-0.1787,-0.1883,-0.1869,-0.1836,-0.1803,-0.1796,-0.1712,-0.1702,-0.1696,-0.172,-0.1712,-0.1711,-0.171,-0.1666,-0.2068,-0.405,-0.4592,-0.5077,-0.7111,-0.7587,-0.7587,-0.7587,-0.7587,-0.7587,-0.759,-0.7702,-0.7845,-0.7948,-0.7971,-0.7968,-0.7968,-0.7889,0.0,-0.7604,-0.7455,-0.7309,-0.7112,-0.7095,-0.7095,-0.7095,-0.7323,-0.7591,-0.7848,-0.8065,-0.8332,-0.856,-0.8608,-0.8612,-0.8656,-0.9168,-0.9486,-0.949,0.0,0.0,0.0,0.0,0.0,0.0,0.0,0.0,0.0,0.0,0.0,0.0,0.0,0.0,0.0,0.0,0.0,0.0,0.0,0.0,0.0,1.3396,1.3179,1.1155,1.1147,1.141,1.144,1.1389,1.1333,1.1118,1.0846,1.0681,1.0618,1.046,1.0277,1.0065,0.9526,0.9148,0.8987,0.872,0.8587,0.8587,0.8495,0.8372,0.8416,0.7849,0.7549,0.7481,0.6007,0.4614,0.3322,0.2375,0.1213,0.0,-0.0119,-0.0119,-0.0178,-0.0894,-0.1254,-0.1429,-0.1517,-0.1654,-0.1839,-0.1814,-0.1776,-0.1738,-0.1729,-0.1658,-0.1635,-0.1605,-0.1646,-0.1641,-0.157,-0.1551,-0.1966,-0.3885,-0.4359,-0.4859,-0.6789,-0.722,-0.722,-0.722,-0.722,-0.7299,-0.7411,-0.7465,-0.7539,-0.7695,-0.7628,-0.7553,-0.7553,-0.7424,0.0,-0.7227,-0.7186,-0.7142,-0.7102,-0.7095,-0.7095,-0.7095,-0.7323,-0.7501,-0.7469,-0.7912,-0.819,-0.8162,-0.8456,-0.8915,-0.9515,-1.0343,-1.1122,0.0,0.0,0.0,0.0,0.0,0.0,0.0,0.0,0.0,0.0,0.0,0.0,0.0,0.0,0.0,0.0,0.0,0.0,0.0,0.0,0.0,0.0,1.4745,1.4419,1.2743,1.2171,1.1961,1.2066,1.1836,1.1625,1.1493,1.1143,1.0888,1.0846,1.0652,1.045,1.0309,0.9771,0.9332,0.912,0.8787,0.8565,0.8516,0.8404,0.8319,0.8263,0.8068,0.804,0.7975,0.7101,0.5718,0.3873,0.311,0.1757,0.0,0.0,0.0,0.0,0.0,0.0,0.0,0.0,-0.1679,-0.1801,-0.1776,-0.1735,-0.1641,-0.1679,-0.1604,-0.1576,-0.1558,-0.1553,-0.1549,-0.1531,-0.1801,-0.2439,-0.3931,-0.458,-0.526,-0.6757,-0.7095,-0.7095,-0.7095,-0.7095,-0.7122,-0.7258,-0.7275,0.0,-0.739,-0.7441,-0.7465,-0.7465,-0.7336,-0.7238,-0.7238,-0.7136,-0.7095,-0.7095,-0.7095,-0.7095,-0.7095,-0.7231,0.0,0.0,0.0,-0.7943,-0.806,-0.8674,0.0,0.0,0.0,-1.2143,-1.2705,0.0,0.0,0.0,-1.2463,-1.241,0.0,0.0,0.0,0.0,0.0,0.0,0.0,0.0,0.0,0.0,0.0,0.0,0.0,0.0,0.0,0.0,1.6169,1.554,1.4758,1.3305,1.2367,1.2523,1.2273,1.1936,1.1599,1.1333,1.1049,1.0787,1.0721,1.0588,1.0259,0.9927,0.0,0.0,0.0,0.858,0.841,0.8256,0.8136,0.8114,0.7991,0.7872,0.7869,0.772,0.6305,0.3864,0.3722,0.23,0.0,0.0,0.0,-0.0057,-0.0406,-0.0702,-0.0992,-0.1581,-0.1767,-0.179,-0.173,0.0,0.0,-0.1572,-0.1545,-0.1477,-0.1471,-0.1471,-0.152,-0.1469,-0.2149,-0.3129,-0.4043,-0.4985,-0.5941,-0.6874,-0.7095,-0.7095,-0.7095,-0.7095,-0.7095,-0.7095,-0.7095,-0.7095,-0.7095,-0.7366,-0.755,-0.755,-0.7431,-0.7346,-0.7346,-0.7224,-0.7095,-0.7095,0.0,0.0,-0.7095,-0.7095,-0.718,-0.7438,-0.7464,-0.772,-0.8257,-0.9074,-0.9735,-1.0115,-1.1752,-1.2687,-1.279,-1.386,-1.4266,-1.4102,-1.3699,-1.3314,0.0,0.0,0.0,0.0,0.0,0.0,0.0,0.0,0.0,0.0,0.0,0.0,0.0,0.0,0.0,1.7308,1.6682,1.6018,1.5007,1.3591,1.2716,1.2753,1.2425,1.2227,1.216,1.16,1.1185,1.1115,1.0853,1.0654,1.0588,1.0256,0.9921,0.9582,0.9124,0.8714,0.8429,0.8193,0.8091,0.8114,0.0,0.0,0.7864,0.6772,0.5427,0.3856,0.2785,0.1493,0.0,0.0,-0.011,-0.038,-0.0717,-0.1007,-0.1241,-0.1581,-0.1718,-0.1705,-0.1646,-0.1606,-0.1571,-0.1516,-0.151,-0.1469,-0.1422,-0.147,0.0,-0.1414,-0.2126,-0.3108,-0.4047,-0.4975,-0.5941,-0.6874,-0.7095,-0.7095,-0.7095,-0.7095,-0.7095,-0.7095,-0.7095,-0.7095,-0.7095,-0.7146,-0.7183,-0.7183,-0.7159,-0.7139,-0.7139,-0.7112,-0.7095,-0.7095,-0.7095,-0.7095,-0.7095,-0.7095,-0.7092,-0.7023,-0.7109,-0.7682,-0.8794,-0.9016,-0.9895,-1.158,-1.1972,-1.2469,-1.3185,-1.3409,-1.3741,-1.4095,-1.4219,-1.426,0.0,0.0,0.0,0.0,0.0,0.0,0.0,0.0,0.0,0.0,0.0,1.8323,1.8442,0.0,1.972,1.9555,1.8711,1.7645,1.6356,1.4968,1.3805,1.2902,1.2638,1.2507,1.2309,1.178,1.1446,1.1247,1.0916,1.0721,1.0721,1.0389,1.0088,0.988,0.9211,0.8778,0.8455,0.823,0.8088,0.8023,0.7842,0.7785,0.7777,0.6415,0.5067,0.3752,0.2555,0.1233,0.0,0.0,-0.0269,-0.064,-0.08,-0.1024,-0.1309,-0.1594,-0.1673,-0.1654,-0.1609,-0.1564,-0.1521,-0.1491,-0.148,-0.1429,-0.1399,-0.1401,-0.1545,-0.2023,-0.2865,-0.3801,-0.4736,-0.5716,-0.6517,-0.7007,-0.7095,-0.6962,-0.652,-0.6384,-0.6251,-0.5802,-0.5714,-0.5847,-0.6296,-0.6384,-0.6564,-0.7007,-0.7095,-0.7095,-0.7095,-0.7095,-0.7095,-0.7095,-0.7095,-0.7068,-0.6997,-0.692,-0.6892,-0.6817,-0.6868,-0.7435,-0.8597,-0.9096,-1.0106,-1.1784,-1.2129,-1.2566,-1.3149,-1.3129,-1.3295,-1.3695,-1.3778,-1.4182,0.0,0.0,0.0,0.0,0.0,0.0,0.0,1.7337,1.7635,1.8172,1.8956,1.9657,2.0072,2.0601,2.1128,2.1713,2.0557,1.9091,1.7708,1.6252,1.4693,1.298,1.275,1.2704,1.2441,1.2111,1.1714,1.1383,1.0982,1.0787,1.0721,1.0429,1.0172,1.0016,0.9327,0.8828,0.8506,0.822,0.7985,0.7801,0.7709,0.7665,0.7595,0.621,0.5045,0.4048,0.2795,0.1484,0.0325,0.0268,-0.0212,-0.0896,-0.0887,-0.1098,-0.137,-0.1611,-0.1641,-0.162,-0.1577,-0.153,-0.1487,-0.1476,-0.1455,-0.1391,-0.1391,-0.1391,-0.1614,-0.2598,-0.3578,-0.4512,-0.545,-0.6387,-0.7054,-0.7095,-0.7051,-0.6735,-0.5866,-0.5642,-0.537,-0.446,-0.4412,-0.477,-0.5549,-0.5819,-0.618,-0.7003,-0.7095,-0.7085,-0.7058,-0.7055,-0.7045,-0.7014,-0.7038,-0.7007,-0.6896,-0.6817,-0.6719,-0.6661,-0.6658,-0.7144,-0.8159,-0.9085,-1.0162,-1.1398,-1.215,-1.2614,-1.2819,-1.2802,-1.2922,-1.3218,-1.3147,-1.3687,1.5765,1.671,1.7742,1.8148,1.8577,1.9204,0.0,2.0399,2.04,2.103,2.144,2.1695,2.1536,2.1729,2.1951,2.2058,2.0598,1.9051,1.7667,1.6003,1.4391,1.2807,1.2739,1.277,1.277,1.2441,1.2111,1.178,1.138,1.0986,1.0721,1.0526,1.0306,1.0012,0.9541,0.8978,0.8422,0.8224,0.7914,0.7559,0.7546,0.754,0.7466,0.5962,0.5233,0.5152,0.3685,0.2434,0.141,0.1165,0.0314,-0.0814,-0.1084,-0.1339,-0.1576,-0.1623,-0.1637,-0.1697,-0.156,-0.1527,-0.1512,-0.1412,-0.1393,-0.1391,-0.1391,-0.1391,-0.1614,-0.2598,-0.3578,-0.4512,-0.545,-0.6254,-0.6881,-0.7051,-0.6786,-0.6354,-0.58,-0.5521,-0.5104,-0.4369,-0.4853,-0.5431,-0.5671,-0.63,-0.682,-0.7075,-0.7095,-0.7051,-0.6927,-0.691,-0.6859,-0.6763,-0.6871,-0.6903,-0.6886,-0.6869,-0.6787,-0.6555,-0.6538,-0.6936,-0.7892,-0.8722,-0.9697,-1.0776,-1.1766,-1.222,-1.2202,-1.2363,-1.2595,-1.2846,-1.2851,-1.3153,1.7745,1.8168,1.8692,1.9113,1.9623,2.0147,2.075,2.0902,2.1079,2.1505,2.2033,2.2344,2.2228,2.249,2.2696,2.2693,2.2069,2.0676,1.8174,1.7032,1.5578,1.289,1.2629,1.2678,1.2678,1.2443,1.2243,1.2111,1.1512,1.1115,1.0982,1.0706,1.0375,1.0004,0.9649,0.9268,0.8809,0.8388,0.8087,0.7915,0.7525,0.7307,0.7293,0.575,0.4719,0.4054,0.2801,0.2002,0.1531,0.0824,0.0102,-0.0607,-0.0866,-0.1119,-0.1364,-0.1566,-0.1603,-0.1577,-0.1539,-0.1456,-0.1423,-0.1399,-0.1391,-0.1391,-0.1391,-0.1391,-0.1614,-0.2598,-0.3578,-0.4512,-0.545,-0.6257,-0.6836,-0.7054,-0.6877,-0.6442,-0.5737,-0.5497,-0.512,-0.4168,-0.4274,-0.4725,-0.5472,-0.5841,-0.6319,-0.6983,-0.7095,-0.7075,-0.7014,-0.7007,-0.6953,-0.6851,-0.681,-0.6759,-0.6671,-0.6586,-0.6485,-0.6399,-0.6388,-0.6777,-0.7633,-0.7979,-0.8691,-0.9727,-1.0478,-1.0972,-1.1245,-1.1739,-1.2207,-1.2606,-1.2541,-1.2712,1.9104,1.9483,1.9809,2.0247,2.0806,2.1275,2.1336,2.1676,2.1954,2.2041,2.2529,2.2944,2.2884,2.2984,2.3122,2.3248,2.3113,2.1957,1.9133,1.8024,1.6518,1.3565,1.2807,1.2471,1.2422,1.243,1.2389,1.2305,1.167,1.1267,1.1181,1.0733,1.0297,0.9995,0.9726,0.9362,0.9013,0.8617,0.8266,0.8014,0.7598,0.7282,0.7097,0.5972,0.4965,0.4026,0.2972,0.2318,0.1966,0.0807,0.005,-0.0404,-0.0703,-0.0952,-0.1202,-0.1395,-0.152,-0.1536,-0.1519,-0.1485,-0.1446,-0.1393,-0.1391,-0.1391,-0.1391,-0.1391,-0.1614,-0.2598,-0.3401,-0.42,-0.5408,-0.5963,-0.638,-0.6906,-0.6749,-0.6291,-0.5596,-0.5355,-0.5024,-0.4008,-0.3989,-0.444,-0.5334,-0.5701,-0.6101,-0.698,-0.7095,-0.7082,-0.7045,-0.6964,-0.6915,-0.6814,-0.6705,-0.6593,-0.6521,-0.6419,-0.634,-0.6303,-0.63,-0.6567,-0.7142,-0.7369,-0.785,-0.8647,-0.9311,-0.9921,-1.0479,-1.1121,-1.1777,-1.2373,-1.2337,-1.2418,1.9434,2.0428,2.1451,2.1818,2.2485,2.3005,2.3014,2.3576,2.3942,2.3351,2.3585,2.3791,2.3595,2.3285,2.3184,2.3559,2.3043,2.209,2.0733,1.8587,1.6637,1.4995,1.3367,1.2243,1.2065,1.2365,1.2515,1.2297,1.1823,1.141,1.124,1.064,1.021,1.0025,0.961,0.9205,0.8696,0.8848,0.8444,0.7624,0.7731,0.7488,0.6983,0.6681,0.6449,0.6237,0.5183,0.413,0.3073,0.1713,0.0555,-0.0403,-0.0693,-0.0983,-0.1177,-0.1203,-0.1353,-0.161,-0.1503,-0.148,-0.1474,-0.1399,-0.1391,-0.1391,-0.1391,-0.1391,-0.1614,-0.2598,-0.2913,-0.3358,-0.5228,-0.5282,-0.5201,-0.6589,-0.6317,-0.564,-0.5306,-0.5074,-0.4713,-0.3936,-0.4426,-0.5089,-0.5446,-0.6159,-0.6761,-0.7051,-0.7095,-0.7048,-0.691,-0.6675,-0.6532,-0.6525,-0.6521,-0.6518,-0.6511,-0.6508,-0.6446,-0.631,-0.63,-0.63,-0.6338,-0.7099,-0.7522,-0.7531,-0.8508,-0.942,-1.0191,-1.0614,-1.1248,-1.2016,-1.2194,-1.2305,1.9142,1.9477,1.9937,2.1275,2.1813,2.2223,2.3224,2.3638,2.3657,2.3067,2.2897,2.2687,2.2292,2.2303,2.2434,2.2587,2.2818,2.2404,2.0803,1.9028,1.7138,1.511,1.3662,1.2615,1.2056,1.2247,1.2354,1.2287,1.1915,1.1634,1.1406,1.0795,1.028,0.989,0.9635,0.9388,0.9033,0.884,0.8511,0.7934,0.728,0.6882,0.6619,0.6484,0.6434,0.6279,0.5259,0.412,0.2964,0.1896,0.0845,-0.0146,-0.0441,-0.0584,-0.0721,-0.1036,-0.1173,-0.1272,-0.1441,-0.1468,-0.1449,-0.1394,-0.1391,-0.1391,-0.1391,-0.13,-0.1256,-0.1613,-0.2015,-0.2498,-0.3164,-0.4005,-0.4918,-0.554,-0.5879,-0.6027,-0.604,-0.603,-0.5867,-0.5539,-0.5741,-0.6058,-0.6249,-0.6533,-0.6732,-0.6834,-0.697,-0.7045,-0.6903,-0.6841,-0.6698,-0.6535,-0.6511,-0.6474,-0.6378,-0.6371,-0.6351,-0.6303,-0.6166,-0.6108,-0.6108,-0.6369,-0.652,-0.652,-0.7495,-0.8203,-0.8618,-0.9825,-1.0689,-1.1205,-1.1811,-1.215,1.9146,1.9442,1.9856,2.1187,2.1694,2.2173,2.3159,2.3696,2.3852,2.3328,2.2862,2.2479,2.2177,2.1986,2.1895,2.2188,2.2438,2.2255,2.141,1.9304,1.741,1.6252,1.4255,1.2821,1.2329,1.2237,1.2235,1.2304,1.1988,1.1718,1.1437,1.0811,1.0262,0.9751,0.9605,0.9357,0.8998,0.8881,0.85,0.8023,0.7034,0.6578,0.6449,0.6406,0.6374,0.6222,0.5208,0.4309,0.3428,0.2102,0.112,0.0429,-0.0048,-0.0382,-0.0564,-0.083,-0.1052,-0.1235,-0.1419,-0.1452,-0.1391,-0.1391,-0.1391,-0.1391,-0.13,-0.1211,-0.1075,-0.0978,-0.1248,-0.1693,-0.2005,-0.2934,-0.3866,-0.4478,-0.5162,-0.5707,-0.5907,-0.6192,-0.6409,-0.6317,-0.6416,-0.6545,-0.6603,-0.6664,-0.6702,-0.6702,-0.6861,-0.6889,-0.6783,-0.6766,-0.6671,-0.6463,-0.6436,-0.6378,-0.619,-0.6179,-0.6156,-0.6139,-0.6003,-0.5936,-0.599,-0.5993,-0.602,-0.6112,-0.674,-0.7292,-0.7706,-0.9079,-1.0088,-1.0708,-1.1583,-1.2114,1.9414,2.0205,2.1064,2.1508,2.2156,2.2769,2.2852,2.3824,2.4536,2.393,2.3383,2.3055,2.3116,2.2241,2.1713,2.2342,2.2025,2.1916,2.255,1.962,1.7578,1.8111,1.5041,1.2813,1.2796,1.2333,1.2121,1.228,1.1968,1.1653,1.1281,1.0808,1.021,0.9618,0.9459,0.9171,0.8726,0.8797,0.8507,0.7872,0.698,0.6608,0.6605,0.6438,0.6372,0.6211,0.5236,0.4689,0.4313,0.2328,0.1473,0.1326,0.0372,-0.0277,-0.0645,-0.0677,-0.0986,-0.1388,-0.139,-0.1391,-0.1391,-0.1391,-0.1391,-0.1345,-0.1165,-0.112,-0.1027,-0.0788,-0.0707,-0.0892,-0.1788,-0.1998,-0.226,-0.3371,-0.4141,-0.47,-0.4894,-0.5604,-0.6222,-0.618,-0.6294,-0.6391,-0.6431,-0.6559,-0.6654,-0.6681,-0.6685,-0.6634,-0.6532,-0.6511,-0.6457,-0.6317,-0.6293,-0.619,-0.6003,-0.5986,-0.5919,-0.581,-0.5793,-0.5861,-0.5976,-0.5979,-0.6091,-0.6286,-0.6296,-0.6683,-0.7446,-0.8432,-0.941,-1.0415,-1.1397,-1.1966,1.9169,1.9089,1.9236,1.9945,2.0354,2.088,2.2275,2.2856,2.2948,2.2562,2.2186,2.158,2.0573,2.1007,2.1558,2.1729,2.2511,2.317,2.3342,2.0588,1.8509,1.8244,1.5504,1.3423,1.2821,1.2564,1.2337,1.2117,1.1922,1.1598,1.1098,1.0823,1.04,0.9615,0.9459,0.9222,0.8828,0.8268,0.7896,0.7596,0.6811,0.6433,0.643,0.64,0.6325,0.6138,0.5986,0.5287,0.4239,0.3099,0.2104,0.1322,0.0368,-0.0092,-0.0181,-0.0405,-0.0666,-0.0923,-0.1115,-0.1256,-0.1391,-0.1391,-0.1391,-0.1386,-0.132,-0.124,-0.1072,-0.0963,-0.0795,-0.0759,-0.1005,-0.1582,-0.2151,-0.2505,-0.327,-0.3991,-0.4095,-0.475,-0.516,-0.4574,-0.4542,-0.4819,-0.5428,-0.5691,-0.5961,-0.6324,-0.6504,-0.6555,-0.6518,-0.6511,-0.6457,-0.6317,-0.6159,-0.6071,-0.5996,-0.5925,-0.5844,-0.5803,-0.5701,-0.5708,-0.5854,-0.5861,-0.5932,-0.6084,-0.6242,-0.6412,-0.6606,-0.748,-0.8161,-0.8723,-0.9593,-1.0196,1.862,1.8361,1.8332,1.8927,1.9209,1.9532,2.0474,2.1237,2.1625,2.1357,2.1086,2.0738,2.0085,2.0655,2.1304,2.1407,2.2395,2.3202,2.3353,2.1238,1.9411,1.8611,1.6309,1.4331,1.3267,1.2753,1.2333,1.2052,1.182,1.1466,1.0927,1.0653,1.0229,0.9612,0.9395,0.9106,0.8743,0.7982,0.7543,0.7351,0.672,0.6387,0.6384,0.6385,0.626,0.6086,0.0,0.5686,0.4844,0.3946,0.2972,0.1974,0.0999,0.0271,-0.0177,-0.0354,-0.0568,-0.0859,-0.1,-0.1185,-0.1417,-0.1386,-0.1391,-0.1387,-0.1282,-0.111,-0.0938,-0.0876,-0.0707,-0.058,-0.0656,-0.1192,-0.1687,-0.1712,-0.2487,-0.3248,-0.3246,-0.3889,-0.4353,-0.3963,-0.3901,-0.4081,-0.457,-0.4708,-0.4994,-0.5613,-0.581,-0.5978,-0.638,-0.6318,-0.6247,-0.6169,-0.5949,-0.5759,-0.5696,-0.5574,-0.5498,-0.5505,-0.5426,-0.551,-0.5793,-0.58,-0.5905,-0.6129,-0.6255,-0.63,-0.63,-0.7103,-0.7672,-0.8008,-0.8879,-0.9485,1.8123,1.803,1.8112,1.8245,1.8433,1.856,1.838,1.9416,2.041,2.0256,2.0219,2.0245,2.0423,2.0651,2.0945,2.1344,2.2044,2.2691,2.3079,2.1685,2.0207,1.9021,1.7119,1.5247,1.3676,1.2766,1.2203,1.1978,1.168,1.1218,1.0827,1.033,0.9944,0.9551,0.9273,0.8982,0.8516,0.7901,0.7505,0.7263,0.6745,0.6429,0.6459,0.6361,0.624,0.6056,0.595,0.5839,0.5644,0.4701,0.3762,0.2822,0.1788,0.0663,-0.0348,-0.0347,-0.0598,-0.0965,-0.0968,-0.1149,-0.1384,-0.1418,-0.1387,-0.1345,-0.1207,-0.0984,-0.0804,-0.0788,-0.0662,-0.0581,-0.0746,-0.0974,-0.1121,-0.1161,-0.1818,-0.2431,-0.2425,-0.2988,-0.3542,-0.3776,-0.361,-0.3544,-0.3778,-0.3689,-0.3949,-0.4846,-0.5004,-0.5279,-0.6025,-0.6066,-0.6023,-0.6023,-0.5742,-0.5454,-0.5348,-0.5174,-0.5111,-0.5125,-0.5116,-0.5347,-0.582,-0.583,-0.5966,-0.6293,-0.63,-0.63,-0.63,-0.6988,-0.7446,-0.7668,-0.8575,-0.9084,1.8492,1.8345,1.8219,1.7766,1.7585,1.7592,1.7901,1.8566,1.9062,1.9216,1.9755,1.9994,1.9236,1.9869,2.0688,2.1369,2.203,2.2642,2.3067,2.1879,2.0287,1.8396,1.6736,1.5076,1.3341,1.2519,1.2065,1.197,1.1454,1.0923,1.0658,1.0276,0.9845,0.9296,0.9066,0.8879,0.8672,0.8206,0.7904,0.776,0.7042,0.6688,0.6634,0.6422,0.6146,0.5934,0.5912,0.0,0.5644,0.4701,0.3762,0.2818,0.1802,0.0785,-0.0087,-0.0085,-0.0334,-0.0657,-0.0753,-0.1001,-0.1326,-0.138,-0.1414,-0.1386,-0.1361,-0.1327,-0.1295,-0.1268,-0.1236,-0.1255,-0.1251,-0.1297,-0.1339,-0.136,-0.1457,-0.1508,-0.152,-0.1642,-0.1925,-0.2641,-0.2202,-0.1964,-0.2641,-0.2752,-0.3249,-0.4771,-0.5004,-0.5043,-0.5198,-0.5806,-0.6259,-0.6259,-0.5893,-0.5595,-0.546,-0.5202,-0.5089,-0.5271,-0.5267,-0.5467,-0.5942,-0.5952,-0.6078,-0.6296,-0.63,-0.63,-0.63,-0.6451,-0.6602,-0.683,-0.7169,-0.7402,1.7643,1.7517,1.745,1.716,1.6713,1.6321,1.641,1.6822,1.7296,1.7669,1.8355,1.8878,1.8813,1.9685,2.0458,2.0662,2.1578,2.2347,2.2594,2.223,2.0967,1.8572,1.738,1.5744,1.319,1.237,1.1996,1.1906,1.1351,1.0909,1.0617,1.0064,0.9527,0.9052,0.9049,0.8903,0.8594,0.8259,0.7959,0.7743,0.7222,0.6924,0.67,0.6585,0.6405,0.6084,0.602,0.5958,0.5863,0.5282,0.4182,0.2861,0.2353,0.1285,0.0,0.0,-0.0245,-0.06,-0.0648,-0.0935,-0.1307,-0.1335,-0.1365,-0.1346,-0.139,-0.1313,-0.1237,-0.137,-0.1335,-0.1345,-0.1705,-0.1794,-0.1879,-0.2124,-0.1956,-0.166,-0.1374,-0.1315,-0.1508,-0.2157,-0.1934,-0.1799,-0.2438,-0.2333,-0.2586,-0.3832,-0.3834,-0.3873,-0.43,-0.473,-0.4941,-0.4844,-0.4502,-0.4413,-0.4695,-0.4564,-0.4706,-0.5201,-0.5345,-0.5584,-0.5983,-0.5993,-0.6101,-0.6296,-0.6371,-0.6375,-0.63,-0.6375,-0.6448,-0.6559,-0.6677,-0.6802,1.6703,1.6691,1.6717,1.6652,1.6049,1.5412,1.5004,1.5358,1.5825,1.6109,1.699,1.7878,1.8404,1.9311,1.9941,1.9861,2.0757,2.1597,2.1847,2.2194,2.1353,1.8497,1.7892,1.6391,1.2998,1.2225,1.1902,1.1732,1.1217,1.0739,1.0391,0.9715,0.9181,0.8892,0.9049,0.892,0.8533,0.8292,0.8043,0.7742,0.7456,0.7118,0.6891,0.6807,0.6628,0.6359,0.6182,0.5994,0.5766,0.5523,0.4272,0.2558,0.2577,0.1509,0.0,-0.004,-0.0279,-0.0589,-0.0667,-0.0955,-0.1294,-0.1301,-0.1282,-0.1311,-0.1382,-0.1261,-0.1136,-0.1338,-0.13,-0.1345,-0.2019,-0.2199,-0.2331,-0.2763,-0.2549,-0.2116,-0.1692,-0.16,-0.1725,-0.2187,-0.2072,-0.2043,-0.2399,-0.2089,-0.2063,-0.2863,-0.2716,-0.2759,-0.3444,-0.3521,-0.338,-0.3052,-0.3065,-0.3281,-0.3741,-0.3773,-0.4138,-0.4941,-0.5162,-0.5518,-0.6037,-0.6078,-0.6149,-0.634,-0.6457,-0.6474,-0.6395,-0.6508,-0.6562,-0.6559,-0.6637,-0.6748,1.6432,1.6501,1.6634,1.638,1.5935,1.5288,1.4541,1.491,1.5337,1.4949,1.6365,1.7645,1.7466,1.8124,1.8822,1.9187,1.9364,1.9784,2.0696,2.1372,2.061,1.7514,1.7485,1.6265,1.2695,1.2061,1.1723,1.1537,1.0924,1.0277,0.9702,0.9223,0.8912,0.8885,0.8895,0.8872,0.8693,0.855,0.8404,0.8248,0.7758,0.7523,0.7427,0.6997,0.6768,0.663,0.6272,0.5633,0.0,0.4559,0.3303,0.1557,0.1537,0.0897,-0.0041,-0.0199,-0.0393,-0.0628,-0.0825,-0.1062,-0.1305,-0.1294,-0.1282,-0.1311,-0.1382,-0.139,-0.1353,-0.1382,-0.1391,-0.148,-0.2064,-0.2199,-0.2321,-0.2711,-0.2781,-0.2719,-0.2662,-0.265,-0.2692,-0.2734,-0.2393,-0.2082,-0.2039,-0.1652,-0.1609,-0.2448,-0.2593,-0.2608,-0.2634,-0.2627,-0.2352,-0.1566,-0.2613,-0.3277,-0.309,-0.3088,-0.3428,-0.4248,-0.4475,-0.5095,-0.6234,-0.6279,-0.6344,-0.6491,-0.6504,-0.6573,-0.6661,-0.6671,-0.6678,-0.6678,-0.6867,-0.6944,1.5131,1.5768,1.6393,1.6128,1.5339,1.4521,1.4368,1.3932,1.3803,1.453,1.5555,1.6499,1.7178,1.7854,1.8271,1.8293,1.8476,1.8892,1.9749,2.0245,1.9649,1.7303,1.7066,1.6143,1.3663,1.2502,1.1764,1.1362,1.0642,1.0126,0.9746,0.9318,0.8964,0.8801,0.8801,0.8686,0.8448,0.8469,0.8364,0.813,0.7919,0.7717,0.7476,0.7187,0.7001,0.6865,0.632,0.5947,0.0,0.4698,0.3528,0.225,0.1628,0.0815,-0.004,-0.0236,-0.0432,-0.0628,-0.0825,-0.107,-0.1286,-0.1299,-0.1282,-0.1308,-0.1319,-0.1322,-0.1328,-0.1399,-0.1644,-0.1973,-0.2511,-0.3047,-0.3443,-0.3326,-0.3274,-0.3222,-0.2934,-0.2624,-0.2538,-0.2798,-0.2423,-0.2138,-0.2374,-0.2002,-0.1761,-0.2089,-0.1955,-0.1824,-0.1768,-0.1766,-0.1766,-0.1687,-0.1961,-0.2227,-0.2513,-0.2629,-0.2976,-0.3667,-0.4397,-0.5032,-0.5512,-0.6103,-0.6453,-0.6511,-0.6654,-0.6732,-0.6702,-0.6793,-0.6837,-0.6837,-0.6826,-0.6864,1.3987,1.4798,1.5624,1.5458,1.4631,1.3875,1.3835,1.3161,1.2877,1.4094,1.4889,1.5744,1.6904,1.7567,1.79,1.7621,1.7774,1.8215,1.9045,1.9463,1.9015,1.7422,1.6871,1.592,1.4147,1.2651,1.161,1.1179,1.0525,1.0043,0.982,0.9443,0.9033,0.871,0.871,0.857,0.8327,0.837,0.8292,0.7988,0.7988,0.7861,0.7569,0.7424,0.7187,0.6956,0.6406,0.6077,0.0,0.4444,0.3312,0.2372,0.138,0.0571,-0.004,-0.0236,-0.0432,-0.0628,-0.0825,-0.1077,-0.1303,-0.1303,-0.1317,-0.1294,-0.1303,-0.1311,-0.1324,-0.1395,-0.1906,-0.2511,-0.3002,-0.3717,-0.421,-0.39,-0.381,-0.3719,-0.3405,-0.2959,-0.2691,-0.3047,-0.2526,-0.2145,-0.2481,-0.2074,-0.1733,-0.171,-0.1484,-0.1307,-0.1298,-0.1414,-0.1569,-0.1882,-0.1765,-0.1771,-0.202,-0.2101,-0.2425,-0.3037,-0.4115,-0.483,-0.5068,-0.6037,-0.6563,-0.6607,-0.6817,-0.6856,-0.6831,-0.6896,-0.699,-0.708,-0.697,-0.6977,1.3224,1.3735,1.4218,1.4218,1.3872,1.3372,1.2854,1.2754,1.2948,1.342,1.4507,1.565,1.648,1.72,1.7628,1.7333,1.7333,1.7677,1.8657,1.9074,1.8872,1.7805,1.6977,1.5725,1.3679,1.208,1.1159,1.0984,1.058,1.0147,0.9816,0.9443,0.9033,0.871,0.871,0.857,0.8327,0.8323,0.8194,0.7988,0.7988,0.7911,0.7804,0.7665,0.7379,0.6956,0.6582,0.5764,0.0,0.3413,0.2343,0.134,0.0373,0.0,-0.0041,-0.0238,-0.0432,-0.0628,-0.0825,-0.1077,-0.1303,-0.1303,-0.1303,-0.1309,-0.1297,-0.1325,-0.1396,-0.1381,-0.2107,-0.3002,-0.3452,-0.3942,-0.43,-0.43,-0.43,-0.43,-0.43,-0.3898,-0.3587,-0.3587,-0.2826,-0.2183,-0.2137,-0.1737,-0.1369,-0.1311,-0.1302,-0.1291,-0.13,-0.1648,-0.1882,-0.1882,-0.2235,-0.2257,-0.1661,-0.1423,-0.1601,-0.2261,-0.3394,-0.4395,-0.5266,-0.6191,-0.677,-0.6879,-0.6883,-0.6953,-0.7092,-0.7092,-0.7231,-0.7503,-0.7503,-0.7503,1.3424,1.3683,1.3732,1.3732,1.3127,1.2532,1.2486,1.2508,1.2692,1.338,1.4651,1.5846,1.6487,1.7052,1.7453,1.7625,1.7662,1.7925,1.8686,1.8237,1.7569,1.6733,1.5599,1.4332,1.2809,1.2581,1.2051,1.0975,1.0304,0.9768,0.9435,0.9057,0.8769,0.8557,0.8554,0.8411,0.8116,0.8218,0.8194,0.7988,0.7988,0.7911,0.7804,0.733,0.7097,0.6959,0.623,0.5816,0.5497,0.3645,0.2703,0.2246,0.0628,-0.0124,-0.0285,-0.0484,-0.0691,-0.0907,-0.1113,-0.1254,-0.1359,-0.1298,-0.1346,-0.1364,-0.1373,-0.1369,-0.141,-0.1789,-0.2129,-0.2592,-0.3346,-0.3641,-0.3829,-0.4196,-0.4255,-0.4228,-0.4285,-0.3673,-0.3136,-0.3136,-0.2349,-0.1664,-0.1609,-0.1442,-0.1324,-0.1305,-0.1285,-0.1307,-0.1298,-0.1648,-0.1999,-0.2275,-0.2431,-0.2455,-0.2312,-0.2236,-0.2299,-0.2603,-0.3984,-0.4861,-0.5152,-0.6538,-0.7254,-0.7182,-0.7245,-0.7182,-0.6953,-0.6953,-0.7083,-0.7343,-0.7173,-0.7229,1.2527,1.2798,1.2941,1.3346,1.2571,1.1994,1.3016,1.2797,1.2745,1.4094,1.5127,1.6042,1.6723,1.7091,1.7388,1.7765,1.7816,1.7884,1.8068,1.7583,1.6661,1.5327,1.4434,1.3382,1.2032,1.2186,1.1933,1.0788,1.0133,0.9636,0.9201,0.8871,0.8615,0.8408,0.8404,0.8258,0.7907,0.8048,0.8021,0.7826,0.7826,0.7746,0.7503,0.7085,0.6833,0.6653,0.6076,0.5908,0.0,0.4119,0.3219,0.2752,0.1153,0.0127,-0.0417,-0.0538,-0.0749,-0.1011,-0.1137,-0.1281,-0.1385,-0.1315,-0.1317,-0.1372,-0.1361,-0.136,-0.1453,-0.1948,-0.2237,-0.2601,-0.3278,-0.3646,-0.3871,-0.4202,-0.4236,-0.4226,-0.4246,-0.3675,-0.3047,-0.2849,-0.2165,-0.1545,-0.1288,-0.1292,-0.1266,-0.1194,-0.1253,-0.1314,-0.1314,-0.167,-0.2058,-0.2473,-0.2628,-0.2823,-0.312,-0.2842,-0.2795,-0.3181,-0.4471,-0.5283,-0.5454,-0.682,-0.744,-0.7224,-0.7318,-0.7206,-0.6886,-0.6953,-0.7052,-0.7221,-0.7112,-0.7192,0.0,1.1427,1.2182,1.3145,1.2334,1.1833,1.4007,1.3475,0.0,1.5317,1.5798,1.6136,1.7167,1.7315,1.7385,1.7679,1.7737,1.7506,1.6924,1.6895,1.6119,1.3732,1.3437,1.2807,1.1335,1.122,1.1024,1.0529,1.0065,0.9618,0.9183,0.8847,0.8547,0.8262,0.8245,0.8102,0.7814,0.7811,0.774,0.76,0.76,0.7383,0.7011,0.6966,0.6659,0.6083,0.6083,0.5952,0.0,0.4701,0.3758,0.281,0.1794,0.0652,-0.0434,-0.0425,-0.0676,-0.1015,-0.1015,-0.12,-0.1388,-0.1315,-0.1305,-0.13,-0.1352,-0.1383,-0.1516,-0.1947,-0.2423,-0.2885,-0.3286,-0.3804,-0.4217,-0.4189,-0.4232,-0.4271,-0.4241,-0.3832,-0.3374,-0.2842,-0.236,-0.1767,-0.1139,-0.1158,-0.119,-0.1007,-0.1158,-0.1264,-0.1303,-0.1667,-0.2054,-0.2399,-0.2826,-0.336,-0.3976,-0.332,-0.3211,-0.3972,-0.4959,-0.5758,-0.6201,-0.7054,-0.7415,-0.7139,-0.7119,-0.7001,-0.6869,-0.6996,-0.7042,-0.7098,-0.7207,-0.724,1.2834,0.0,1.315,1.3394,1.3203,1.3067,0.0,1.413,1.4657,1.5337,1.5954,1.6644,1.7512,1.7515,1.7356,1.7301,1.7073,1.6671,1.6072,1.5201,1.4114,1.253,1.2245,1.1982,1.1455,1.1187,1.09,1.0521,0.9955,0.9444,0.9015,0.8588,0.8289,0.8099,0.798,0.7882,0.7811,0.7811,0.774,0.76,0.7406,0.719,0.6966,0.6642,0.6343,0.6083,0.5863,0.5777,0.5644,0.4701,0.3726,0.2797,0.1783,0.0565,-0.0609,-0.0649,-0.0916,-0.1326,-0.1326,-0.133,-0.1372,-0.1322,-0.1305,-0.1342,-0.1678,-0.1824,-0.1857,-0.195,-0.2299,-0.274,-0.3212,-0.3425,-0.3637,-0.4074,-0.4231,-0.4216,-0.4261,-0.3914,-0.3556,-0.3405,-0.2494,-0.1732,-0.1548,-0.1128,-0.0821,-0.0965,-0.1048,-0.1121,-0.1265,-0.1667,-0.1932,-0.2044,-0.2668,-0.3438,-0.4301,-0.4485,-0.4702,-0.5045,-0.6293,-0.7044,-0.7177,-0.7713,-0.7937,-0.772,-0.709,-0.6787,-0.6753,-0.6572,-0.6619,-0.6855,-0.6725,-0.6846,1.4382,1.3944,1.3636,1.4237,1.3833,1.3636,1.4818,1.4996,1.5092,1.5818,1.64,1.6971,1.7517,1.71,1.6742,1.685,1.6292,1.5612,1.4852,1.365,1.2559,1.1833,1.1707,1.1545,1.1281,1.1082,1.0787,1.0288,0.9992,0.9512,0.8857,0.8618,0.8349,0.7995,0.7911,0.7851,0.7716,0.7645,0.7536,0.739,0.7112,0.6934,0.6728,0.6367,0.6104,0.5908,0.5777,0.0,0.5644,0.5151,0.4136,0.2861,0.2291,0.0926,-0.0706,-0.0706,-0.0978,-0.1388,-0.1419,-0.1362,-0.1344,-0.13,-0.1286,-0.1362,-0.1772,-0.2057,-0.224,-0.2236,-0.2561,-0.301,-0.3226,-0.3521,-0.3853,-0.4128,-0.4202,-0.4232,-0.424,-0.4066,-0.3791,-0.3577,-0.2777,-0.2026,-0.1623,-0.1218,-0.0917,-0.0853,-0.1409,-0.1863,-0.1904,-0.2474,-0.2928,-0.3026,-0.3448,-0.4033,-0.4841,-0.5527,-0.6014,-0.6325,-0.7092,-0.7577,-0.7801,-0.7901,-0.7743,-0.7372,-0.6881,-0.6597,-0.6597,-0.6409,-0.6457,-0.6691,-0.6643,-0.6801,1.554,1.4892,1.4195,1.5259,1.454,1.4093,1.6326,1.58,1.5188,1.6298,1.6772,1.7056,1.7355,1.6646,1.6075,1.6361,1.536,1.4219,1.3403,1.2249,1.1488,1.1459,1.1435,1.1289,1.096,1.0903,1.0647,1.0122,0.9994,0.9579,0.8842,0.87,0.8473,0.8095,0.8018,0.7837,0.7634,0.7482,0.7329,0.7132,0.689,0.6612,0.6384,0.6169,0.5908,0.5688,0.0,0.0,0.5688,0.5688,0.4612,0.2911,0.2911,0.1433,-0.0672,-0.067,-0.0982,-0.1336,-0.1394,-0.1371,-0.1306,-0.1313,-0.1303,-0.1377,-0.1857,-0.224,-0.2575,-0.2749,-0.3131,-0.3456,-0.3401,-0.384,-0.4261,-0.4233,-0.4236,-0.4279,-0.4208,-0.4235,-0.408,-0.362,-0.3049,-0.2454,-0.1697,-0.1356,-0.1109,-0.0785,-0.1876,-0.2724,-0.2623,-0.3446,-0.4086,-0.4309,-0.4394,-0.4661,-0.5364,-0.6201,-0.694,-0.7443,-0.7552,-0.7746,-0.803,-0.772,-0.726,-0.6668,-0.6539,-0.6501,-0.648,-0.6358,-0.6374,-0.6567,-0.6702,-0.6842,1.554,1.582,1.5862,1.5754,1.5573,1.5499,1.5885,1.5811,1.573,1.617,1.6525,1.6891,1.7379,1.6803,1.6075,1.5557,1.3712,1.2242,1.1896,1.1614,1.1443,1.1285,1.1139,1.0968,1.0757,1.0603,1.0439,1.0329,0.9883,0.9536,0.9384,0.8794,0.8407,0.8333,0.801,0.7824,0.778,0.7638,0.7489,0.7333,0.6754,0.6432,0.6384,0.5952,0.5733,0.5688,0.0,0.5688,0.5688,0.5688,0.4612,0.2911,0.2911,0.1523,-0.0447,-0.0616,-0.0875,-0.109,-0.1237,-0.1367,-0.1374,-0.132,-0.1303,-0.1458,-0.2174,-0.2507,-0.2752,-0.3489,-0.3745,-0.3852,-0.3873,-0.4061,-0.4233,-0.422,-0.4236,-0.4295,-0.4281,-0.4279,-0.4275,-0.4172,-0.3282,-0.2479,-0.2344,-0.1488,-0.0829,-0.1024,-0.1918,-0.2609,-0.277,-0.3481,-0.4026,-0.4042,-0.4277,-0.4708,-0.552,-0.6015,-0.6617,-0.7386,-0.7825,-0.7916,-0.7436,-0.7364,-0.7084,-0.6552,-0.6525,-0.6453,-0.633,-0.631,-0.63,-0.6338,-0.6549,-0.6638,1.4873,1.5495,1.6039,1.6059,1.6186,1.6346,1.6506,1.642,1.6259,1.625,1.611,1.6089,1.6462,1.5392,1.4254,1.3495,1.2347,1.1466,1.135,1.1269,1.1147,1.0956,1.0785,1.0647,1.0562,1.0391,1.0245,1.0144,0.9879,0.954,0.9145,0.8265,0.763,0.7335,0.7055,0.697,0.7045,0.7423,0.7563,0.7492,0.6882,0.6542,0.6538,0.5983,0.5688,0.5688,0.0,0.5688,0.5688,0.5688,0.4612,0.2911,0.2911,0.1568,-0.0448,-0.0799,-0.1003,-0.1196,-0.1269,-0.1335,-0.1355,-0.1327,-0.1318,-0.1398,-0.1999,-0.2377,-0.2737,-0.3474,-0.3876,-0.4057,-0.4099,-0.4175,-0.424,-0.424,-0.4271,-0.43,-0.43,-0.43,-0.43,-0.43,-0.3646,-0.2971,-0.2549,-0.1931,-0.144,-0.1122,-0.244,-0.3462,-0.3483,-0.4631,-0.5438,-0.5356,-0.5393,-0.5608,-0.6054,-0.6351,-0.6781,-0.7357,-0.7632,-0.7559,-0.7064,-0.7015,-0.6824,-0.6402,-0.6399,-0.6364,-0.63,-0.63,-0.6374,-0.6447,-0.6676,-0.6753,1.3963,1.4867,1.579,1.6112,1.6333,1.6613,1.7099,1.6921,1.668,1.6593,1.6094,1.57,1.5842,1.431,1.272,1.1879,1.1477,1.1285,1.1285,1.1066,1.085,1.0708,1.0501,1.0371,1.0371,1.0205,1.009,0.9896,0.9847,0.9461,0.8577,0.7673,0.6863,0.6145,0.6154,0.6236,0.635,0.7184,0.76,0.7597,0.7015,0.6697,0.6633,0.6026,0.5715,0.5688,0.5688,0.5555,0.5374,0.5374,0.4253,0.2553,0.2553,0.134,-0.0445,-0.0846,-0.1088,-0.1221,-0.1298,-0.1307,-0.1306,-0.1299,-0.1296,-0.1379,-0.1764,-0.2225,-0.2706,-0.3325,-0.3808,-0.422,-0.4241,-0.4251,-0.43,-0.43,-0.43,-0.43,-0.43,-0.43,-0.43,-0.43,-0.3942,-0.3406,-0.2867,-0.2454,-0.2011,-0.1439,-0.3038,-0.4252,-0.4166,-0.565,-0.6709,-0.6593,-0.6457,-0.6378,-0.6457,-0.6586,-0.6798,-0.7123,-0.7208,-0.7089,-0.6725,-0.6718,-0.6591,-0.6248,-0.6282,-0.6282,-0.6245,-0.6282,-0.6374,-0.6525,-0.6788,-0.6903,1.3042,1.4378,1.5594,1.5763,1.5831,1.6112,1.7012,1.6921,1.6854,1.7375,1.6957,1.6474,1.6305,1.4669,1.2918,1.1664,1.1454,1.148,1.148,1.1037,1.0708,1.0692,1.0391,1.0233,1.0233,1.0014,0.99,0.9884,0.9738,0.9034,0.7766,0.7369,0.6621,0.534,0.5869,0.6203,0.6194,0.7133,0.76,0.76,0.7067,0.6645,0.6405,0.6068,0.5833,0.5688,0.5688,0.5196,0.4389,0.4389,0.3269,0.1524,0.1524,0.0754,-0.0349,-0.0611,-0.086,-0.105,-0.1233,-0.1303,-0.1294,-0.1306,-0.1296,-0.1375,-0.1768,-0.2236,-0.2696,-0.3262,-0.3805,-0.4235,-0.4269,-0.4295,-0.43,-0.43,-0.43,-0.43,-0.43,-0.43,-0.43,-0.43,-0.3942,-0.3587,-0.3542,-0.2785,-0.2203,-0.211,-0.336,-0.4293,-0.4281,-0.582,-0.6866,-0.6856,-0.663,-0.6446,-0.6323,-0.6317,-0.6359,-0.6369,-0.6658,-0.6732,-0.6515,-0.6511,-0.6378,-0.6016,-0.6186,-0.619,-0.601,-0.6193,-0.63,-0.6338,-0.6714,-0.6903,1.1216,1.2426,1.3642,1.3895,1.4479,1.5485,1.706,1.7328,1.7367,1.7752,1.6755,1.5316,1.3758,1.2683,1.1902,1.1443,1.1343,1.1248,1.1029,1.0822,1.0611,1.0387,1.0196,0.9989,0.9989,0.9827,0.9726,0.9726,0.9665,0.8924,0.7419,0.6623,0.5527,0.4013,0.411,0.4548,0.5176,0.6092,0.6756,0.7231,0.6901,0.6615,0.6337,0.5944,0.5729,0.5688,0.5688,0.5151,0.43,0.43,0.3135,0.1345,0.0763,0.0089,-0.0576,-0.0665,-0.0911,-0.1178,-0.1293,-0.1306,-0.1312,-0.13,-0.1296,-0.134,-0.1478,-0.1856,-0.2334,-0.2886,-0.3364,-0.3841,-0.4186,-0.43,-0.43,-0.43,-0.43,-0.43,-0.43,-0.43,-0.43,-0.43,-0.4166,-0.3942,-0.3631,-0.3082,-0.2549,-0.2249,-0.3393,-0.4307,-0.4295,-0.5834,-0.6886,-0.6886,-0.6742,-0.6556,-0.6446,-0.6518,-0.6497,-0.6313,-0.6432,-0.646,-0.6378,-0.6378,-0.6327,-0.6176,-0.6269,-0.6272,-0.6173,-0.6272,-0.63,-0.63,-0.6714,-0.6749,0.983,1.1005,1.2228,1.2428,1.3319,1.4516,1.6054,1.6695,1.7095,1.7642,1.6114,1.4115,1.2152,1.1521,1.1299,1.129,1.1251,1.115,1.0737,1.0703,1.0519,1.0163,0.9912,0.9803,0.9803,0.9697,0.9579,0.9579,0.9579,0.8775,0.6822,0.5988,0.4691,0.272,0.3144,0.3757,0.4475,0.5692,0.6475,0.6805,0.6666,0.6485,0.6215,0.5896,0.5702,0.5632,0.5632,0.4921,0.3813,0.3813,0.2671,0.0898,0.0269,-0.0269,-0.0628,-0.0673,-0.0918,-0.1221,-0.1263,-0.1308,-0.1296,-0.1296,-0.1296,-0.13,-0.1282,-0.1608,-0.2066,-0.2608,-0.3062,-0.3553,-0.414,-0.4279,-0.43,-0.43,-0.43,-0.43,-0.43,-0.43,-0.43,-0.43,-0.43,-0.421,-0.3855,-0.3311,-0.2779,-0.2472,-0.3487,-0.4314,-0.4297,-0.5865,-0.6933,-0.6889,-0.6834,-0.6712,-0.6556,-0.6597,-0.6542,-0.6378,-0.6246,-0.618,-0.618,-0.618,-0.618,-0.618,-0.618,-0.6219,-0.63,-0.63,-0.63,-0.63,-0.6637,-0.6676,0.9066,1.0311,1.1622,1.1811,1.2452,1.3116,1.3742,1.4676,1.5739,1.6931,1.5142,1.3093,1.1986,1.164,1.14,1.1122,1.1287,1.1234,1.0767,1.065,1.0453,0.9955,0.973,0.9579,0.9579,0.9575,0.9575,0.9579,0.9575,0.8421,0.5772,0.562,0.4357,0.1622,0.3311,0.4288,0.4289,0.6157,0.683,0.6384,0.6384,0.6299,0.6086,0.5938,0.5771,0.5508,0.5508,0.4422,0.2733,0.269,0.1627,0.0,0.0,-0.018,-0.0448,-0.0628,-0.083,-0.1011,-0.1221,-0.1308,-0.1296,-0.1296,-0.1296,-0.1296,-0.1296,-0.1569,-0.2009,-0.2462,-0.2924,-0.3446,-0.4038,-0.4234,-0.4297,-0.43,-0.43,-0.43,-0.43,-0.43,-0.43,-0.43,-0.43,-0.43,-0.43,-0.3539,-0.2911,-0.2911,-0.3712,-0.4289,-0.4334,-0.5935,-0.7041,-0.6903,-0.6886,-0.6868,-0.6715,-0.6566,-0.6518,-0.6511,-0.6139,-0.5906,-0.5902,-0.5902,-0.5902,-0.5902,-0.5902,-0.6022,-0.63,-0.63,-0.63,-0.63,-0.6486,-0.6602,0.7678,0.8613,0.9378,0.9554,1.0743,1.2023,1.2451,1.3653,1.4696,1.5048,1.4314,1.3215,1.1959,1.1461,1.1096,1.0784,1.1008,1.1046,1.0678,1.0749,1.066,1.0037,0.9904,0.9826,0.9628,0.951,0.949,0.9616,0.9397,0.853,0.693,0.6088,0.4789,0.2843,0.2642,0.3108,0.4289,0.4868,0.5585,0.6554,0.643,0.6163,0.5689,0.5638,0.5572,0.5508,0.5508,0.4855,0.3726,0.2353,0.1061,0.0,0.0,-0.0264,-0.0615,-0.0659,-0.0906,-0.1221,-0.1263,-0.1308,-0.1296,-0.1296,-0.1296,-0.1296,-0.1296,-0.1375,-0.1617,-0.2383,-0.2682,-0.2986,-0.3834,-0.4142,-0.4226,-0.4285,-0.43,-0.43,-0.43,-0.43,-0.43,-0.43,-0.43,-0.421,-0.3853,-0.3315,-0.2778,-0.2466,-0.3491,-0.4779,-0.6115,-0.6738,-0.7082,-0.7038,-0.7034,-0.6974,-0.6871,-0.6912,-0.6807,-0.6532,-0.6327,-0.6147,-0.5909,-0.575,-0.575,-0.5902,-0.5902,-0.6022,-0.63,-0.63,-0.63,-0.63,-0.6486,-0.6602,0.6094,0.6768,0.7291,0.7385,0.8769,1.0317,1.1015,1.2501,1.3509,1.3024,1.2749,1.2447,1.1704,1.1309,1.1014,1.0754,1.1027,1.1071,1.0664,1.0878,1.0764,1.0106,1.0068,0.9989,0.9575,0.9562,0.9516,0.9413,0.9218,0.8428,0.6795,0.6059,0.4802,0.291,0.2523,0.2981,0.4324,0.4632,0.5369,0.6499,0.6322,0.5992,0.5496,0.5507,0.5454,0.5365,0.4984,0.4339,0.345,0.1959,0.0825,0.0,0.0,-0.0301,-0.0688,-0.0688,-0.0975,-0.1288,-0.1288,-0.1298,-0.1296,-0.1296,-0.1296,-0.1296,-0.1296,-0.1296,-0.1458,-0.2315,-0.2565,-0.278,-0.371,-0.4022,-0.4095,-0.422,-0.4275,-0.43,-0.43,-0.43,-0.4255,-0.4076,-0.4032,-0.3853,-0.3406,-0.2914,-0.2645,-0.2734,-0.3935,-0.5403,-0.6918,-0.7095,-0.7095,-0.7095,-0.7095,-0.7061,-0.6977,-0.6997,-0.6915,-0.6583,-0.6427,-0.6176,-0.5912,-0.5712,-0.5712,-0.5899,-0.5902,-0.6022,-0.63,-0.63,-0.6269,-0.6169,-0.6318,-0.6391,0.4526,0.5014,0.5459,0.5579,0.6868,0.8456,0.9567,1.1198,1.2116,1.1111,1.1009,1.1146,1.1278,1.1221,1.1092,1.0936,1.1182,1.1232,1.0789,1.0964,1.0888,1.0139,1.0314,1.0187,0.9516,0.9627,0.9599,0.9155,0.9068,0.8109,0.5954,0.5704,0.4589,0.2393,0.2845,0.3492,0.4273,0.5004,0.5636,0.6188,0.607,0.5794,0.5382,0.5454,0.5354,0.5146,0.4304,0.3413,0.2444,0.1749,0.0882,0.0,0.0,-0.0294,-0.0714,-0.0714,-0.0953,-0.1303,-0.1303,-0.1283,-0.1296,-0.1296,-0.1296,-0.1296,-0.1296,-0.1296,-0.1453,-0.2237,-0.247,-0.2721,-0.3593,-0.3865,-0.3955,-0.412,-0.4226,-0.4287,-0.4287,-0.4293,-0.416,-0.3657,-0.3573,-0.3439,-0.2896,-0.2456,-0.2505,-0.3534,-0.4828,-0.603,-0.6962,-0.7095,-0.7095,-0.7095,-0.7095,-0.7095,-0.7095,-0.6977,-0.6839,-0.6729,-0.643,-0.6165,-0.5967,-0.5718,-0.5712,-0.5899,-0.5902,-0.6022,-0.63,-0.6313,-0.6207,-0.6033,-0.6033,-0.6149,0.4125,0.4719,0.5158,0.5397,0.6684,0.7983,0.8343,0.9453,1.0512,1.083,1.1134,1.1321,1.1155,1.1247,1.12,1.0786,1.1097,1.1335,1.1042,1.1263,1.1239,1.0681,1.0654,1.0431,0.98,0.9609,0.9414,0.91,0.884,0.8237,0.7073,0.6181,0.5001,0.3519,0.2716,0.2682,0.3381,0.401,0.4716,0.0,0.5985,0.5662,0.4648,0.5074,0.5235,0.5192,0.5082,0.4163,0.2625,0.2471,0.1455,0.0,0.0,-0.0287,-0.0697,-0.0697,-0.094,-0.1303,-0.1303,-0.1283,-0.1296,-0.1296,-0.1296,-0.1296,-0.1296,-0.1296,-0.1414,-0.1883,-0.2275,-0.2643,-0.3268,-0.3704,-0.3974,-0.4014,-0.4134,-0.4243,-0.4243,-0.4253,-0.4124,-0.356,-0.35,-0.3262,-0.2437,-0.2207,-0.2594,-0.3924,-0.5048,-0.603,-0.6962,-0.7095,-0.7095,-0.7095,-0.7095,-0.7095,-0.7095,-0.7068,-0.6991,-0.6846,-0.6632,-0.6456,-0.6358,-0.5888,-0.5712,-0.5899,-0.5902,-0.6022,-0.63,-0.6412,-0.645,-0.6376,-0.6376,-0.6557,0.2769,0.3205,0.3695,0.461,0.5556,0.6503,0.7512,0.8255,0.9019,0.9926,1.0566,1.0976,1.0829,1.101,1.1124,1.0966,1.1148,1.1248,1.1053,1.1124,1.1039,1.0589,1.0702,1.0498,0.9588,0.9609,0.9439,0.8902,0.8589,0.8075,0.7228,0.6132,0.5044,0.3883,0.2692,0.2411,0.3141,0.3261,0.373,0.4504,0.4776,0.4447,0.3636,0.4237,0.4743,0.5108,0.5173,0.4223,0.2598,0.2598,0.1574,0.0,0.0,-0.02,-0.052,-0.06,-0.0841,-0.1121,-0.1241,-0.131,-0.1296,-0.1296,-0.1296,-0.1296,-0.1296,-0.1296,-0.1414,-0.2,-0.2353,-0.2675,-0.3344,-0.3706,-0.3916,-0.3961,-0.4073,-0.4216,-0.4216,-0.4031,-0.3771,-0.3213,-0.2973,-0.2596,-0.1883,-0.2174,-0.2874,-0.4105,-0.5092,-0.603,-0.6962,-0.7095,-0.7095,-0.7095,-0.7095,-0.7095,-0.7095,-0.7095,-0.7038,-0.6896,-0.6797,-0.6694,-0.659,-0.6307,-0.6126,-0.6103,-0.6099,-0.6175,-0.6402,-0.6477,-0.6511,-0.6511,-0.6511,-0.6636,0.1341,0.1619,0.2174,0.3552,0.4204,0.494,0.674,0.7388,0.7933,0.8939,0.9807,1.0441,1.0428,1.0649,1.0848,1.1061,1.109,1.1019,1.0816,1.082,1.0669,1.0269,1.0571,1.0454,0.9442,0.9642,0.949,0.8675,0.842,0.7889,0.6917,0.5913,0.4931,0.3918,0.2672,0.2351,0.2969,0.2726,0.2899,0.3483,0.3229,0.3042,0.2857,0.3207,0.3795,0.4584,0.4584,0.372,0.2309,0.2309,0.1371,0.0,0.0,-0.0118,-0.0314,-0.051,-0.0746,-0.0943,-0.1218,-0.1296,-0.1296,-0.1296,-0.1296,-0.1296,-0.1296,-0.1335,-0.1531,-0.2198,-0.2511,-0.2788,-0.3506,-0.3746,-0.3845,-0.3881,-0.4028,-0.4151,-0.4151,-0.3811,-0.3339,-0.2894,-0.2332,-0.1861,-0.1476,-0.2203,-0.3206,-0.4134,-0.508,-0.6024,-0.6929,-0.7082,-0.7095,-0.7095,-0.7095,-0.7095,-0.7095,-0.7095,-0.7048,-0.693,-0.6923,-0.6856,-0.6746,-0.6739,-0.6614,-0.6381,-0.6351,-0.6395,-0.6511,-0.6538,-0.6566,-0.6552,-0.6552,-0.6688,0.1013,0.1527,0.2036,0.2638,0.3473,0.4442,0.571,0.6818,0.7812,0.8729,0.9315,0.9753,1.0147,1.0292,1.0394,1.0655,1.0702,1.063,1.0431,1.055,1.0542,1.0293,1.0494,1.0435,0.9845,0.9705,0.9331,0.8649,0.8428,0.7835,0.6719,0.5862,0.4896,0.3826,0.2813,0.2159,0.199,0.2522,0.2709,0.256,0.2176,0.238,0.3015,0.2075,0.2074,0.2817,0.2817,0.2309,0.1449,0.1449,0.0902,0.0,0.0,-0.0118,-0.0314,-0.051,-0.0746,-0.0943,-0.1218,-0.1296,-0.1296,-0.1296,-0.1296,-0.1296,-0.1296,-0.1531,-0.1843,-0.196,-0.247,-0.3076,-0.3296,-0.3637,-0.3885,-0.3895,-0.3979,-0.4012,-0.4012,-0.3729,-0.3325,-0.2799,-0.1987,-0.1404,-0.1386,-0.2175,-0.3093,-0.4004,-0.5036,-0.5992,-0.68,-0.7021,-0.7095,-0.7095,-0.7095,-0.7095,-0.7095,-0.7095,-0.7088,-0.7068,-0.7068,-0.7004,-0.6862,-0.6856,-0.6817,-0.6647,-0.6552,-0.6494,-0.6511,-0.6607,-0.6736,-0.6868,-0.6868,-0.6936,0.0831,0.1284,0.1683,0.1865,0.2455,0.3269,0.4303,0.5034,0.5758,0.6735,0.7151,0.7831,0.9418,0.9872,1.009,1.0227,1.0273,1.0243,1.0126,0.9986,0.9848,0.9767,0.9927,0.9844,0.9296,0.9243,0.897,0.8317,0.8127,0.7792,0.73,0.6361,0.5411,0.4488,0.3461,0.2564,0.1857,0.2048,0.1999,0.1787,0.1307,0.1285,0.1686,0.0902,0.1293,0.2503,0.2503,0.2035,0.1293,0.1293,0.0784,0.0,0.0,-0.0039,-0.0157,-0.0495,-0.0652,-0.0784,-0.1121,-0.1281,-0.1296,-0.1296,-0.1296,-0.1296,-0.1296,-0.1569,-0.196,-0.2156,-0.2668,-0.3187,-0.3495,-0.3703,-0.3836,-0.3887,-0.393,-0.3987,-0.4091,-0.354,-0.2859,-0.2103,-0.1613,-0.1309,-0.1322,-0.1707,-0.226,-0.3236,-0.4161,-0.5094,-0.6101,-0.6677,-0.7007,-0.7088,-0.7095,-0.7095,-0.7095,-0.7095,-0.7095,-0.7095,-0.7095,-0.7068,-0.7007,-0.7004,-0.6933,-0.6831,-0.6678,-0.6644,-0.6729,-0.6797,-0.6822,-0.6886,-0.6886,-0.692,0.0642,0.0957,0.1264,0.1393,0.1718,0.2318,0.3365,0.3728,0.4096,0.5097,0.5468,0.6145,0.7895,0.86,0.9025,0.9292,0.942,0.948,0.9662,0.9461,0.928,0.9153,0.9312,0.9257,0.8736,0.8809,0.8601,0.8082,0.7869,0.778,0.7731,0.6772,0.5815,0.5043,0.4007,0.2944,0.1891,0.16,0.1409,0.1272,0.0742,0.0522,0.0584,0.0196,0.0667,0.1879,0.1879,0.1528,0.098,0.098,0.0588,0.0,0.0,0.0,-0.0039,-0.0452,-0.0609,-0.0666,-0.1077,-0.1277,-0.1296,-0.1296,-0.1296,-0.1335,-0.1414,-0.1726,-0.2117,-0.255,-0.2943,-0.3374,-0.3724,-0.3818,-0.3849,-0.3854,-0.3918,-0.3958,-0.3858,-0.3261,-0.2489,-0.1555,-0.1368,-0.1314,-0.1307,-0.1305,-0.1638,-0.2623,-0.3427,-0.4334,-0.5442,-0.6287,-0.6837,-0.7028,-0.7045,-0.7058,-0.7092,-0.7095,-0.7095,-0.7095,-0.7095,-0.7095,-0.7095,-0.7095,-0.7048,-0.6943,-0.6871,-0.6851,-0.6886,-0.6886,-0.6906,-0.694,-0.6903,-0.6886,0.0404,0.0592,0.0827,0.1307,0.1478,0.1882,0.3297,0.3589,0.3892,0.4842,0.5182,0.5293,0.522,0.5763,0.6498,0.7458,0.7804,0.811,0.8706,0.9071,0.9149,0.8794,0.89,0.8932,0.8723,0.853,0.8335,0.81,0.7923,0.7722,0.7543,0.6672,0.5815,0.5043,0.4134,0.3071,0.1831,0.1358,0.1149,0.1208,0.073,0.0517,0.0569,0.0194,0.0039,0.0118,0.0118,0.0118,0.0079,0.0079,0.0039,0.0,0.0,0.0,-0.0039,-0.047,-0.0588,-0.0667,-0.1138,-0.1295,-0.1296,-0.1296,-0.1296,-0.1375,-0.1764,-0.2156,-0.255,-0.2943,-0.3413,-0.3763,-0.3802,-0.3868,-0.3873,-0.3828,-0.401,-0.3922,-0.2962,-0.2827,-0.2565,-0.1531,-0.137,-0.138,-0.131,-0.1305,-0.1587,-0.2486,-0.3225,-0.4076,-0.5095,-0.592,-0.6553,-0.6879,-0.6896,-0.695,-0.7085,-0.7095,-0.7095,-0.7095,-0.7095,-0.7095,-0.7095,-0.7095,-0.7092,-0.7085,-0.7078,-0.7011,-0.6886,-0.6886,-0.6953,-0.7082,-0.695,-0.6886,-0.0628,-0.0135,0.0543,0.0719,0.0998,0.137,0.1888,0.2208,0.2531,0.2869,0.316,0.3283,0.3125,0.4631,0.6005,0.6241,0.634,0.6522,0.6867,0.7256,0.7556,0.7737,0.826,0.8539,0.8347,0.8234,0.8086,0.7741,0.7659,0.7504,0.7326,0.7152,0.6536,0.5482,0.4806,0.3581,0.1751,0.1346,0.1164,0.1203,0.0778,0.0563,0.0568,0.0191,0.0,0.0,0.0,0.0,0.0,0.0,0.0,0.0,0.0,0.0,-0.0039,-0.0455,-0.0612,-0.0666,-0.108,-0.1279,-0.1293,-0.1234,-0.128,-0.1371,-0.1735,-0.2131,-0.2589,-0.2982,-0.3452,-0.3802,-0.3802,-0.3826,-0.3857,-0.3844,-0.4016,-0.4001,-0.3233,-0.2907,-0.257,-0.1898,-0.1507,-0.1331,-0.1321,-0.1303,-0.1406,-0.1711,-0.2439,-0.3301,-0.4293,-0.5016,-0.5785,-0.6682,-0.6654,-0.6668,-0.695,-0.696,-0.7001,-0.7092,-0.7095,-0.7095,-0.7095,-0.7095,-0.7095,-0.7095,-0.7095,-0.6977,-0.6783,-0.693,-0.6895,-0.658,-0.6719,-0.6729,-0.13,-0.0586,0.0271,0.0359,0.0634,0.0911,0.1026,0.1339,0.1567,0.1645,0.1853,0.2002,0.1901,0.3416,0.4724,0.4858,0.5002,0.5238,0.5628,0.598,0.6426,0.7011,0.751,0.7825,0.7991,0.7949,0.7791,0.7522,0.7484,0.0,0.7317,0.7419,0.6825,0.5372,0.4608,0.3358,0.162,0.1307,0.1161,0.1151,0.0769,0.0556,0.0561,0.0189,0.0,0.0,0.0,0.0,0.0,0.0,0.0,0.0,0.0,-0.0038,-0.0156,-0.0492,-0.0649,-0.0745,-0.1118,-0.1234,-0.1279,-0.123,-0.1234,-0.1356,-0.1883,-0.2247,-0.2628,-0.3178,-0.3569,-0.3802,-0.3802,-0.3802,-0.3841,-0.3955,-0.393,-0.3768,-0.3585,-0.3221,-0.2782,-0.2085,-0.1708,-0.1457,-0.1275,-0.1303,-0.1296,-0.1296,-0.2157,-0.3074,-0.3836,-0.4684,-0.5611,-0.6525,-0.6497,-0.6577,-0.6869,-0.6886,-0.6947,-0.7088,-0.7095,-0.7095,-0.7095,-0.7095,-0.7095,-0.7095,-0.7048,-0.6898,-0.6556,-0.6906,-0.6888,-0.6453,-0.661,-0.6566,0.0,0.0,0.0,0.0315,0.0416,0.0516,0.0884,0.1061,0.1159,0.1354,0.1539,0.1683,0.1682,0.1981,0.2419,0.3226,0.3756,0.4338,0.5112,0.5416,0.588,0.6707,0.6623,0.6815,0.7684,0.7603,0.7522,0.7484,0.7484,0.748,0.7476,0.7464,0.658,0.4643,0.3437,0.238,0.1401,0.1196,0.1093,0.1084,0.0701,0.0498,0.0474,0.015,0.0,0.0,0.0,0.0,0.0,0.0,0.0,0.0,0.0,-0.0115,-0.0314,-0.051,-0.0707,-0.0943,-0.1218,-0.1237,-0.1217,-0.1285,-0.1274,-0.1368,-0.2216,-0.2506,-0.2704,-0.3563,-0.38,-0.3802,-0.3802,-0.3804,-0.3874,-0.414,-0.3634,-0.3266,-0.3867,-0.3713,-0.3168,-0.2047,-0.185,-0.1761,-0.1299,-0.1277,-0.1296,-0.1296,-0.247,-0.3485,-0.3752,-0.5002,-0.6032,-0.6451,-0.6504,-0.659,-0.6852,-0.6879,-0.6943,-0.7088,-0.7095,-0.7095,-0.7095,-0.7092,-0.7088,-0.7088,-0.695,-0.6705,-0.6306,-0.6848,-0.6927,-0.6675,-0.6681,-0.6454,-0.1345,0.0,0.0,0.0,0.0,0.0,0.0536,0.0849,0.1119,0.1157,0.1327,0.1485,0.144,0.1632,0.1892,0.2054,0.2588,0.3017,0.3249,0.3869,0.445,0.4844,0.5848,0.658,0.6853,0.7369,0.7642,0.0,0.7484,0.7427,0.7301,0.7045,0.6193,0.4637,0.389,0.29,0.1612,0.1337,0.1145,0.1089,0.0902,0.07,0.051,0.0294,0.0149,0.0,0.0,0.0,0.0,0.0,0.0,0.0,0.0,-0.0038,-0.0115,-0.0468,-0.0628,-0.0746,-0.1139,-0.1237,-0.1213,-0.1221,-0.1392,-0.166,-0.2189,-0.2598,-0.2981,-0.3512,-0.3712,-0.3802,-0.3802,-0.3851,-0.3865,-0.3915,-0.3838,-0.3693,-0.3418,-0.3339,-0.3146,-0.2429,-0.208,-0.1775,-0.1364,-0.1291,-0.1296,-0.1296,-0.2119,-0.3017,-0.3713,-0.4533,-0.5365,-0.6273,-0.6198,-0.6235,-0.6697,-0.6763,-0.6871,-0.7082,-0.7095,-0.7095,-0.7095,-0.6997,-0.6943,-0.6943,-0.6841,-0.6647,-0.6453,-0.6688,-0.6556,-0.6054,-0.6317,-0.6354,-0.1345,-0.0718,0.0,0.0,0.0,0.0,0.0351,0.0568,0.0785,0.0907,0.1035,0.1113,0.1168,0.1369,0.1558,0.1581,0.1963,0.2276,0.2353,0.2898,0.3482,0.4029,0.4841,0.5535,0.596,0.6395,0.6681,0.6878,0.687,0.6952,0.7119,0.6943,0.6128,0.4563,0.4143,0.3195,0.1639,0.1322,0.1159,0.1095,0.0861,0.0695,0.051,0.0288,0.011,0.0,0.0,0.0,0.0,0.0,0.0,0.0,0.0,-0.0037,-0.0152,-0.0494,-0.0656,-0.0784,-0.1152,-0.1216,-0.121,-0.1197,-0.144,-0.1791,-0.2249,-0.2654,-0.3109,-0.3558,-0.3722,-0.3802,-0.3802,-0.3843,-0.3838,-0.3864,-0.3712,-0.3539,-0.3237,-0.3074,-0.2821,-0.2291,-0.2025,-0.176,-0.1317,-0.1288,-0.1296,-0.1296,-0.2002,-0.2821,-0.3677,-0.4416,-0.5198,-0.6183,-0.6191,-0.6318,-0.6681,-0.6759,-0.6895,-0.7082,-0.7095,-0.7068,-0.7011,-0.693,-0.6856,-0.6834,-0.6681,-0.6532,-0.6422,-0.6597,-0.6488,-0.6084,-0.6242,-0.63,-0.13,-0.0628,0.0,0.0,0.0,0.0,0.0214,0.0297,0.0379,0.0618,0.0697,0.0737,0.0937,0.1101,0.1298,0.1505,0.1701,0.1897,0.212,0.2314,0.2784,0.3756,0.3793,0.4064,0.4955,0.4999,0.5224,0.5897,0.6061,0.635,0.6932,0.698,0.619,0.4419,0.4207,0.3274,0.1501,0.1318,0.1156,0.1091,0.0774,0.0606,0.051,0.0178,0.0036,0.0,0.0,0.0,0.0,0.0,0.0,0.0,0.0,-0.0108,-0.0337,-0.0516,-0.0716,-0.0933,-0.1116,-0.1187,-0.1202,-0.1249,-0.1489,-0.1854,-0.239,-0.2783,-0.3133,-0.3643,-0.3795,-0.3802,-0.3802,-0.381,-0.3837,-0.3867,-0.3512,-0.3127,-0.3182,-0.2791,-0.2309,-0.1955,-0.1979,-0.1879,-0.1308,-0.1363,-0.1419,-0.1302,-0.1965,-0.2824,-0.3688,-0.4513,-0.5344,-0.6269,-0.6463,-0.6559,-0.6712,-0.6851,-0.694,-0.7065,-0.7088,-0.7024,-0.6866,-0.6862,-0.6831,-0.6678,-0.6525,-0.6426,-0.63,-0.6508,-0.6566,-0.6484,-0.6358,-0.631,-0.0359,-0.0135,0.0,0.0,0.0,0.0,0.0044,0.0222,0.0397,0.0432,0.0602,0.0723,0.0737,0.0785,0.0872,0.1096,0.1272,0.1557,0.1895,0.2004,0.2082,0.2316,0.286,0.3326,0.3521,0.4142,0.483,0.5624,0.6314,0.6747,0.6765,0.6914,0.6158,0.428,0.4135,0.3266,0.1504,0.1316,0.1187,0.1194,0.094,0.0761,0.0583,0.0355,0.0141,0.0,0.0,0.0,0.0,0.0,0.0,0.0,0.0,-0.0106,-0.0322,-0.0519,-0.0718,-0.0914,-0.1131,-0.1191,-0.1248,-0.1498,-0.1843,-0.2208,-0.2677,-0.3074,-0.3377,-0.357,-0.3705,-0.3802,-0.3802,-0.3857,-0.3859,-0.3843,-0.3552,-0.3132,-0.2733,-0.2317,-0.2134,-0.2444,-0.2853,-0.2714,-0.1482,-0.1915,-0.2178,-0.1414,-0.1987,-0.2841,-0.3854,-0.4668,-0.5551,-0.6518,-0.6637,-0.6719,-0.6871,-0.6869,-0.69,-0.6923,-0.7034,-0.6977,-0.6756,-0.6746,-0.6671,-0.6559,-0.6416,-0.6327,-0.63,-0.6193,-0.621,-0.634,-0.6313,-0.6361,-0.0045,0.0,0.0,0.0,0.0,0.0,0.0,0.0088,0.0219,0.0212,0.0295,0.0376,0.049,0.0493,0.058,0.0786,0.0869,0.103,0.1222,0.1611,0.1918,0.1918,0.2252,0.2511,0.2511,0.2868,0.3537,0.4628,0.5475,0.6089,0.6431,0.6391,0.5692,0.4248,0.3797,0.2925,0.1581,0.0925,0.0799,0.1189,0.0477,0.0291,0.0582,0.028,0.0104,0.0,0.0,0.0,0.0,0.0,0.0,0.0,0.0,-0.0139,-0.0316,-0.0541,-0.0735,-0.0927,-0.1099,-0.1166,-0.1234,-0.1344,-0.1771,-0.225,-0.2555,-0.3086,-0.3618,-0.3669,-0.3767,-0.3802,-0.3802,-0.3837,-0.3859,-0.3812,-0.3482,-0.3064,-0.2595,-0.2177,-0.2042,-0.2548,-0.3202,-0.3515,-0.2846,-0.3088,-0.3041,-0.2152,-0.2269,-0.2847,-0.3879,-0.4335,-0.5149,-0.6557,-0.6702,-0.6732,-0.6807,-0.6814,-0.6814,-0.6814,-0.6881,-0.682,-0.6597,-0.6586,-0.6552,-0.6515,-0.6443,-0.6443,-0.6518,-0.6325,-0.6254,-0.63,-0.63,-0.6337,0.0,0.0,0.0,0.0,0.0,0.0,0.0,0.0,0.0,0.0,0.0,0.0041,0.0204,0.0246,0.0332,0.0546,0.0543,0.0584,0.0634,0.1209,0.1644,0.1637,0.1678,0.1693,0.1701,0.1865,0.2478,0.3697,0.4553,0.537,0.6144,0.5837,0.5148,0.4104,0.3417,0.2496,0.1295,0.0431,0.031,0.0953,-0.0111,-0.0184,0.0587,0.0175,0.0,0.0,0.0,0.0,0.0,0.0,0.0,0.0,0.0,-0.0136,-0.0346,-0.0526,-0.0747,-0.0969,-0.107,-0.1147,-0.1186,-0.1203,-0.1727,-0.2373,-0.2554,-0.3144,-0.3775,-0.3775,-0.3775,-0.3779,-0.3798,-0.3802,-0.3802,-0.3802,-0.3374,-0.2904,-0.2589,-0.2125,-0.1985,-0.2746,-0.3456,-0.3979,-0.4097,-0.4196,-0.3895,-0.2855,-0.2593,-0.2817,-0.3641,-0.3926,-0.4647,-0.6306,-0.6617,-0.6732,-0.6702,-0.6702,-0.6688,-0.6658,-0.6685,-0.662,-0.6477,-0.6497,-0.6525,-0.6555,-0.6555,-0.6576,-0.6702,-0.6549,-0.6453,-0.634,-0.6313,-0.6313,0.0,0.0,0.0,0.0,0.0,0.0,0.0,0.0,0.0,0.0,0.0,0.0,0.0041,0.0,0.0,0.038,0.0434,0.0485,0.0652,0.0779,0.0815,0.0757,0.0888,0.103,0.1011,0.1937,0.2879,0.3749,0.4614,0.5396,0.6065,0.5615,0.4831,0.3698,0.3135,0.199,0.0196,0.0078,0.0039,0.0117,-0.0381,-0.0188,0.0603,0.0183,0.0,0.0,0.0,0.0,0.0,0.0,0.0,0.0,0.0,-0.02,-0.0493,-0.0566,-0.0811,-0.1097,-0.1174,-0.1168,-0.1161,-0.1503,-0.2202,-0.2963,-0.3221,-0.3429,-0.3642,-0.3642,-0.3642,-0.3661,-0.3781,-0.3802,-0.3802,-0.3802,-0.3176,-0.255,-0.2511,-0.1916,-0.1864,-0.3524,-0.3788,-0.376,-0.3813,-0.4524,-0.4489,-0.2874,-0.254,-0.261,-0.2905,-0.3681,-0.4548,-0.5547,-0.6383,-0.6848,-0.6712,-0.6702,-0.6644,-0.6549,-0.6624,-0.6576,-0.6334,-0.6446,-0.6576,-0.6671,-0.6675,-0.6681,-0.6702,-0.6549,-0.6504,-0.6484,-0.6358,-0.6368,0.0,0.0,0.0,0.0,0.0,0.0,0.0,0.0,0.0,0.0,0.0,0.0,0.0,0.0,0.0,0.0,0.0171,0.0216,0.0299,0.0299,0.0385,0.0644,0.0709,0.0732,0.0719,0.1155,0.1744,0.2466,0.3527,0.4398,0.5033,0.5219,0.4784,0.3627,0.3093,0.1897,0.0,-0.0509,-0.0744,-0.0744,-0.1148,-0.0907,-0.0076,-0.0037,0.0,0.0,0.0,0.0,-0.0034,-0.0475,-0.0639,-0.0639,-0.074,-0.0635,-0.05,-0.056,-0.08,-0.1118,-0.114,-0.1131,-0.12,-0.1849,-0.2318,-0.2769,-0.3329,-0.3605,-0.3705,-0.3705,-0.3975,-0.4253,-0.43,-0.4579,-0.481,-0.4696,-0.3837,-0.2978,-0.286,-0.241,-0.2389,-0.3653,-0.4079,-0.4428,-0.4951,-0.5454,-0.5349,-0.4051,-0.3385,-0.3125,-0.3342,-0.3285,-0.3798,-0.5349,-0.5771,-0.6142,-0.6539,-0.6491,-0.6457,-0.6395,-0.6528,-0.6515,-0.631,-0.6521,-0.6634,-0.6698,-0.6787,-0.6831,-0.6831,-0.677,-0.6647,-0.6508,-0.6364,-0.633,0.0,0.0,0.0,0.0,0.0,0.0,0.0,0.0,0.0,0.0,0.0,0.0,0.0,0.0,0.0,-0.0083,0.0,-0.0168,-0.0459,-0.0548,-0.0299,0.0434,0.0515,0.0544,0.0603,0.0604,0.0903,0.1634,0.2484,0.3366,0.4225,0.459,0.4375,0.3559,0.2994,0.171,-0.0352,-0.0979,-0.1332,-0.1371,-0.1732,-0.1375,-0.0344,-0.0113,0.0,0.0,-0.0215,-0.0318,-0.035,-0.1088,-0.1377,-0.1377,-0.1478,-0.1344,-0.108,-0.1005,-0.117,-0.1418,-0.1399,-0.1252,-0.1228,-0.2055,-0.2353,-0.256,-0.3375,-0.3673,-0.3769,-0.3795,-0.4094,-0.4428,-0.4652,-0.5007,-0.5354,-0.5318,-0.4343,-0.3329,-0.3132,-0.2626,-0.2392,-0.3209,-0.383,-0.4416,-0.4963,-0.5592,-0.5663,-0.4511,-0.3767,-0.3234,-0.2995,-0.2705,-0.3143,-0.4826,-0.5236,-0.5676,-0.6448,-0.6457,-0.6402,-0.6361,-0.6457,-0.6467,-0.6361,-0.6566,-0.6702,-0.6702,-0.6851,-0.6866,-0.6865,-0.6824,-0.6688,-0.6511,-0.6405,-0.6337,0.0,0.0,0.0,0.0,0.0,0.0,0.0,0.0,0.0,0.0,0.0,0.0,0.0,0.0,-0.0084,-0.0245,-0.0291,0.0,0.0,-0.1941,-0.1517,-0.0131,0.0174,0.0388,0.059,0.0643,0.1012,0.1847,0.192,0.2604,0.4134,0.3728,0.3421,0.3306,0.2798,0.13,-0.1254,-0.1293,-0.141,-0.1607,-0.1802,-0.1135,0.0275,0.0078,0.0,-0.0038,-0.0773,-0.1076,-0.1119,-0.1799,-0.2079,-0.2079,-0.2079,-0.2315,-0.256,-0.2041,-0.2027,-0.2266,-0.2177,-0.168,-0.1225,-0.2033,-0.2353,-0.256,-0.3375,-0.359,-0.3648,-0.3777,-0.3738,-0.3802,-0.4516,-0.4701,-0.4815,-0.5204,-0.4343,-0.3329,-0.3132,-0.2156,-0.1532,-0.2118,-0.2741,-0.3091,-0.2935,-0.4423,-0.5095,-0.348,-0.3165,-0.2558,-0.0994,-0.178,-0.2817,-0.3678,-0.4798,-0.5774,-0.6455,-0.6603,-0.6624,-0.6515,-0.6511,-0.6511,-0.6504,-0.6617,-0.6702,-0.6702,-0.6851,-0.6854,-0.6709,-0.6559,-0.6521,-0.6511,-0.6508,-0.6429,0.0,0.0,0.0,0.0,0.0,0.0,0.0,0.0,0.0,0.0,0.0,0.0,0.0,-0.012,-0.0241,-0.0279,-0.0891,-0.1468,0.0,-0.2473,-0.2784,-0.2424,-0.2317,-0.1989,-0.1245,-0.1178,-0.0772,0.0192,0.1017,0.171,0.2117,0.293,0.312,0.2475,0.2464,0.1554,-0.0431,-0.1019,-0.141,-0.1607,-0.1803,-0.1412,-0.0471,-0.0157,-0.0271,-0.0756,-0.0995,-0.1364,-0.1815,-0.2544,-0.2815,-0.2848,-0.3117,-0.332,-0.336,-0.268,-0.2637,-0.2822,-0.2296,-0.1682,-0.1235,-0.2097,-0.2386,-0.2567,-0.348,-0.3716,-0.3724,-0.3793,-0.4051,-0.438,-0.4652,-0.4815,-0.4888,-0.4885,-0.3949,-0.2937,-0.2743,-0.2392,-0.2158,-0.2353,-0.2782,-0.3093,-0.3013,-0.3287,-0.339,-0.2949,-0.2423,-0.1919,-0.1443,-0.1351,-0.1874,-0.3331,-0.403,-0.4936,-0.6368,-0.6559,-0.6569,-0.662,-0.6624,-0.6706,-0.6907,-0.7119,-0.7204,-0.7165,-0.7313,-0.722,-0.6954,-0.6882,-0.676,-0.6563,-0.6507,-0.6436,0.0,0.0,0.0,0.0,0.0,0.0,0.0,0.0,0.0,0.0,-0.0039,-0.0118,-0.0118,-0.0275,-0.0432,-0.051,-0.1351,-0.228,0.0,-0.4048,-0.4706,-0.4876,-0.4126,-0.3317,-0.2601,-0.2593,-0.2211,-0.1155,-0.0274,0.0458,0.1041,0.0,0.2512,0.1919,0.215,0.1528,-0.0078,-0.1058,-0.1411,-0.1255,-0.1764,-0.1686,-0.102,-0.0628,-0.0852,-0.1549,-0.1804,-0.215,-0.2545,-0.3356,-0.3654,-0.3623,-0.4025,-0.4185,-0.418,-0.35,-0.3238,-0.3125,-0.2423,-0.169,-0.1238,-0.2118,-0.2401,-0.2572,-0.3515,-0.3802,-0.3795,-0.3724,-0.4048,-0.4409,-0.4561,-0.4635,-0.4681,-0.4676,-0.3728,-0.274,-0.2549,-0.2276,-0.2041,-0.1962,-0.2391,-0.2663,-0.2272,-0.2193,-0.217,-0.2182,-0.1778,-0.1431,-0.1275,-0.1229,-0.1807,-0.3414,-0.4123,-0.5072,-0.6591,-0.6563,-0.6559,-0.677,-0.6678,-0.6767,-0.7109,-0.7214,-0.7246,-0.7282,-0.7375,-0.7293,-0.7025,-0.6933,-0.6759,-0.6602,-0.647,-0.6388]}]]